[[{"header":{"parameterUnit":"m.s-1","parameterCategory":1,"la1":31.0,"la2":29.5877,"lo1":-88.7671,"lo2":-86.6584,"dy":0.0162,"dx":0.0185,"nx":115,"ny":88,"refTime":"2024-02-09T06:00:00:Z","depth":0,"parameterNumber":2,"parameterNumberName":"U-component_of_WINDS"},"data":[0.0,0.0,0.0,0.0,0.0,0.0,0.0,0.0,0.0,0.0,0.0,0.0,0.0,0.0,0.0,0.0,0.0,0.0,0.0,0.0,0.0,0.0,0.0,0.0,0.0,0.0,0.0,0.0,0.0,0.0,0.0,0.0,0.0,0.0,0.0,0.0,0.0,0.0,0.0,0.0,0.0,0.0,0.0,0.0,0.0,0.0,0.0,0.0,0.0,0.0,0.0,0.0,0.0,0.0,0.0,0.0,0.0,0.0,0.0,0.0,0.0,0.0,0.0,0.0,0.0,0.0,0.0,0.0,0.0,0.0,0.0,0.0,0.0,0.0,0.0,0.0,0.0,0.0,0.0,0.0,0.0,0.0,0.0,0.0,0.0,0.0,0.0,0.0,0.0,0.0,0.0,0.0,0.0,0.0,0.0,0.0,0.0,0.0,0.0,0.0,0.0,0.0,0.0,0.0,0.0,0.0,0.0,0.0,0.0,0.0,0.0,0.0,0.0,0.0,0.0,0.0,0.0,0.0,0.0,0.0,0.0,0.0,0.0,0.0,0.0,0.0,0.0,0.0,0.0,0.0,0.0,0.0,0.0,0.0,0.0,0.0,0.0,0.0,0.0,0.0,0.0,0.0,0.0,0.0,0.0,0.0,0.0,0.0,0.0,0.0,0.0,0.0,0.0,0.0,0.0,0.0,0.0,0.0,0.0,0.0,0.0,0.0,0.0,0.0,0.0,0.0,0.0,0.0,0.0,0.0,0.0,0.0,0.0,0.0,0.0,0.0,0.0,0.0,0.0,0.0,0.0,0.0,0.0,0.0,0.0,0.0,0.0,0.0,0.0,0.0,0.0,0.0,0.0,0.0,0.0,0.0,0.0,0.0,0.0,0.0,0.0,0.0,0.0,0.0,0.0,0.0,0.0,0.0,0.0,0.0,0.0,0.0,0.0,0.0,0.0,0.0,0.0,0.0,0.0,0.0,0.0,0.0,0.0,0.0,0.0,0.0,0.0,0.0,0.0,0.0,0.0,0.0,0.0,0.0,0.0,0.0,0.0,0.0,0.0,0.0,0.0,0.0,0.0,0.0,0.0,0.0,0.0,0.0,0.0,0.0,0.0,0.0,0.0,0.0,0.0,0.0,0.0,0.0,0.0,0.0,0.0,0.0,0.0,0.0,0.0,0.0,0.0,0.0,0.0,0.0,0.0,0.0,0.0,0.0,0.0,0.0,0.0,0.0,0.0,0.0,0.0,0.0,0.0,0.0,0.0,0.0,0.0,0.0,0.0,0.0,0.0,0.0,0.0,0.0,0.0,0.0,0.0,0.0,0.0,0.0,0.0,0.0,0.0,0.0,0.0,0.0,0.0,0.0,0.0,0.0,0.0,0.0,0.0,0.0,0.0,0.0,0.0,0.0,0.0,0.0,0.0,0.0,0.0,0.0,0.0,0.0,0.0,0.0,0.0,0.0,0.0,0.0,0.0,0.0,0.0,0.0,0.0,0.0,0.0,0.0,0.0,0.0,0.0,0.0,0.0,0.0,0.0,0.0,0.0,0.0,0.0,0.0,0.0,0.0,0.0,0.0,0.0,0.0,0.0,0.0,0.0,0.0,0.0,0.0,0.0,0.0,0.0,0.0,0.0,0.0,0.0,0.0,0.0,0.0,0.0,0.0,0.0,0.0,0.0,0.0,0.0,0.0,0.0,0.0,0.0,0.0,0.0,0.0,0.0,0.0,0.0,0.0,0.0,0.0,0.0,0.0,0.0,0.0,0.0,0.0,0.0,0.0,0.0,0.0,0.0,0.0,0.0,0.0,0.0,0.0,0.0,0.0,0.0,0.0,0.0,0.0,0.0,0.0,0.0,0.0,0.0,0.0,0.0,0.0,0.0,0.0,0.0,0.0,0.0,0.0,0.0,0.0,0.0,0.0,0.0,0.0,0.0,0.0,0.0,0.0,0.0,0.0,0.0,0.0,0.0,0.0,0.0,0.0,0.0,0.0,0.0,0.0,0.0,0.0,0.0,0.0,0.0,0.0,0.0,0.0,0.0,0.0,0.0,0.0,0.0,0.0,0.0,0.0,0.0,0.0,0.0,0.0,0.0,0.0,0.0,0.0,0.0,0.0,0.0,0.0,0.0,0.0,0.0,0.0,0.0,0.0,0.0,0.0,0.0,0.0,0.0,0.0,0.0,0.0,0.0,0.0,0.0,0.0,0.0,0.0,0.0,0.0,0.0,0.0,0.0,0.0,0.0,0.0,0.0,0.0,0.0,0.0,0.0,0.0,0.0,0.0,0.0,0.0,0.0,0.0,0.0,0.0,0.0,0.0,0.0,0.0,0.0,0.0,0.0,0.0,0.0,0.0,0.0,0.0,0.0,0.0,0.0,0.0,0.0,0.0,0.0,0.0,0.0,0.0,0.0,0.0,0.0,0.0,0.0,0.0,0.0,0.0,0.0,0.0,0.0,0.0,0.0,0.0,0.0,0.0,0.0,0.0,0.0,0.0,0.0,0.0,0.0,0.0,0.0,0.0,0.0,0.0,0.0,0.0,0.0,0.0,0.0,0.0,0.0,0.0,0.0,0.0,0.0,0.0,0.0,0.0,0.0,0.0,0.0,0.0,0.0,0.0,0.0,0.0,0.0,0.0,0.0,0.0,0.0,0.0,0.0,0.0,0.0,0.0,0.0,0.0,0.0,0.0,0.0,0.0,0.0,0.0,0.0,0.0,0.0,0.0,0.0,0.0,0.0,0.0,0.0,0.0,0.0,0.0,0.0,0.0,0.0,0.0,0.0,0.0,0.0,0.0,0.0,0.0,0.0,0.0,0.0,0.0,0.0,0.0,0.0,0.0,0.0,0.0,0.0,0.0,0.0,0.0,0.0,0.0,0.0,0.0,0.0,0.0,0.0,0.0,0.0,0.0,0.0,0.0,0.0,0.0,0.0,0.0,0.0,0.0,0.0,0.0,0.0,0.0,0.0,0.0,0.0,0.0,0.0,0.0,0.0,0.0,0.0,0.0,0.0,0.0,0.0,0.0,0.0,0.0,0.0,0.0,0.0,0.0,0.0,0.0,0.0,0.0,0.0,0.0,0.0,0.0,0.0,0.0,0.0,0.0,0.0,0.0,0.0,0.0,0.0,0.0,0.0,0.0,0.0,0.0,0.0,0.0,0.0,0.0,0.0,0.0,0.0,0.0,0.0,0.0,0.0,0.0,0.0,0.0,0.0,0.0,0.0,0.0,0.0,0.0,0.0,0.0,0.0,0.0,0.0,0.0,0.0,0.0,0.0,0.0,0.0,0.0,0.0,0.0,0.0,0.0,0.0,0.0,0.0,0.0,0.0,0.0,0.0,0.0,0.0,0.0,0.0,0.0,0.0,0.0,0.0,0.0,0.0,0.0,0.0,0.0,0.0,0.0,0.0,0.0,0.0,0.0,0.0,0.0,0.0,0.0,0.0,0.0,0.0,0.0,0.0,0.0,0.0,0.0,0.0,0.0,0.0,0.0,0.0,0.0,0.0,0.0,0.0,0.0,0.0,0.0,0.0,0.0,0.0,0.0,0.0,0.0,0.0,0.0,0.0,0.0,0.0,0.0,0.0,0.0,0.0,0.0,0.0,0.0,0.0,0.0,0.0,0.0,0.0,0.0,0.0,0.0,0.0,0.0,0.0,0.0,0.0,0.0,0.0,0.0,0.0,0.0,0.0,0.0,0.0,0.0,0.0,0.0,0.0,0.0,0.0,0.0,0.0,0.0,0.0,0.0,0.0,0.0,0.0,0.0,0.0,0.0,0.0,0.0,0.0,0.0,0.0,0.0,0.0,0.0,0.0,0.0,0.0,0.0,0.0,0.0,0.0,0.0,0.0,0.0,0.0,0.0,0.0,0.0,0.0,0.0,0.0,0.0,0.0,0.0,0.0,0.0,0.0,0.0,0.0,0.0,0.0,0.0,0.0,0.0,0.0,0.0,0.0,0.0,0.0,0.0,0.0,0.0,0.0,0.0,0.0,0.0,0.0,0.0,0.0,0.0,0.0,0.0,0.0,0.0,0.0,0.0,0.0,0.0,0.0,0.0,0.0,0.0,0.0,0.0,0.0,0.0,0.0,0.0,0.0,0.0,0.0,0.0,0.0,0.0,0.0,0.0,0.0,0.0,0.0,0.0,0.0,0.0,0.0,0.0,0.0,0.0,0.0,0.0,0.0,0.0,0.0,0.0,0.0,0.0,0.0,0.0,0.0,0.0,0.0,0.0,0.0,0.0,0.0,0.0,-4.0052,0.0,0.0,0.0,-3.8928,0.0,0.0,0.0,0.0,0.0,0.0,0.0,0.0,0.0,0.0,0.0,0.0,0.0,0.0,0.0,0.0,0.0,0.0,0.0,0.0,0.0,0.0,0.0,0.0,0.0,0.0,0.0,0.0,0.0,0.0,0.0,0.0,0.0,0.0,0.0,0.0,0.0,0.0,0.0,0.0,0.0,0.0,0.0,0.0,0.0,0.0,0.0,0.0,0.0,0.0,0.0,0.0,0.0,0.0,0.0,0.0,0.0,0.0,0.0,0.0,0.0,0.0,0.0,0.0,0.0,0.0,0.0,0.0,0.0,0.0,0.0,0.0,0.0,0.0,0.0,0.0,0.0,0.0,0.0,0.0,0.0,0.0,0.0,0.0,0.0,0.0,0.0,0.0,0.0,0.0,0.0,0.0,0.0,0.0,0.0,0.0,0.0,0.0,0.0,0.0,0.0,0.0,0.0,0.0,0.0,0.0,0.0,0.0,0.0,0.0,-3.991,-4.0012,-4.0081,-3.9891,-3.9517,0.0,0.0,0.0,0.0,0.0,0.0,0.0,0.0,0.0,0.0,0.0,0.0,0.0,0.0,0.0,0.0,0.0,0.0,0.0,0.0,0.0,0.0,0.0,0.0,0.0,0.0,0.0,0.0,0.0,0.0,0.0,0.0,0.0,0.0,0.0,0.0,0.0,0.0,0.0,0.0,0.0,0.0,0.0,0.0,0.0,0.0,0.0,0.0,0.0,0.0,0.0,0.0,0.0,0.0,0.0,0.0,0.0,0.0,0.0,0.0,0.0,0.0,0.0,0.0,0.0,0.0,0.0,0.0,0.0,0.0,0.0,0.0,0.0,0.0,0.0,0.0,0.0,0.0,0.0,0.0,0.0,0.0,0.0,0.0,0.0,0.0,0.0,0.0,0.0,0.0,0.0,0.0,0.0,0.0,0.0,0.0,0.0,0.0,0.0,0.0,0.0,0.0,0.0,0.0,0.0,0.0,0.0,0.0,0.0,0.0,0.0,0.0,-4.0311,-4.0217,-4.0256,0.0,0.0,0.0,0.0,0.0,0.0,0.0,0.0,0.0,0.0,0.0,0.0,0.0,0.0,0.0,0.0,0.0,0.0,0.0,0.0,0.0,0.0,0.0,0.0,0.0,0.0,0.0,0.0,0.0,0.0,0.0,0.0,0.0,0.0,0.0,0.0,0.0,0.0,0.0,0.0,0.0,0.0,0.0,0.0,0.0,0.0,0.0,0.0,0.0,0.0,0.0,0.0,0.0,0.0,0.0,0.0,0.0,0.0,0.0,0.0,0.0,0.0,0.0,0.0,0.0,0.0,0.0,0.0,0.0,0.0,0.0,0.0,0.0,0.0,0.0,0.0,0.0,0.0,0.0,0.0,0.0,0.0,0.0,0.0,0.0,0.0,0.0,0.0,0.0,0.0,0.0,0.0,0.0,0.0,0.0,0.0,0.0,0.0,0.0,0.0,0.0,0.0,0.0,0.0,0.0,0.0,0.0,0.0,0.0,0.0,-4.0328,-4.1756,-4.1189,0.0,-4.0942,0.0,0.0,0.0,0.0,0.0,0.0,0.0,0.0,0.0,0.0,0.0,0.0,0.0,0.0,0.0,0.0,0.0,0.0,0.0,0.0,0.0,0.0,0.0,0.0,0.0,0.0,0.0,0.0,0.0,0.0,0.0,0.0,0.0,0.0,0.0,0.0,0.0,0.0,0.0,0.0,0.0,0.0,0.0,0.0,0.0,0.0,0.0,0.0,0.0,0.0,0.0,0.0,0.0,0.0,0.0,0.0,0.0,0.0,0.0,0.0,0.0,0.0,0.0,0.0,0.0,0.0,0.0,0.0,0.0,0.0,0.0,0.0,0.0,0.0,0.0,0.0,0.0,0.0,0.0,0.0,0.0,0.0,0.0,0.0,0.0,0.0,0.0,0.0,0.0,0.0,0.0,0.0,0.0,0.0,0.0,0.0,0.0,0.0,0.0,0.0,0.0,0.0,0.0,0.0,0.0,0.0,0.0,0.0,0.0,0.0,-4.0628,-4.1254,-4.0565,-4.0376,0.0,0.0,0.0,0.0,0.0,0.0,0.0,0.0,0.0,0.0,0.0,0.0,0.0,0.0,0.0,0.0,0.0,0.0,0.0,0.0,0.0,0.0,0.0,0.0,0.0,0.0,0.0,0.0,0.0,0.0,0.0,0.0,0.0,0.0,0.0,0.0,0.0,0.0,0.0,0.0,0.0,0.0,0.0,0.0,0.0,0.0,0.0,0.0,0.0,0.0,0.0,0.0,0.0,0.0,0.0,0.0,0.0,0.0,0.0,0.0,0.0,0.0,0.0,0.0,0.0,0.0,0.0,0.0,0.0,0.0,0.0,0.0,0.0,0.0,0.0,0.0,0.0,0.0,0.0,0.0,0.0,0.0,0.0,0.0,0.0,0.0,0.0,0.0,0.0,0.0,0.0,0.0,0.0,0.0,0.0,0.0,0.0,0.0,0.0,0.0,0.0,0.0,0.0,0.0,0.0,0.0,0.0,0.0,0.0,0.0,-4.0378,-4.0891,-4.1079,-4.0603,-4.0265,-4.0103,0.0,0.0,0.0,0.0,0.0,0.0,0.0,0.0,0.0,0.0,0.0,0.0,0.0,0.0,0.0,0.0,0.0,0.0,0.0,0.0,0.0,0.0,0.0,0.0,0.0,0.0,0.0,0.0,0.0,0.0,0.0,0.0,0.0,0.0,0.0,0.0,0.0,0.0,0.0,0.0,0.0,0.0,0.0,0.0,0.0,0.0,0.0,0.0,0.0,0.0,0.0,0.0,0.0,0.0,0.0,0.0,0.0,0.0,0.0,0.0,0.0,0.0,0.0,0.0,0.0,0.0,0.0,0.0,0.0,0.0,0.0,0.0,0.0,0.0,0.0,0.0,0.0,0.0,0.0,0.0,0.0,0.0,0.0,0.0,0.0,0.0,0.0,0.0,0.0,0.0,0.0,0.0,0.0,0.0,0.0,0.0,0.0,0.0,0.0,0.0,0.0,0.0,0.0,0.0,0.0,0.0,0.0,0.0,-4.2731,-4.1492,-4.1191,-4.1942,-4.2021,-4.0952,0.0,0.0,0.0,0.0,0.0,0.0,0.0,0.0,0.0,0.0,0.0,0.0,0.0,0.0,0.0,0.0,0.0,0.0,0.0,0.0,0.0,0.0,0.0,0.0,0.0,0.0,0.0,0.0,0.0,0.0,0.0,0.0,0.0,0.0,0.0,0.0,0.0,0.0,0.0,0.0,0.0,0.0,0.0,0.0,0.0,0.0,0.0,0.0,0.0,0.0,0.0,0.0,0.0,0.0,0.0,0.0,0.0,0.0,0.0,0.0,0.0,0.0,0.0,0.0,0.0,0.0,0.0,0.0,0.0,0.0,0.0,0.0,0.0,0.0,0.0,0.0,0.0,0.0,0.0,0.0,0.0,0.0,0.0,0.0,0.0,0.0,0.0,0.0,0.0,0.0,0.0,0.0,0.0,0.0,0.0,0.0,0.0,0.0,0.0,0.0,0.0,0.0,0.0,0.0,0.0,0.0,0.0,0.0,0.0,-3.8402,-3.8952,-4.0691,-4.3516,-4.0652,-3.9296,0.0,0.0,0.0,0.0,0.0,0.0,0.0,0.0,0.0,0.0,0.0,0.0,0.0,0.0,0.0,0.0,0.0,0.0,0.0,0.0,0.0,0.0,0.0,0.0,0.0,0.0,0.0,0.0,0.0,0.0,0.0,0.0,0.0,0.0,0.0,0.0,0.0,0.0,0.0,0.0,0.0,0.0,0.0,0.0,0.0,0.0,0.0,0.0,0.0,0.0,0.0,0.0,0.0,0.0,0.0,0.0,0.0,0.0,0.0,0.0,0.0,0.0,0.0,0.0,0.0,0.0,0.0,0.0,0.0,0.0,0.0,0.0,0.0,0.0,0.0,0.0,0.0,0.0,0.0,0.0,0.0,0.0,0.0,0.0,0.0,0.0,0.0,0.0,0.0,0.0,0.0,0.0,0.0,0.0,0.0,0.0,0.0,0.0,0.0,0.0,0.0,0.0,0.0,0.0,0.0,0.0,0.0,0.0,0.0,-3.7377,0.0,-4.113,-4.324,-3.9899,-3.8328,0.0,0.0,0.0,0.0,0.0,0.0,0.0,0.0,0.0,0.0,0.0,0.0,0.0,0.0,0.0,0.0,0.0,0.0,0.0,0.0,0.0,0.0,0.0,0.0,0.0,0.0,0.0,0.0,0.0,0.0,0.0,0.0,0.0,0.0,0.0,0.0,0.0,0.0,0.0,0.0,0.0,0.0,0.0,0.0,0.0,0.0,0.0,0.0,0.0,0.0,0.0,0.0,0.0,0.0,0.0,0.0,0.0,0.0,0.0,0.0,0.0,0.0,0.0,0.0,0.0,0.0,0.0,0.0,0.0,0.0,0.0,0.0,0.0,0.0,0.0,0.0,0.0,0.0,0.0,0.0,0.0,0.0,0.0,0.0,0.0,0.0,0.0,0.0,0.0,0.0,0.0,0.0,0.0,0.0,0.0,0.0,0.0,0.0,0.0,0.0,0.0,0.0,0.0,0.0,0.0,0.0,0.0,0.0,-3.6494,-4.0516,-4.236,-4.2486,-4.0941,-4.0085,-3.8135,0.0,0.0,0.0,0.0,0.0,0.0,0.0,0.0,0.0,0.0,0.0,0.0,0.0,0.0,0.0,0.0,0.0,0.0,0.0,0.0,0.0,0.0,0.0,0.0,0.0,0.0,0.0,0.0,0.0,0.0,0.0,0.0,0.0,0.0,0.0,0.0,0.0,0.0,0.0,0.0,0.0,0.0,0.0,0.0,0.0,0.0,0.0,0.0,0.0,0.0,0.0,0.0,0.0,0.0,0.0,0.0,0.0,0.0,0.0,0.0,0.0,0.0,0.0,0.0,0.0,0.0,0.0,0.0,0.0,0.0,0.0,0.0,0.0,0.0,0.0,0.0,0.0,0.0,0.0,0.0,0.0,0.0,0.0,0.0,0.0,0.0,0.0,0.0,0.0,0.0,0.0,0.0,0.0,0.0,0.0,0.0,0.0,0.0,0.0,0.0,0.0,0.0,0.0,0.0,0.0,0.0,0.0,0.0,0.0,-3.8214,-4.0441,-4.1958,-4.2536,-3.9597,-3.8278,0.0,0.0,0.0,0.0,0.0,0.0,0.0,0.0,0.0,0.0,0.0,0.0,0.0,0.0,0.0,0.0,0.0,0.0,0.0,0.0,0.0,0.0,0.0,0.0,0.0,0.0,0.0,0.0,0.0,0.0,0.0,0.0,0.0,0.0,0.0,0.0,0.0,0.0,0.0,0.0,0.0,0.0,0.0,0.0,0.0,0.0,0.0,0.0,0.0,0.0,0.0,0.0,0.0,0.0,0.0,0.0,0.0,0.0,0.0,0.0,0.0,0.0,0.0,0.0,0.0,0.0,0.0,0.0,0.0,0.0,0.0,0.0,0.0,0.0,0.0,0.0,0.0,0.0,0.0,0.0,0.0,0.0,0.0,0.0,0.0,0.0,0.0,0.0,0.0,0.0,0.0,0.0,0.0,0.0,0.0,0.0,0.0,0.0,0.0,0.0,0.0,0.0,0.0,0.0,0.0,0.0,0.0,0.0,0.0,-4.0851,-4.3,-4.4285,-4.4523,-4.1588,-3.9894,-3.9554,0.0,0.0,0.0,0.0,0.0,0.0,0.0,0.0,0.0,0.0,0.0,0.0,0.0,0.0,0.0,0.0,0.0,0.0,0.0,0.0,0.0,0.0,0.0,0.0,0.0,0.0,0.0,0.0,0.0,0.0,0.0,0.0,0.0,0.0,0.0,0.0,0.0,0.0,0.0,0.0,0.0,0.0,0.0,0.0,0.0,0.0,0.0,0.0,0.0,0.0,0.0,0.0,0.0,0.0,0.0,0.0,0.0,0.0,0.0,0.0,0.0,0.0,0.0,0.0,0.0,0.0,0.0,0.0,0.0,0.0,0.0,0.0,0.0,0.0,0.0,0.0,0.0,0.0,0.0,0.0,0.0,0.0,0.0,0.0,0.0,0.0,0.0,0.0,0.0,0.0,0.0,0.0,0.0,0.0,0.0,0.0,0.0,0.0,0.0,0.0,0.0,0.0,0.0,0.0,0.0,0.0,0.0,0.0,-4.7252,-4.9391,-4.9301,-4.6771,-4.5556,-4.2681,0.0,0.0,0.0,0.0,0.0,0.0,0.0,0.0,0.0,0.0,0.0,0.0,0.0,0.0,0.0,0.0,0.0,0.0,0.0,0.0,0.0,0.0,0.0,0.0,0.0,0.0,0.0,0.0,0.0,0.0,0.0,0.0,0.0,0.0,0.0,0.0,0.0,0.0,0.0,0.0,0.0,0.0,0.0,0.0,0.0,0.0,0.0,0.0,0.0,0.0,0.0,0.0,0.0,0.0,0.0,0.0,0.0,0.0,0.0,0.0,0.0,0.0,0.0,0.0,0.0,0.0,0.0,0.0,0.0,0.0,0.0,0.0,0.0,0.0,0.0,0.0,0.0,0.0,0.0,0.0,0.0,0.0,0.0,0.0,0.0,0.0,0.0,0.0,0.0,0.0,0.0,0.0,0.0,0.0,0.0,0.0,0.0,0.0,0.0,0.0,0.0,0.0,0.0,0.0,0.0,0.0,0.0,0.0,0.0,-5.1752,-5.5898,-5.6229,-5.2316,-4.7871,-4.4869,0.0,0.0,0.0,0.0,0.0,0.0,0.0,0.0,0.0,0.0,0.0,0.0,0.0,0.0,0.0,0.0,0.0,0.0,0.0,0.0,0.0,0.0,0.0,0.0,0.0,0.0,0.0,0.0,0.0,0.0,0.0,0.0,0.0,0.0,0.0,0.0,0.0,0.0,0.0,0.0,0.0,0.0,0.0,0.0,0.0,0.0,0.0,0.0,0.0,0.0,0.0,0.0,0.0,0.0,0.0,0.0,0.0,0.0,0.0,0.0,0.0,0.0,0.0,0.0,0.0,0.0,0.0,0.0,0.0,0.0,0.0,0.0,0.0,0.0,0.0,0.0,0.0,0.0,0.0,0.0,0.0,0.0,0.0,0.0,0.0,0.0,0.0,0.0,0.0,0.0,0.0,0.0,0.0,0.0,0.0,0.0,0.0,0.0,0.0,0.0,0.0,0.0,0.0,0.0,0.0,0.0,0.0,0.0,-5.029,-5.4253,-5.9616,-6.1317,-5.9102,-5.3559,-4.8865,0.0,0.0,0.0,0.0,0.0,0.0,0.0,0.0,0.0,0.0,0.0,0.0,0.0,0.0,0.0,0.0,0.0,0.0,0.0,0.0,0.0,0.0,0.0,0.0,0.0,0.0,0.0,0.0,0.0,0.0,0.0,0.0,0.0,0.0,0.0,0.0,0.0,0.0,0.0,0.0,0.0,0.0,0.0,0.0,0.0,0.0,0.0,0.0,0.0,0.0,0.0,0.0,0.0,0.0,0.0,0.0,0.0,0.0,0.0,0.0,0.0,0.0,0.0,0.0,0.0,0.0,0.0,0.0,0.0,0.0,0.0,0.0,0.0,0.0,0.0,0.0,0.0,0.0,0.0,0.0,0.0,0.0,0.0,0.0,0.0,0.0,0.0,0.0,0.0,0.0,0.0,0.0,0.0,0.0,0.0,0.0,0.0,0.0,0.0,0.0,0.0,0.0,0.0,0.0,0.0,0.0,0.0,0.0,-5.2499,-5.5883,-6.1653,-6.496,-6.5298,-5.999,-5.3369,0.0,0.0,0.0,0.0,0.0,0.0,0.0,0.0,0.0,0.0,0.0,0.0,0.0,0.0,0.0,0.0,0.0,0.0,0.0,0.0,0.0,0.0,0.0,0.0,0.0,0.0,0.0,0.0,0.0,0.0,0.0,0.0,0.0,0.0,0.0,0.0,0.0,0.0,0.0,0.0,0.0,0.0,0.0,0.0,0.0,0.0,0.0,0.0,0.0,0.0,0.0,0.0,0.0,0.0,0.0,0.0,0.0,0.0,0.0,0.0,0.0,0.0,0.0,0.0,0.0,0.0,0.0,0.0,0.0,0.0,0.0,0.0,0.0,0.0,0.0,0.0,0.0,0.0,0.0,0.0,0.0,0.0,0.0,0.0,0.0,0.0,0.0,0.0,0.0,0.0,0.0,0.0,0.0,0.0,0.0,0.0,0.0,0.0,0.0,0.0,0.0,0.0,0.0,0.0,0.0,0.0,0.0,0.0,-5.5248,-5.9364,-6.4507,-6.665,-6.5523,-5.8687,-5.3854,0.0,0.0,0.0,0.0,0.0,0.0,0.0,0.0,0.0,0.0,0.0,0.0,0.0,0.0,0.0,0.0,0.0,0.0,0.0,0.0,0.0,0.0,0.0,0.0,0.0,0.0,0.0,0.0,0.0,0.0,0.0,0.0,0.0,0.0,0.0,0.0,0.0,0.0,0.0,0.0,0.0,0.0,0.0,0.0,0.0,0.0,0.0,0.0,-4.2974,0.0,0.0,0.0,0.0,0.0,0.0,0.0,0.0,0.0,0.0,0.0,0.0,0.0,0.0,0.0,0.0,0.0,0.0,0.0,0.0,0.0,0.0,0.0,0.0,0.0,0.0,0.0,0.0,0.0,0.0,0.0,0.0,0.0,0.0,0.0,0.0,0.0,0.0,0.0,0.0,0.0,0.0,0.0,0.0,0.0,0.0,0.0,0.0,0.0,0.0,0.0,0.0,0.0,0.0,0.0,0.0,0.0,0.0,0.0,-5.6071,-6.0356,-6.5386,-6.7589,-6.65,-6.0604,-5.5648,0.0,0.0,0.0,0.0,0.0,0.0,0.0,0.0,0.0,0.0,0.0,0.0,0.0,0.0,0.0,0.0,0.0,0.0,0.0,0.0,0.0,0.0,0.0,0.0,0.0,0.0,0.0,0.0,0.0,0.0,0.0,0.0,0.0,0.0,0.0,0.0,0.0,0.0,0.0,0.0,0.0,0.0,0.0,0.0,0.0,0.0,0.0,0.0,0.0,0.0,0.0,0.0,0.0,0.0,0.0,0.0,0.0,0.0,0.0,0.0,0.0,0.0,0.0,0.0,0.0,0.0,0.0,0.0,0.0,0.0,0.0,0.0,0.0,0.0,0.0,0.0,0.0,0.0,0.0,0.0,0.0,0.0,0.0,0.0,0.0,0.0,0.0,0.0,0.0,0.0,0.0,0.0,0.0,0.0,0.0,0.0,0.0,0.0,0.0,0.0,0.0,0.0,0.0,0.0,0.0,0.0,0.0,-5.0589,-5.6332,-6.101,-6.5762,-6.8114,-6.7926,-6.3063,-5.7452,-5.133,0.0,0.0,0.0,0.0,0.0,0.0,0.0,0.0,0.0,0.0,0.0,0.0,0.0,0.0,0.0,0.0,0.0,0.0,0.0,0.0,0.0,0.0,0.0,0.0,0.0,0.0,0.0,0.0,0.0,0.0,0.0,0.0,0.0,0.0,0.0,0.0,0.0,0.0,-3.9275,-4.2097,0.0,0.0,0.0,0.0,0.0,0.0,0.0,0.0,-4.5013,0.0,0.0,0.0,0.0,0.0,0.0,0.0,0.0,0.0,0.0,0.0,0.0,0.0,0.0,0.0,0.0,0.0,0.0,0.0,0.0,0.0,0.0,0.0,0.0,0.0,0.0,0.0,0.0,0.0,0.0,0.0,0.0,0.0,0.0,0.0,0.0,0.0,0.0,0.0,0.0,0.0,0.0,0.0,0.0,0.0,0.0,0.0,0.0,0.0,0.0,0.0,0.0,0.0,0.0,0.0,0.0,-4.8949,-5.2394,-5.751,-6.4469,-6.7492,-6.8656,-6.7889,-6.2401,-5.7248,-5.2786,0.0,0.0,0.0,0.0,0.0,0.0,0.0,0.0,0.0,0.0,0.0,0.0,0.0,0.0,0.0,0.0,0.0,0.0,0.0,0.0,0.0,0.0,0.0,0.0,0.0,0.0,0.0,0.0,0.0,0.0,0.0,0.0,0.0,0.0,0.0,0.0,0.0,0.0,0.0,-4.6684,-4.7981,0.0,0.0,0.0,0.0,0.0,0.0,0.0,0.0,-4.6966,0.0,0.0,0.0,0.0,0.0,0.0,0.0,0.0,0.0,0.0,0.0,0.0,0.0,0.0,0.0,0.0,0.0,0.0,0.0,0.0,0.0,0.0,0.0,0.0,0.0,0.0,0.0,0.0,0.0,0.0,0.0,0.0,0.0,0.0,0.0,0.0,0.0,0.0,0.0,0.0,0.0,0.0,0.0,0.0,0.0,0.0,0.0,0.0,0.0,0.0,0.0,0.0,0.0,0.0,0.0,-4.8322,-5.3474,-5.8914,-6.4697,-6.6875,-6.7776,-6.7288,-6.1653,-5.6611,0.0,0.0,0.0,0.0,0.0,0.0,0.0,0.0,0.0,0.0,0.0,0.0,0.0,0.0,0.0,0.0,0.0,0.0,0.0,0.0,0.0,0.0,0.0,0.0,0.0,0.0,0.0,0.0,0.0,0.0,0.0,0.0,0.0,0.0,0.0,0.0,0.0,0.0,0.0,0.0,-4.8832,-5.0345,-5.2162,0.0,0.0,0.0,0.0,0.0,0.0,-4.8844,-4.7859,0.0,0.0,0.0,0.0,0.0,0.0,0.0,0.0,0.0,0.0,0.0,0.0,0.0,0.0,0.0,0.0,0.0,0.0,0.0,0.0,0.0,0.0,0.0,0.0,0.0,0.0,0.0,0.0,0.0,0.0,0.0,0.0,0.0,0.0,0.0,0.0,0.0,0.0,0.0,0.0,0.0,0.0,0.0,0.0,0.0,0.0,0.0,0.0,0.0,0.0,0.0,0.0,0.0,0.0,0.0,-4.7046,-5.3863,-5.9646,-6.4096,-6.5957,-6.6708,-6.6445,-6.066,-5.5656,0.0,0.0,0.0,0.0,0.0,0.0,0.0,0.0,0.0,0.0,0.0,0.0,0.0,0.0,0.0,0.0,0.0,0.0,0.0,0.0,0.0,0.0,0.0,0.0,0.0,0.0,0.0,0.0,0.0,0.0,0.0,0.0,0.0,0.0,0.0,0.0,0.0,0.0,0.0,0.0,0.0,-5.264,-5.4298,-5.3122,0.0,0.0,0.0,0.0,-5.0474,-5.1271,0.0,0.0,0.0,0.0,0.0,0.0,0.0,0.0,0.0,0.0,0.0,0.0,0.0,0.0,0.0,0.0,0.0,0.0,0.0,0.0,0.0,0.0,0.0,0.0,0.0,0.0,0.0,0.0,0.0,0.0,0.0,0.0,0.0,0.0,0.0,0.0,0.0,0.0,0.0,0.0,0.0,0.0,0.0,0.0,0.0,0.0,0.0,0.0,0.0,0.0,0.0,0.0,0.0,0.0,0.0,0.0,-4.7586,-5.302,-5.854,-6.4021,-6.5919,-6.6445,-6.5598,-5.9024,-5.4279,0.0,0.0,0.0,0.0,0.0,0.0,0.0,0.0,0.0,0.0,0.0,0.0,0.0,0.0,0.0,0.0,0.0,0.0,0.0,0.0,0.0,0.0,0.0,0.0,0.0,0.0,0.0,0.0,0.0,0.0,0.0,0.0,0.0,0.0,0.0,0.0,0.0,0.0,0.0,0.0,0.0,-5.5002,-5.3895,-5.4261,-5.4043,0.0,0.0,-5.584,-5.6533,-5.9887,0.0,0.0,0.0,0.0,0.0,0.0,0.0,0.0,0.0,0.0,0.0,0.0,0.0,0.0,0.0,0.0,0.0,0.0,0.0,0.0,0.0,0.0,0.0,0.0,0.0,0.0,0.0,0.0,0.0,0.0,0.0,0.0,0.0,0.0,0.0,0.0,0.0,0.0,0.0,0.0,0.0,0.0,0.0,0.0,0.0,0.0,0.0,0.0,0.0,0.0,0.0,0.0,0.0,0.0,0.0,-4.1958,-4.7143,-5.3616,-5.8878,-6.2707,-6.3591,-6.4021,-6.4134,-5.7005,-5.228,0.0,0.0,0.0,0.0,0.0,0.0,0.0,0.0,0.0,0.0,0.0,0.0,0.0,0.0,0.0,0.0,0.0,0.0,0.0,0.0,0.0,0.0,0.0,0.0,0.0,0.0,0.0,0.0,0.0,0.0,0.0,0.0,0.0,0.0,0.0,0.0,0.0,0.0,0.0,0.0,0.0,0.0,-5.5156,-5.5926,0.0,0.0,0.0,-5.7518,-5.6404,0.0,0.0,0.0,0.0,0.0,0.0,0.0,0.0,0.0,0.0,0.0,0.0,0.0,0.0,0.0,0.0,0.0,0.0,0.0,0.0,0.0,0.0,0.0,0.0,0.0,0.0,0.0,0.0,0.0,0.0,0.0,0.0,0.0,0.0,0.0,0.0,0.0,0.0,0.0,0.0,0.0,0.0,0.0,0.0,0.0,0.0,0.0,0.0,0.0,0.0,0.0,0.0,0.0,0.0,0.0,0.0,0.0,-4.6892,-5.4271,-5.9215,-6.143,-6.1693,-6.2031,-6.2332,-5.605,0.0,0.0,0.0,0.0,0.0,0.0,0.0,0.0,0.0,0.0,0.0,0.0,0.0,0.0,0.0,0.0,0.0,0.0,0.0,0.0,0.0,0.0,0.0,0.0,0.0,0.0,0.0,-3.3295,0.0,0.0,0.0,0.0,0.0,0.0,0.0,0.0,0.0,0.0,0.0,0.0,0.0,0.0,-5.6796,-5.6835,-5.8074,-5.8934,0.0,0.0,-5.9435,-5.7935,-6.2123,-6.2838,0.0,0.0,0.0,0.0,0.0,0.0,0.0,0.0,0.0,0.0,0.0,0.0,0.0,0.0,0.0,0.0,0.0,0.0,0.0,0.0,0.0,0.0,0.0,0.0,0.0,0.0,0.0,0.0,0.0,0.0,0.0,0.0,0.0,0.0,0.0,0.0,0.0,0.0,0.0,0.0,0.0,0.0,0.0,0.0,0.0,0.0,0.0,0.0,0.0,0.0,0.0,0.0,0.0,0.0,-4.3426,-4.7593,-5.448,-5.8934,-6.0642,-6.1393,-6.1468,-6.0736,-5.7117,-5.2911,0.0,0.0,0.0,0.0,0.0,0.0,0.0,0.0,0.0,0.0,0.0,0.0,0.0,0.0,0.0,0.0,0.0,0.0,0.0,0.0,0.0,0.0,0.0,0.0,0.0,0.0,0.0,0.0,0.0,0.0,0.0,0.0,0.0,0.0,0.0,0.0,0.0,0.0,0.0,0.0,0.0,-5.8514,-5.8543,-6.0839,-6.3089,0.0,-6.3601,-6.3128,-6.4548,-6.9097,-6.8904,-5.7979,0.0,0.0,0.0,0.0,0.0,0.0,0.0,0.0,0.0,0.0,0.0,0.0,0.0,0.0,0.0,0.0,0.0,0.0,0.0,0.0,0.0,0.0,0.0,0.0,0.0,0.0,0.0,0.0,0.0,0.0,0.0,0.0,0.0,0.0,0.0,0.0,0.0,0.0,0.0,0.0,0.0,0.0,0.0,0.0,0.0,0.0,0.0,0.0,0.0,0.0,0.0,0.0,0.0,-4.3384,-4.749,-5.3995,-5.8164,-5.9741,-6.0116,-5.9891,-5.9084,-5.6705,-5.2853,0.0,0.0,0.0,0.0,0.0,0.0,0.0,0.0,0.0,0.0,0.0,0.0,0.0,0.0,0.0,0.0,0.0,0.0,0.0,0.0,0.0,0.0,0.0,0.0,0.0,0.0,0.0,0.0,-4.3049,-4.3898,-4.2333,0.0,0.0,0.0,0.0,0.0,0.0,0.0,0.0,0.0,0.0,-5.9252,-6.0402,-6.2347,0.0,0.0,-6.4631,-6.4353,-6.3958,-6.6514,-6.5814,-5.7779,-5.6128,0.0,0.0,0.0,0.0,0.0,0.0,0.0,0.0,0.0,0.0,0.0,0.0,0.0,0.0,0.0,0.0,0.0,0.0,0.0,0.0,0.0,0.0,0.0,0.0,0.0,0.0,0.0,0.0,0.0,0.0,0.0,0.0,0.0,0.0,0.0,0.0,0.0,0.0,0.0,0.0,0.0,0.0,0.0,0.0,0.0,0.0,0.0,0.0,0.0,0.0,0.0,0.0,-4.3705,-4.7789,-5.3808,-5.7676,-5.9253,-5.929,-5.9027,-5.8446,-5.7004,-5.3729,0.0,0.0,0.0,0.0,0.0,0.0,0.0,0.0,0.0,0.0,0.0,0.0,0.0,0.0,0.0,0.0,0.0,0.0,0.0,0.0,0.0,0.0,0.0,0.0,0.0,0.0,0.0,0.0,-4.4862,-4.5017,-4.2942,0.0,0.0,0.0,0.0,0.0,0.0,0.0,0.0,0.0,0.0,-6.0116,-6.14,-6.2861,-6.3923,-6.4237,-6.4076,-6.3601,-6.2659,-6.3808,-6.2991,-5.774,0.0,0.0,0.0,0.0,0.0,0.0,0.0,0.0,0.0,0.0,0.0,0.0,0.0,0.0,0.0,0.0,0.0,0.0,0.0,0.0,0.0,0.0,0.0,0.0,0.0,0.0,0.0,-3.1119,0.0,0.0,-3.1139,0.0,0.0,0.0,0.0,0.0,0.0,0.0,0.0,0.0,0.0,0.0,0.0,0.0,0.0,0.0,0.0,0.0,0.0,0.0,0.0,0.0,0.0,-4.4535,-4.8748,-5.4125,-5.7713,-5.9253,-5.929,-5.929,-5.9215,-5.8446,-5.6026,-5.1682,0.0,0.0,0.0,0.0,0.0,0.0,0.0,0.0,0.0,0.0,0.0,0.0,0.0,0.0,0.0,0.0,0.0,0.0,0.0,0.0,0.0,0.0,0.0,0.0,0.0,0.0,-3.8676,-4.1216,-4.2865,0.0,0.0,0.0,0.0,0.0,0.0,0.0,0.0,0.0,-5.1687,-5.7439,-6.1378,-6.1309,-6.2258,-6.3269,-6.4115,-6.2106,-6.0737,-6.1551,-6.2384,-6.1846,0.0,0.0,0.0,0.0,0.0,0.0,0.0,0.0,0.0,0.0,0.0,0.0,0.0,0.0,0.0,0.0,0.0,0.0,0.0,0.0,0.0,0.0,0.0,0.0,0.0,0.0,0.0,-3.665,-3.5734,0.0,0.0,0.0,0.0,0.0,0.0,0.0,0.0,0.0,0.0,0.0,-4.6239,-4.7342,0.0,0.0,0.0,0.0,0.0,0.0,0.0,0.0,0.0,0.0,0.0,0.0,-4.5073,-4.8732,-5.4631,-5.8239,-5.9253,-5.929,-5.9065,-5.8483,-5.8239,-5.5876,-5.1136,0.0,0.0,0.0,0.0,0.0,0.0,0.0,0.0,0.0,0.0,0.0,0.0,0.0,0.0,0.0,0.0,0.0,0.0,0.0,0.0,0.0,0.0,0.0,0.0,0.0,-4.1123,0.0,0.0,0.0,0.0,0.0,0.0,0.0,0.0,0.0,0.0,-4.8499,-5.1842,-5.4445,-5.7631,-6.0131,-6.1248,-6.2272,-6.3391,0.0,0.0,0.0,0.0,0.0,0.0,0.0,0.0,0.0,0.0,0.0,0.0,0.0,-6.0856,-6.011,-5.4114,-5.3936,-5.4744,-5.4708,0.0,0.0,0.0,0.0,0.0,0.0,0.0,0.0,0.0,0.0,0.0,0.0,0.0,0.0,-4.1032,-3.9374,-4.0153,0.0,0.0,0.0,0.0,0.0,0.0,0.0,0.0,-4.7997,-5.0136,-5.0592,-5.163,-5.1454,-5.0154,-4.8131,-4.4354,0.0,0.0,0.0,0.0,0.0,0.0,0.0,0.0,-4.5776,-4.9122,-5.5024,-5.8502,-5.9253,-5.929,-5.9065,-5.8539,-5.8276,-5.6569,-5.3307,-4.9853,-4.6887,0.0,0.0,0.0,0.0,0.0,0.0,0.0,0.0,0.0,0.0,0.0,0.0,0.0,0.0,0.0,0.0,0.0,0.0,0.0,0.0,0.0,0.0,0.0,-4.2711,0.0,0.0,0.0,0.0,0.0,0.0,0.0,0.0,0.0,-4.7747,-5.112,-5.4304,-5.633,-5.8437,-5.9863,-6.0105,0.0,0.0,0.0,0.0,0.0,0.0,0.0,-5.8868,-5.8035,-5.8874,-5.9831,-6.0354,-6.3019,-6.4901,-6.4322,0.0,0.0,-5.9529,-5.9267,-5.9983,-5.9945,-6.0879,-6.1465,-6.0927,-6.1987,-6.32,0.0,0.0,0.0,0.0,-3.8241,0.0,0.0,0.0,-4.5494,-4.4389,0.0,-4.4613,0.0,0.0,0.0,0.0,-4.0111,-4.4423,0.0,0.0,-5.5443,-5.7263,-5.4524,-5.4534,-5.4204,-5.3324,-5.0567,-4.8392,-4.6801,-4.5779,0.0,0.0,0.0,0.0,0.0,0.0,-4.6681,-5.0028,-5.5379,-5.8539,-5.9253,-5.929,-5.9253,-5.9178,-5.8427,-5.7938,-5.777,-5.3962,-5.1828,-5.1607,-4.4026,0.0,0.0,0.0,0.0,0.0,0.0,0.0,0.0,0.0,0.0,0.0,0.0,0.0,0.0,0.0,0.0,0.0,0.0,0.0,0.0,-4.3983,0.0,0.0,0.0,0.0,0.0,0.0,0.0,0.0,0.0,-5.1267,-4.9807,-5.3351,-5.6452,-5.7307,0.0,0.0,0.0,0.0,-5.9669,-5.8097,-5.8526,-5.8895,-5.816,-6.0048,-6.1927,-6.2737,0.0,0.0,-6.5703,-6.6402,-6.6514,-6.4843,-6.7304,-6.8945,-6.7145,-6.5462,-6.4525,-6.4489,-6.4566,-6.4485,-6.4605,-6.6404,-6.8044,-4.6636,0.0,0.0,0.0,0.0,-4.3851,-4.6781,-5.109,-5.1941,-5.1286,-4.952,-5.0285,0.0,0.0,0.0,0.0,0.0,0.0,-4.982,-5.2352,-5.4618,-5.635,-5.7649,-5.7118,-5.6761,-5.6445,-5.5068,-5.4154,-5.369,-5.3273,-4.8116,-3.8667,0.0,0.0,0.0,0.0,-4.925,-5.2809,-5.6855,-5.9065,-5.929,-5.929,-5.8727,-5.7638,-5.6774,-5.6043,-5.5498,-5.5072,-5.3638,-5.1024,-4.83,0.0,0.0,0.0,0.0,0.0,0.0,0.0,0.0,0.0,0.0,0.0,0.0,0.0,0.0,0.0,0.0,0.0,0.0,0.0,-4.3011,-4.6135,-4.6621,0.0,0.0,0.0,0.0,0.0,0.0,0.0,0.0,0.0,-5.3877,-5.5509,-5.7091,0.0,0.0,-5.7533,-5.7528,-5.8553,-5.975,-6.1101,-6.1545,0.0,-6.2349,-6.2501,-6.2655,-6.2894,-6.5379,-6.7576,-6.8202,-6.953,-7.0344,-6.9794,-7.0572,-7.1081,-7.0654,-7.0151,-6.9723,-6.9758,-6.976,-6.976,-6.983,-7.0417,-7.1201,-5.3077,-4.9428,-4.5963,-4.5771,-4.7832,-4.8689,-5.1787,-5.6261,-5.6842,-5.6086,-5.4509,-5.5283,-5.2462,-4.7038,-4.6756,0.0,0.0,0.0,-5.3067,-5.5903,-5.6365,-5.7122,-5.8,-5.7895,-5.7474,-5.6877,-5.6385,-5.6174,-5.6174,-5.5164,-5.0738,-4.3253,0.0,-4.3319,-4.3852,-4.8015,-5.151,-5.4354,-5.7604,-5.929,-5.929,-5.899,-5.8351,-5.7413,-5.6549,-5.5873,-5.5423,-5.6321,-5.5718,-5.3195,-5.1487,-4.8135,0.0,0.0,0.0,0.0,0.0,0.0,0.0,0.0,0.0,0.0,0.0,-3.632,-3.3523,0.0,0.0,0.0,-4.4196,-4.5821,-4.702,-4.8291,0.0,0.0,0.0,0.0,0.0,0.0,0.0,-4.9862,-5.3231,-5.5805,-5.6582,-5.7194,-5.7941,-5.8978,-5.8277,-5.7884,-5.8509,0.0,-6.0662,-6.2528,-6.3149,-6.3603,-6.4161,-6.4394,-6.4589,-6.4948,-6.6988,-6.8749,-6.9297,-7.0308,-7.108,-7.1387,-7.1505,-7.1581,-7.1928,-7.1975,-7.198,-7.1975,-7.1977,-7.1975,-7.2,-7.2549,-7.333,-5.8714,-5.7863,-5.1629,-5.0288,-5.2464,-5.3871,-5.6591,-6.0078,-6.0183,-5.9152,-5.761,-5.9356,-5.6547,-5.0543,-4.9815,0.0,-5.4356,-5.4992,-5.6641,-5.9124,-5.9721,-5.8878,-5.6877,-5.7474,-5.7017,-5.5613,-5.5613,-5.5578,-5.5437,-5.3479,-5.1668,-5.0232,-5.1259,-5.0602,-4.85,-5.112,-5.3442,-5.5,-5.766,-5.9121,-5.929,-5.8502,-5.807,-5.7995,-5.7225,-5.6737,-5.6699,-5.7413,-5.745,-5.6662,-5.372,-5.1174,-4.9202,0.0,0.0,0.0,0.0,0.0,0.0,0.0,0.0,0.0,0.0,0.0,0.0,0.0,0.0,-4.5153,-4.9033,0.0,-5.3398,-5.0616,0.0,0.0,0.0,-4.7139,-4.9697,-5.1393,-5.2685,-5.3445,0.0,0.0,-5.8226,-5.8433,-5.8916,-6.0067,-6.0161,-6.0182,-6.0223,-6.1015,-6.1974,-6.2714,-6.3745,-6.4384,-6.4468,-6.5609,-6.6791,-6.7578,-6.8828,-6.9257,-6.9295,-6.9528,-6.9877,-7.0611,-7.0767,-7.1078,-7.1852,-7.1975,-7.198,-7.198,-7.198,-7.1978,-7.2045,-7.3098,-7.4111,-6.0643,-5.9464,-5.7825,-5.7288,-5.7494,-5.8015,-5.9047,-6.0355,-6.0911,-6.0877,-6.0462,-6.0391,-5.9306,-5.7611,-5.7436,-5.7814,-5.8608,-5.8787,-5.9204,-5.9791,-5.944,-5.8983,-5.8421,-5.8,-5.7298,-5.6385,-5.6315,-5.6069,-5.5507,-5.4975,-5.4197,-5.3207,-5.3466,-5.1909,-4.8799,-5.0867,-5.3316,-5.5971,-5.6664,-5.7753,-5.9197,-5.8502,-5.7826,-5.7187,-5.6361,-5.561,-5.5047,-5.5197,-5.5197,-5.4972,-5.4204,-5.2177,-4.8611,-4.3591,0.0,0.0,0.0,0.0,0.0,0.0,0.0,0.0,0.0,-3.8641,-3.4741,0.0,-4.2705,0.0,-5.1298,-5.5576,-5.5382,-5.4601,0.0,0.0,-5.149,-5.1481,-5.3956,-5.5249,-5.5991,-5.6092,-5.7839,-5.9153,-5.9346,-5.9425,-5.9862,-6.0895,-5.9918,-5.936,-6.0145,-6.1047,-6.1928,-6.2902,-6.4795,-6.6014,-6.5469,-6.6131,-6.6953,-6.7187,-6.7929,-6.8474,-6.843,-6.9557,-7.0485,-7.0711,-7.1262,-7.1735,-7.1967,-7.1975,-7.198,-7.198,-7.198,-7.1977,-7.1997,-7.239,-7.2822,-6.2354,-6.0986,-6.0953,-6.079,-6.0403,-5.9874,-6.0305,-6.1362,-6.1184,-6.1427,-6.1986,-6.1224,-6.0769,-6.0633,-6.0633,-6.0423,-6.0107,-6.0072,-5.9931,-5.9615,-5.9545,-5.9124,-5.8492,-5.8386,-5.7719,-5.6631,-5.6947,-5.6561,-5.5578,-5.5823,-5.5572,-5.4792,-5.5027,-5.3795,-5.1297,-5.1945,-5.3203,-5.4896,-5.5837,-5.7246,-5.9159,-5.8164,-5.6964,-5.5655,-5.4118,-5.2698,-5.1469,-5.1112,-5.0738,-5.0364,-5.0413,-4.9402,-4.6996,-4.3367,-4.0459,0.0,0.0,0.0,0.0,0.0,0.0,0.0,0.0,0.0,0.0,0.0,-4.5627,-4.6462,-5.3012,-5.6551,-5.4939,-5.5104,-5.5403,-5.5538,-5.5152,-5.5702,-5.7882,-5.8588,-5.8896,-5.8847,-5.9688,-6.0335,-6.0307,-6.0403,-6.0695,-6.1315,-6.0577,-6.0347,-6.1295,-6.1938,-6.2647,-6.394,-6.535,-6.6328,-6.6133,-6.6562,-6.6914,-6.6914,-6.7304,-6.7614,-6.7611,-6.8621,-6.9667,-7.0093,-7.0837,-7.1581,-7.1891,-7.1975,-7.1978,-7.201,-7.201,-7.201,-7.2,-7.2314,-7.2744,-6.3614,-6.2354,-6.2255,-6.2049,-6.1776,-6.046,-6.0913,-6.253,-6.1405,-6.1551,-6.268,-6.2022,-6.1638,-6.1441,-6.1441,-6.102,-6.0247,-6.0247,-5.9861,-5.9229,-5.9791,-5.9369,-5.8141,-5.8808,-5.8351,-5.6982,-5.7649,-5.7158,-5.5683,-5.628,-5.6139,-5.5256,-5.5702,-5.5268,-5.4004,-5.3267,-5.2993,-5.3198,-5.5292,-5.719,-5.8878,-5.7246,-5.545,-5.3623,-5.1456,-4.9388,-4.7471,-4.6892,-4.6201,-4.5382,-4.5482,-4.5721,-4.586,-4.2938,-4.1647,0.0,-3.9568,0.0,0.0,0.0,0.0,0.0,0.0,0.0,0.0,-4.8451,-4.913,-5.0141,-5.4468,-5.6416,-5.4449,-5.492,-5.6241,-5.8442,-5.8722,-5.937,-6.0877,-6.1118,-6.1118,-6.1118,-6.1118,-6.1079,-6.1086,-6.1221,-6.1318,-6.1578,-6.153,-6.1772,-6.2734,-6.293,-6.3476,-6.5234,-6.5547,-6.5937,-6.664,-6.6875,-6.6914,-6.6914,-6.7109,-6.7068,-6.7144,-6.7961,-6.8776,-6.9516,-7.0413,-7.1153,-7.1889,-7.201,-7.201,-7.1995,-7.1997,-7.2002,-7.2041,-7.251,-7.3095,-6.3868,-6.3007,-6.2453,-6.1832,-6.1219,-6.0953,-6.1334,-6.2154,-6.2366,-6.2547,-6.2714,-6.3066,-6.2815,-6.2213,-6.2178,-6.1757,-6.109,-6.109,-6.0633,-5.9896,-6.0036,-5.9966,-5.9685,-5.9826,-5.944,-5.8597,-5.8702,-5.7965,-5.642,-5.6526,-5.5637,-5.3852,-5.3894,-5.353,-5.2761,0.0,0.0,0.0,-5.5411,-5.6725,-5.7005,-5.4708,-5.2603,-5.0984,-4.9884,0.0,-4.594,-4.6222,-4.6164,-4.5382,-4.5956,0.0,0.0,0.0,0.0,0.0,0.0,0.0,0.0,0.0,0.0,0.0,-4.8568,-4.8077,-4.9047,-5.0431,-5.223,-5.4532,-5.6252,-5.7883,-5.9495,-5.9756,-6.0036,-6.051,-6.0587,-6.0751,-6.1079,-6.1118,-6.1118,-6.1118,-6.1118,-6.1143,-6.1237,-6.1296,-6.1639,-6.2347,-6.2027,-6.2012,-6.2851,-6.3008,-6.3398,-6.4375,-6.5234,-6.5937,-6.6797,-6.6914,-6.6914,-6.6953,-6.7538,-6.7886,-6.8,-6.9165,-7.013,-7.0436,-7.1175,-7.1761,-7.1993,-7.1995,-7.1995,-7.199,-7.199,-7.1993,-7.1993,-7.2149,-7.2263,-6.3978,-6.3206,-6.252,-6.1748,0.0,-6.1119,-6.1252,-6.1588,-6.1911,-6.2149,-6.2388,-6.2981,-6.2995,-6.2543,-6.2885,-6.2354,-6.13,-6.13,-6.0844,-6.0107,-6.0072,-6.0072,-6.0072,-6.0072,-5.9721,-5.9053,-5.9369,-5.8737,-5.7263,-5.7193,-5.6415,-5.4992,-5.464,-5.4562,-5.4725,-5.5294,-5.5296,-5.4765,-5.5879,-5.6911,-5.7829,-5.622,-5.4315,-5.221,-5.0959,0.0,0.0,0.0,0.0,0.0,0.0,0.0,0.0,-4.7537,0.0,-5.0109,-4.9225,-4.9487,-5.1387,-5.161,-5.2787,-5.5509,-5.5403,-5.4457,-5.2789,-5.5016,-5.7061,-5.8383,-5.8906,-5.964,-6.0915,-6.1118,-6.1118,-6.1118,-6.1118,-6.1118,-6.1118,-6.1118,-6.1118,-6.1118,-6.1118,-6.1152,-6.1289,-6.131,-6.154,-6.2131,-6.1879,-6.1973,-6.2773,-6.3008,-6.3437,-6.4726,-6.5703,-6.6367,-6.6758,-6.6914,-6.707,-6.7461,-6.7888,-6.8274,-6.8702,-6.9822,-7.0707,-7.0777,-7.1402,-7.1987,-7.1987,-7.1987,-7.1987,-7.1987,-7.1987,-7.1987,-7.1987,-7.1987,-7.1987,-6.368,-6.305,-6.2354,-6.1649,-6.1119,-6.1119,-6.1119,-6.1086,-6.1244,0.0,0.0,-6.2668,-6.2927,-6.2888,-6.3275,-6.278,-6.1722,-6.1406,-6.0949,-6.0317,-6.0177,-6.0072,-6.0072,-6.0072,-5.9791,-5.9264,-5.9791,-5.9369,-5.807,-5.8,-5.7544,-5.6631,-5.5999,-5.6177,-5.7155,-5.8397,-5.8293,-5.6889,-5.6515,-5.7116,-5.8747,-5.7715,-5.6013,-5.368,-5.2203,-5.0267,-4.7822,-4.6594,-4.5903,-4.5717,-4.5295,-4.587,-4.759,-4.86,-5.0022,-5.2016,-5.2998,-5.4618,-5.7285,-5.7484,-5.8505,-6.0954,-6.1118,-5.991,-5.7098,-5.9475,-6.1118,-6.1118,-6.1118,-6.1079,-6.1118,-6.1118,-6.1118,-6.1118,-6.1118,-6.1118,-6.1118,-6.1118,-6.1118,-6.1118,-6.1118,-6.1169,-6.1285,-6.1311,-6.1479,-6.1788,-6.1932,-6.2251,-6.3203,-6.3594,-6.4062,-6.5312,-6.6211,-6.6875,-6.6914,-6.6914,-6.7226,-6.7969,-6.8238,-6.8622,-6.9477,-7.0362,-7.0855,-7.1011,-7.1558,-7.1909,-7.1987,-7.1987,-7.1987,-7.1987,-7.1987,-7.1987,-7.1987,-7.1987,-7.1987,-6.2487,-6.2288,-6.155,-6.1185,-6.1119,-6.1119,-6.1119,-6.1127,-6.1669,-6.2234,-6.2783,-6.2859,-6.3168,-6.3615,-6.3063,-6.2962,-6.3161,-6.1897,-6.123,-6.109,-6.0423,-6.0072,-6.0072,-6.0072,-6.0036,-5.9966,-6.0036,-5.965,-5.8913,-5.8843,-5.8105,-5.6736,-5.649,-5.6751,-5.7425,-5.8566,-5.9084,-5.884,-5.7342,-5.6687,-5.6968,-5.4615,-5.2883,-5.184,-5.1001,-4.9569,-4.7893,-4.8265,-4.8153,-4.752,-4.8021,-4.945,-5.1864,-5.3043,-5.489,-5.7614,-5.8847,-5.9792,-6.0384,-6.049,-6.0655,-6.1031,-6.1118,-6.0886,-6.0451,-6.0809,-6.1118,-6.1118,-6.1118,-6.1118,-6.1118,-6.1118,-6.1118,-6.1118,-6.1118,-6.1118,-6.1118,-6.1118,-6.1118,-6.1118,-6.1118,-6.1173,-6.1328,-6.1378,-6.1725,-6.2528,-6.2731,-6.3359,-6.457,-6.5234,-6.5312,-6.5625,-6.6328,-6.6836,-6.6914,-6.6914,-6.7304,-6.8045,-6.8744,-6.9438,-7.037,-7.1178,-7.1675,-7.1792,-7.1909,-7.1987,-7.1987,-7.1987,-7.1987,-7.1987,-7.1987,-7.1987,-7.1987,-7.1987,-7.1987,-6.2586,-6.2155,-6.1417,-6.1119,-6.1119,-6.1119,-6.1119,-6.1119,-6.1417,-6.1837,-6.2397,-6.2745,-6.3237,-6.3719,-6.338,-6.3099,-6.288,-6.1792,-6.1055,-6.0633,-6.0247,-6.0072,-6.0072,-6.0072,-6.0072,-6.0072,-6.0072,-5.9721,-5.9053,-5.8597,-5.7754,-5.6691,-5.678,-5.7045,-5.7461,-5.8545,-5.914,-5.929,-5.8503,-5.8091,-5.8053,-5.6855,-5.5883,-5.506,-5.4649,-5.3956,-5.2776,-5.3075,-5.3112,-5.2776,-5.3075,-5.4028,-5.5635,-5.6206,-5.7397,-5.9307,-6.0317,-6.0864,-6.0888,-6.1012,-6.1118,-6.1118,-6.1118,-6.1118,-6.1118,-6.1118,-6.1118,-6.1118,-6.1118,-6.1118,-6.1118,-6.1118,-6.1118,-6.1118,-6.1118,-6.1118,-6.1118,-6.1118,-6.1118,-6.1118,-6.1118,-6.1148,-6.1337,-6.1378,-6.1771,-6.2755,-6.3318,-6.4062,-6.4844,-6.5312,-6.5781,-6.6211,-6.664,-6.6836,-6.6914,-6.6914,-6.7421,-6.863,-6.9131,-6.9942,-7.1069,-7.18,-7.1951,-7.1987,-7.1987,-7.1987,-7.1987,-7.1987,-7.1987,-7.1987,-7.1987,-7.1987,-7.1987,-7.1993,-7.1995,-6.2477,-6.1881,-6.1351,-6.1119,-6.1119,-6.1119,-6.1119,-6.1119,-6.1119,-6.1424,-6.2003,-6.2339,-6.2771,-6.3297,-6.2997,-6.2815,-6.2529,-6.1511,-6.0809,-6.0388,-6.0177,-6.0072,-6.0072,-6.0072,-6.0072,-6.0072,-6.0072,-5.9791,-5.9229,-5.8632,-5.7825,-5.6997,-5.7083,-5.7261,-5.7388,-5.8338,-5.9004,-5.9272,-5.929,-5.929,-5.929,-5.929,-5.899,-5.8427,-5.8351,-5.8089,-5.7488,-5.745,-5.745,-5.745,-5.745,-5.7713,-5.8296,-5.8371,-5.8852,-5.995,-6.0665,-6.1081,-6.126,-6.1257,-6.1331,-6.1389,-6.1195,-6.1118,-6.1118,-6.1118,-6.1118,-6.1118,-6.1118,-6.1118,-6.1118,-6.1118,-6.1118,-6.1118,-6.1118,-6.1118,-6.1118,-6.1118,-6.1118,-6.1118,-6.1118,-6.1152,-6.1289,-6.1345,-6.1927,-6.3099,-6.3863,-6.4375,-6.4844,-6.5508,-6.6172,-6.664,-6.6914,-6.7031,-6.7109,-6.7225,-6.7926,-6.9409,-6.9713,-7.0405,-7.1495,-7.1953,-7.199,-7.1987,-7.1987,-7.1987,-7.1987,-7.1987,-7.1987,-7.1987,-7.199,-7.2073,-7.2312,-7.2121,-7.2008,-6.1285,-6.1218,-6.1119,-6.1119,-6.1119,-6.1119,-6.1119,-6.1119,-6.1119,-6.1424,-6.1822,-6.1329,-6.1414,-6.1813,-6.1153,-6.1777,-6.3161,-6.1195,-6.0528,-6.102,-6.0423,-6.0072,-6.0072,-6.0072,-6.0072,-6.0072,-6.0072,-6.0036,-5.9861,-5.9791,-5.9089,-5.7816,-5.7484,-5.7405,-5.751,-5.7994,-5.8628,-5.9272,-5.929,-5.929,-5.929,-5.929,-5.9253,-5.9215,-5.9178,-5.9178,-5.899,-5.9065,-5.9065,-5.9102,-5.9027,-5.9102,-5.9178,-5.9178,-5.968,-6.0766,-6.0951,-6.1538,-6.2746,-6.2281,-6.1935,-6.2211,-6.1543,-6.1118,-6.1118,-6.1118,-6.1118,-6.1118,-6.1118,-6.1118,-6.1118,-6.1118,-6.1118,-6.1118,-6.1118,-6.1118,-6.1118,-6.1118,-6.1118,-6.1118,-6.1118,-6.1152,-6.1352,-6.1562,-6.229,-6.3938,-6.4412,-6.5,-6.6094,-6.6484,-6.6719,-6.6875,-6.6914,-6.7265,-6.7772,-6.8083,-6.8744,-7.0139,-7.0562,-7.0987,-7.1644,-7.199,-7.1987,-7.1987,-7.1987,-7.1987,-7.1987,-7.1987,-7.1987,-7.2032,-7.2078,-7.2282,-7.2836,-7.2603,-7.2176,-6.1483,-6.1119,-6.1119,-6.1119,-6.1119,-6.1119,-6.1119,-6.1119,-6.1119,-6.0787,-6.0205,-6.0114,-6.0947,-6.2251,-6.1466,-6.15,-6.2108,-6.0739,-6.0247,-6.0563,-6.0247,-6.0072,-6.0072,-6.0072,-6.0072,-6.0072,-6.0072,-5.9861,-5.944,-5.8983,-5.8386,-5.7886,-5.7994,-5.8116,-5.8154,-5.864,-5.9048,-5.9272,-5.929,-5.929,-5.929,-5.929,-5.929,-5.929,-5.929,-5.929,-5.929,-5.929,-5.929,-5.929,-5.929,-5.929,-5.929,-5.9778,-6.0285,-6.0751,-6.1417,-6.2319,-6.357,-6.3054,-6.2567,-6.2414,-6.2085,-6.1698,-6.1157,-6.1118,-6.1118,-6.1118,-6.1118,-6.1118,-6.1118,-6.1118,-6.1118,-6.1118,-6.1118,-6.1118,-6.1118,-6.1118,-6.1118,-6.1118,-6.1118,-6.1339,-6.1978,-6.2934,-6.3896,-6.4887,-6.5298,-6.6008,-6.6797,-6.6914,-6.7148,-6.7539,-6.7695,-6.7773,-6.8201,-6.8667,-6.9403,-7.0329,-7.0711,-7.1016,-7.1756,-7.1987,-7.1987,-7.1987,-7.199,-7.199,-7.1987,-7.1995,-7.2,-7.2119,-7.2555,-7.2915,-7.3236,-7.3041,-7.2809,-6.1583,-6.1152,-6.1119,-6.1218,-6.1384,-6.1185,-6.1119,-6.1119,-6.1119,-6.049,-5.9603,-5.9904,-6.0935,-6.2113,-6.1362,-6.1047,-6.1162,-6.0458,-6.0072,-6.0072,-6.0072,-6.0072,-6.0072,-6.0072,-6.0072,-6.0072,-6.0072,-5.9826,-5.9299,-5.8737,-5.8316,-5.8202,-5.8526,-5.8693,-5.878,-5.9077,-5.9264,-5.9475,-5.9384,-5.929,-5.929,-5.929,-5.929,-5.929,-5.929,-5.929,-5.929,-5.929,-5.929,-5.929,-5.929,-5.9403,-5.9666,-6.0266,-6.0792,-6.1337,-6.2258,-6.331,-6.426,-6.3765,-6.3344,-6.309,-6.2743,-6.2162,-6.1582,-6.1234,-6.1118,-6.1118,-6.1118,-6.1118,-6.1118,-6.1118,-6.1118,-6.1118,-6.1118,-6.1118,-6.1118,-6.1118,-6.1118,-6.1118,-6.1118,-6.1455,-6.2439,-6.3658,-6.472,-6.5289,-6.59,-6.654,-6.6875,-6.7109,-6.7539,-6.8125,-6.8555,-6.8906,-6.8942,-6.9368,-7.0141,-7.0716,-7.1134,-7.1324,-7.187,-7.1948,-7.1987,-7.1987,-7.199,-7.2034,-7.2076,-7.2082,-7.252,-7.2797,-7.3192,-7.3744,-7.4216,-7.3867,-7.3828,-6.1119,-6.1119,-6.1119,-6.145,-6.2089,-6.1384,-6.1119,-6.1119,-6.1119,-6.102,-6.0854,-6.0929,-6.1254,-6.1636,-6.0254,-6.0107,-6.1092,-6.0528,-6.0177,-6.0177,-6.0177,-6.0107,-6.0072,-6.0072,-6.0142,-6.0282,-6.0212,-6.0107,-6.0001,-5.9966,-5.965,-5.8983,-5.9011,-5.9065,-5.9132,-5.8903,-5.9094,-5.981,-5.9532,-5.9328,-5.9328,-5.9328,-5.9365,-5.9328,-5.929,-5.929,-5.929,-5.929,-5.929,-5.929,-5.929,-5.9666,-6.0417,-6.0642,-6.1393,-6.2782,-6.3723,-6.4444,-6.4946,-6.4435,-6.4153,-6.4469,-6.3313,-6.2394,-6.2191,-6.1543,-6.1118,-6.1118,-6.1118,-6.1118,-6.1118,-6.1118,-6.1118,-6.1118,-6.1118,-6.1118,-6.1118,-6.1118,-6.1118,-6.1118,-6.1273,-6.1792,-6.261,-6.3308,-6.448,-6.5215,-6.5499,-6.5872,-6.6758,-6.7539,-6.8047,-6.8515,-6.9413,-7.0543,-7.0576,-7.0574,-7.0995,-7.1453,-7.1678,-7.187,-7.1948,-7.1987,-7.1987,-7.2068,-7.2154,-7.2236,-7.2202,-7.2639,-7.3427,-7.39,-7.4214,-7.4686,-7.5038,-7.4844,-7.4765,-6.1516,-6.1119,-6.1119,-6.1251,-6.145,-6.1218,-6.1119,-6.1119,-6.1119,-6.0821,-6.0456,-6.0423,-6.0405,-6.0385,-6.0269,-6.0566,-6.1268,-6.0984,-6.0879,-6.0914,-6.1336,-6.1546,-6.1546,-6.1546,-6.1546,-6.1511,-6.109,-6.0598,-6.0107,-6.0072,-5.9966,-5.9756,-5.9685,-5.9785,-5.9824,-5.9302,-5.9335,-5.9892,-5.9841,-5.9663,-5.9384,-5.9853,-5.9891,-5.9328,-5.929,-5.929,-5.929,-5.929,-5.929,-5.929,-5.929,-5.9703,-6.0567,-6.1656,-6.267,-6.3721,-6.4134,-6.4501,-6.4875,-6.4908,-6.4771,-6.4609,-6.3794,-6.2975,-6.2394,-6.1621,-6.1118,-6.1118,-6.1118,-6.1118,-6.1118,-6.1118,-6.1118,-6.1118,-6.1118,-6.1157,-6.1118,-6.1118,-6.1118,-6.1273,-6.2008,-6.3129,-6.392,-6.482,-6.5505,-6.5926,-6.6098,-6.6369,-6.6774,-6.7575,-6.8398,-6.9023,-6.9921,-7.0894,-7.1512,-7.1506,-7.1655,-7.18,-7.1948,-7.1948,-7.1987,-7.1987,-7.1987,-7.2622,-7.2707,-7.3028,-7.3226,-7.3702,-7.4453,-7.4648,-7.5,-7.5508,-7.582,-7.5625,-7.5625,-6.2221,-6.2146,-6.1914,-6.1947,-6.208,-6.1649,-6.145,-6.1417,-6.1218,-6.0821,-6.0423,-6.0357,-6.0351,-6.0443,-6.0668,-6.1107,-6.1669,-6.1693,-6.1792,-6.2038,-6.2283,-6.2422,-6.2422,-6.2422,-6.2422,-6.2248,-6.1652,-6.0984,-6.0493,-6.0212,-6.0107,-6.0072,-6.0072,-6.026,-6.0454,-5.9951,-5.9779,-6.0004,-6.0041,-5.9766,-5.9327,-5.9797,-5.9891,-5.9403,-5.929,-5.929,-5.929,-5.929,-5.944,-5.9666,-5.9741,-6.0229,-6.1393,-6.2745,-6.3721,-6.4209,-6.4284,-6.4424,-6.4759,-6.4997,-6.5046,-6.4898,-6.432,-6.3629,-6.2839,-6.2008,-6.1466,-6.1234,-6.1427,-6.1543,-6.1582,-6.1776,-6.1814,-6.166,-6.1776,-6.193,-6.193,-6.1969,-6.1969,-6.2201,-6.3207,-6.4261,-6.4957,-6.5693,-6.6135,-6.6429,-6.6516,-6.6639,-6.7195,-6.7957,-6.8866,-6.9687,-7.0584,-7.1322,-7.1745,-7.1815,-7.1885,-7.2032,-7.1987,-7.1987,-7.2104,-7.2065,-7.2383,-7.3059,-7.3574,-7.4011,-7.4453,-7.4883,-7.5156,-7.5312,-7.582,-7.6367,-7.6445,-7.6367,-7.6367,-6.305,-6.3968,-6.358,-6.3405,-6.367,-6.2553,-6.2122,-6.1923,-6.1384,-6.1053,-6.0953,-6.1053,-6.125,-6.1642,-6.12,-6.1544,-6.2539,-6.2575,-6.281,-6.3302,-6.2845,-6.2599,-6.2599,-6.267,-6.2599,-6.2494,-6.1757,-6.1371,-6.1265,-6.0598,-6.0212,-6.0142,-6.0142,-6.0415,-6.1087,-6.0496,-6.0267,-6.0262,-6.0226,-5.9773,-5.8977,-5.9439,-5.9703,-5.944,-5.944,-5.9515,-5.944,-5.9403,-5.9778,-6.0492,-6.0604,-6.1393,-6.2745,-6.3721,-6.4247,-6.4304,-6.4284,-6.4444,-6.4723,-6.4848,-6.5137,-6.5293,-6.4871,-6.4139,-6.368,-6.282,-6.2008,-6.166,-6.1969,-6.2385,-6.2511,-6.3091,-6.3245,-6.2627,-6.2975,-6.3371,-6.3487,-6.3603,-6.3681,-6.3719,-6.4377,-6.4919,-6.518,-6.5721,-6.6242,-6.6436,-6.6594,-6.6891,-6.7822,-6.8691,-6.9672,-7.0468,-7.1208,-7.1787,-7.1936,-7.2045,-7.2076,-7.2143,-7.2065,-7.2026,-7.23,-7.2378,-7.3013,-7.3688,-7.4443,-7.4883,-7.5508,-7.5937,-7.6172,-7.6406,-7.6875,-7.6992,-7.6914,-7.6836,-7.6953,-6.3249,-6.3504,-6.2851,-6.2685,-6.2785,-6.1848,-6.1417,-6.1417,-6.1185,-6.1119,-6.1119,-6.1119,-6.121,-6.1513,-6.1925,-6.2753,-6.3652,-6.3833,-6.3863,-6.3688,-6.3828,-6.3934,-6.3969,-6.3969,-6.3723,-6.3267,-6.2986,-6.2564,-6.2003,-6.13,-6.0914,-6.0844,-6.0352,-6.0454,-6.1064,-6.0454,-6.0259,-6.0907,-6.1218,-6.0803,-5.9905,-6.1125,-6.1355,-6.0379,-6.0717,-6.1017,-6.098,-6.0492,-6.0604,-6.1393,-6.143,-6.1956,-6.3008,-6.3871,-6.4284,-6.4284,-6.4284,-6.4324,-6.4482,-6.49,-6.5191,-6.5221,-6.4523,-6.4275,-6.4357,-6.3284,-6.2627,-6.2743,-6.3168,-6.3284,-6.3439,-6.4068,-6.4174,-6.34,-6.3555,-6.3797,-6.3835,-6.3797,-6.399,-6.4493,-6.4841,-6.5218,-6.5682,-6.6147,-6.6254,-6.6459,-6.6866,-6.7522,-6.8054,-6.9294,-7.0212,-7.0741,-7.1482,-7.237,-7.2719,-7.2944,-7.3008,-7.2924,-7.2729,-7.2654,-7.281,-7.2966,-7.3601,-7.4396,-7.515,-7.5781,-7.6445,-7.6758,-7.6914,-7.6992,-7.707,-7.7148,-7.7187,-7.7226,-7.7226,-6.3481,-6.3614,-6.2917,-6.2619,-6.2553,-6.1815,-6.1516,-6.145,-6.1218,-6.1119,-6.1119,-6.1119,-6.1119,-6.1252,-6.1911,-6.2746,-6.3623,-6.3923,-6.4008,-6.4041,-6.446,-6.4706,-6.4706,-6.4706,-6.4495,-6.4039,-6.3723,-6.3337,-6.281,-6.2108,-6.1687,-6.1581,-6.0949,-6.0878,-6.139,-6.0766,-6.066,-6.1126,-6.1471,-6.1265,-6.0735,-6.1633,-6.1988,-6.1261,-6.1543,-6.1956,-6.2181,-6.1768,-6.1768,-6.2257,-6.2557,-6.3008,-6.3533,-6.4021,-6.4284,-6.4284,-6.4284,-6.4304,-6.4364,-6.4795,-6.5175,-6.5153,-6.4782,-6.4556,-6.4773,-6.3826,-6.3632,-6.3642,-6.399,-6.4184,-6.43,-6.4957,-6.5141,-6.4715,-6.4677,-6.4638,-6.4609,-6.4599,-6.4831,-6.5334,-6.5489,-6.5721,-6.6031,-6.6185,-6.638,-6.6718,-6.729,-6.8235,-6.872,-6.9858,-7.0604,-7.1366,-7.2224,-7.2998,-7.362,-7.3844,-7.3942,-7.3822,-7.3627,-7.3632,-7.3715,-7.3747,-7.4142,-7.5181,-7.6012,-7.6406,-7.6992,-7.7031,-7.7148,-7.7187,-7.7344,-7.7226,-7.7226,-7.7226,-7.7226,-6.3813,-6.4233,-6.3537,-6.315,-6.305,-6.2354,-6.1947,-6.1914,-6.1342,-6.1035,-6.1035,-6.0877,-6.0985,-6.106,-6.1194,-6.1897,-6.2808,-6.3216,-6.3889,-6.4568,-6.4882,-6.4846,-6.4741,-6.4706,-6.4671,-6.453,-6.4004,-6.3723,-6.3583,-6.2845,-6.2459,-6.2389,-6.179,-6.1584,-6.19,-6.1486,-6.1092,-6.109,-6.1328,-6.1227,-6.0808,-6.1298,-6.1595,-6.1823,-6.2012,-6.2444,-6.3008,-6.3083,-6.3083,-6.327,-6.3759,-6.4079,-6.4247,-6.4284,-6.4284,-6.4284,-6.4284,-6.4284,-6.4384,-6.4705,-6.5014,-6.5261,-6.5371,-6.5558,-6.5149,-6.487,-6.4532,-6.4222,-6.4571,-6.4948,-6.5141,-6.5528,-6.5915,-6.6147,-6.5915,-6.5915,-6.6147,-6.6069,-6.5992,-6.6069,-6.6185,-6.6301,-6.6417,-6.6456,-6.6971,-6.7523,-6.7946,-6.8858,-6.9869,-7.078,-7.1623,-7.2342,-7.3043,-7.378,-7.4479,-7.4623,-7.4801,-7.5149,-7.4918,-7.4806,-7.4772,-7.4767,-7.4965,-7.5963,-7.6797,-7.7148,-7.7461,-7.7656,-7.7773,-7.793,-7.7812,-7.7422,-7.7422,-7.7656,-7.7734,-6.42,-6.4277,-6.305,-6.252,-6.2387,-6.1682,-6.1417,-6.1342,-6.0882,-6.068,-6.0538,-6.0206,-6.0446,-6.0761,-6.0788,-6.1591,-6.2849,-6.3615,-6.451,-6.5444,-6.5584,-6.5233,-6.4811,-6.4706,-6.4706,-6.4671,-6.4495,-6.4425,-6.4355,-6.3618,-6.3267,-6.3267,-6.2527,-6.2149,-6.2144,-6.2021,-6.1846,-6.1797,-6.2042,-6.186,-6.1435,-6.2367,-6.2758,-6.2417,-6.3113,-6.3626,-6.3946,-6.3984,-6.3984,-6.3984,-6.4172,-6.4284,-6.4284,-6.4284,-6.4284,-6.4284,-6.4284,-6.4284,-6.4385,-6.4848,-6.5175,-6.5291,-6.5333,-6.5389,-6.5866,-6.5334,-6.5218,-6.5257,-6.5334,-6.5257,-6.5644,-6.5566,-6.5644,-6.6069,-6.6185,-6.6185,-6.6185,-6.6185,-6.6185,-6.6263,-6.6727,-6.7036,-6.7191,-6.7627,-6.8123,-6.8558,-6.9072,-6.974,-7.0739,-7.1727,-7.2603,-7.3085,-7.3786,-7.4602,-7.522,-7.5399,-7.5738,-7.6362,-7.6326,-7.6097,-7.6061,-7.6022,-7.6304,-7.6902,-7.7651,-7.8086,-7.8398,-7.8672,-7.8711,-7.8672,-7.8359,-7.8047,-7.8476,-7.8789,-7.8711,-6.4564,-6.4664,-6.3282,-6.2851,-6.304,-6.2395,-6.2065,-6.1877,-6.1284,-6.1121,-6.1099,-6.0455,-6.0526,-6.1122,-6.0794,-6.132,-6.2498,-6.3153,-6.3858,-6.463,-6.5093,-6.5058,-6.4776,-6.4706,-6.4706,-6.4706,-6.4706,-6.4706,-6.4636,-6.425,-6.4074,-6.3934,-6.3267,-6.2997,-6.3208,-6.2449,-6.2319,-6.2429,-6.2457,-6.2141,-6.197,-6.2732,-6.3154,-6.3081,-6.3734,-6.4083,-6.4264,-6.4284,-6.4284,-6.4284,-6.4284,-6.4284,-6.4284,-6.4284,-6.4284,-6.4284,-6.4284,-6.4284,-6.4405,-6.4913,-6.5268,-6.5365,-6.5368,-6.5719,-6.5992,-6.5721,-6.5799,-6.5992,-6.5721,-6.5799,-6.5992,-6.576,-6.576,-6.6108,-6.6185,-6.6185,-6.6185,-6.6185,-6.6185,-6.6379,-6.692,-6.7501,-6.7539,-6.8313,-6.8927,-6.939,-6.9816,-7.0687,-7.1618,-7.2625,-7.3555,-7.4101,-7.4609,-7.5382,-7.596,-7.618,-7.6287,-7.6948,-7.7534,-7.7307,-7.7156,-7.712,-7.7401,-7.78,-7.8471,-7.8984,-7.9219,-7.9375,-7.9336,-7.918,-7.8867,-7.8906,-7.9297,-7.9453,-7.9375,-6.4763,-6.5194,-6.3792,-6.3659,-6.4057,-6.3645,-6.3153,-6.3013,-6.2158,-6.188,-6.1878,-6.1077,-6.0857,-6.1607,-6.0941,-6.1096,-6.189,-6.2831,-6.3397,-6.4332,-6.5021,-6.5338,-6.4987,-6.4776,-6.4706,-6.4706,-6.4706,-6.4706,-6.4706,-6.4671,-6.4671,-6.446,-6.3969,-6.4018,-6.4041,-6.3199,-6.2844,-6.2944,-6.2757,-6.2621,-6.2668,-6.302,-6.3456,-6.3676,-6.3776,-6.4021,-6.4224,-6.4284,-6.4284,-6.4284,-6.4284,-6.4284,-6.4284,-6.4284,-6.4284,-6.4284,-6.4284,-6.4284,-6.4403,-6.4882,-6.5253,-6.5335,-6.5806,-6.6165,-6.6136,-6.6108,-6.6108,-6.6185,-6.6147,-6.5915,-6.5953,-6.6031,-6.6147,-6.6185,-6.6185,-6.6224,-6.6301,-6.634,-6.634,-6.6417,-6.7191,-6.7694,-6.7965,-6.8509,-6.9401,-7.0353,-7.0842,-7.1624,-7.2586,-7.3545,-7.4492,-7.5312,-7.5781,-7.6201,-7.6622,-7.6963,-7.7073,-7.7419,-7.8197,-7.8356,-7.8096,-7.81,-7.838,-7.8775,-7.9366,-7.9723,-7.9883,-7.9961,-8.0078,-8.0039,-7.9961,-7.9844,-7.9844,-7.9765,-7.9726,-6.4465,-6.4531,-6.321,-6.3066,-6.3568,-6.318,-6.2931,-6.2893,-6.2292,-6.1895,-6.1367,-6.0706,-6.055,-6.0741,-6.1017,-6.153,-6.2562,-6.396,-6.5652,-6.7047,-6.7264,-6.6672,-6.5759,-6.5092,-6.4741,-6.4741,-6.4706,-6.4741,-6.4741,-6.4846,-6.4741,-6.4706,-6.4635,-6.4482,-6.45,-6.4198,-6.3717,-6.3414,-6.3599,-6.351,-6.3348,-6.3882,-6.4273,-6.4261,-6.4262,-6.422,-6.4264,-6.4284,-6.4284,-6.4284,-6.4284,-6.4284,-6.4284,-6.4284,-6.4284,-6.4284,-6.4284,-6.4284,-6.4384,-6.4687,-6.503,-6.5314,-6.5691,-6.5913,-6.6175,-6.6301,-6.6263,-6.6069,-6.5644,-6.5528,-6.5489,-6.5915,-6.6224,-6.6301,-6.6379,-6.6572,-6.7036,-6.7191,-6.7114,-6.7501,-6.8429,-6.9435,-6.9445,-7.0167,-7.0843,-7.1368,-7.1945,-7.2615,-7.354,-7.449,-7.5234,-7.6094,-7.668,-7.698,-7.6896,-7.7278,-7.7583,-7.8008,-7.8786,-7.9408,-7.9145,-7.9226,-7.9543,-7.9862,-8.018,-8.0462,-8.0701,-8.1172,-8.1406,-8.125,-8.1015,-8.0898,-8.0703,-8.0469,-8.039,-6.4614,-6.4584,-6.359,-6.3551,-6.4077,-6.3673,-6.3385,-6.3174,-6.2524,-6.2221,-6.1934,-6.1233,-6.1137,-6.1567,-6.1342,-6.169,-6.2879,-6.4338,-6.5945,-6.7188,-6.755,-6.7164,-6.6497,-6.5619,-6.5127,-6.4882,-6.5127,-6.5233,-6.5338,-6.5549,-6.5689,-6.5303,-6.5268,-6.5221,-6.5066,-6.4804,-6.45,-6.439,-6.4323,-6.4142,-6.3981,-6.433,-6.4898,-6.5029,-6.5216,-6.5298,-6.4923,-6.4847,-6.466,-6.4397,-6.4284,-6.4284,-6.4284,-6.4284,-6.4284,-6.4284,-6.4284,-6.4284,-6.4384,-6.4595,-6.493,-6.5307,-6.5893,-6.6162,-6.6548,-6.6882,-6.692,-6.6456,-6.6185,-6.6069,-6.5682,-6.634,-6.6727,-6.692,-6.7191,-6.7617,-6.7926,-6.7771,-6.7694,-6.8158,-6.9164,-6.9705,-7.0271,-7.1155,-7.1741,-7.2057,-7.244,-7.3161,-7.4466,-7.5344,-7.5859,-7.6601,-7.7305,-7.7565,-7.7286,-7.7473,-7.7974,-7.8596,-7.9455,-8.0035,-8.0194,-8.0467,-8.0816,-8.0907,-8.0957,-8.1394,-8.1713,-8.2225,-8.2265,-8.1914,-8.164,-8.1758,-8.1601,-8.1094,-8.1211,-6.4659,-6.4768,-6.4059,-6.422,-6.4739,-6.4286,-6.3933,-6.3693,-6.2967,-6.2692,-6.2826,-6.1977,-6.2011,-6.2572,-6.1882,-6.2174,-6.3484,-6.4555,-6.6269,-6.7616,-6.7796,-6.755,-6.7129,-6.6602,-6.597,-6.5233,-6.5549,-6.5829,-6.6181,-6.6602,-6.6461,-6.611,-6.5865,-6.5855,-6.575,-6.5229,-6.4972,-6.5251,-6.512,-6.483,-6.4685,-6.4851,-6.5305,-6.5755,-6.5926,-6.5953,-6.5448,-6.5185,-6.4923,-6.4359,-6.4284,-6.4284,-6.4284,-6.4284,-6.4284,-6.4284,-6.4284,-6.4284,-6.4344,-6.4558,-6.4865,-6.5291,-6.6246,-6.6716,-6.6836,-6.7578,-6.7655,-6.723,-6.6843,-6.7114,-6.6727,-6.723,-6.7617,-6.781,-6.839,-6.8777,-6.8816,-6.8313,-6.8468,-6.8932,-7.0054,-7.0827,-7.1092,-7.1629,-7.2221,-7.2785,-7.3153,-7.3778,-7.5101,-7.6159,-7.6679,-7.7108,-7.7807,-7.8419,-7.8215,-7.8642,-7.9025,-7.9377,-8.0236,-8.0702,-8.1167,-8.136,-8.1558,-8.1527,-8.1656,-8.2013,-8.2178,-8.2261,-8.2264,-8.2146,-8.207,-8.1953,-8.1797,-8.1601,-8.1875,-6.4053,-6.4009,-6.3532,-6.3725,-6.4205,-6.3807,-6.3563,-6.3549,-6.3304,-6.3001,-6.2513,-6.2337,-6.217,-6.2364,-6.2579,-6.3648,-6.5178,-6.6242,-6.7423,-6.8632,-6.8779,-6.8533,-6.8006,-6.7655,-6.7304,-6.6672,-6.6356,-6.6356,-6.6742,-6.6953,-6.7199,-6.6777,-6.6286,-6.6245,-6.6358,-6.6014,-6.5617,-6.5938,-6.6025,-6.5917,-6.5736,-6.5989,-6.6326,-6.6592,-6.6433,-6.6045,-6.5598,-6.496,-6.4434,-6.4284,-6.4284,-6.4322,-6.4434,-6.4434,-6.4359,-6.4284,-6.4284,-6.4284,-6.4324,-6.4364,-6.4723,-6.528,-6.6192,-6.6961,-6.7409,-6.8197,-6.8429,-6.7849,-6.7539,-6.7733,-6.8313,-6.8429,-6.8545,-6.8661,-6.8854,-6.9203,-6.9589,-6.9705,-6.9628,-7.0054,-7.1137,-7.2065,-7.2214,-7.2489,-7.3074,-7.3803,-7.4457,-7.4938,-7.5858,-7.6777,-7.7461,-7.7889,-7.8276,-7.8848,-7.9257,-7.9921,-8.0425,-8.0465,-8.1053,-8.1561,-8.1906,-8.2098,-8.2179,-8.1993,-8.1998,-8.2161,-8.2289,-8.2296,-8.2299,-8.222,-8.2187,-8.2109,-8.2031,-8.1914,-8.2031,-6.3357,-6.3116,-6.2905,-6.2949,-6.3154,-6.3019,-6.2951,-6.292,-6.292,-6.2762,-6.2383,-6.2067,-6.2347,-6.2713,-6.2396,-6.3781,-6.5895,-6.7065,-6.8128,-6.9153,-6.934,-6.9235,-6.8708,-6.8428,-6.8603,-6.8357,-6.776,-6.7234,-6.7725,-6.8533,-6.8252,-6.7655,-6.7234,-6.7093,-6.6853,-6.6553,-6.6576,-6.6782,-6.6822,-6.6858,-6.6801,-6.7235,-6.7373,-6.7345,-6.7396,-6.7208,-6.6762,-6.65,-6.6011,-6.5636,-6.5185,-6.5223,-6.5298,-6.511,-6.4735,-6.4434,-6.4359,-6.4322,-6.4322,-6.4362,-6.4803,-6.5893,-6.6705,-6.7456,-6.8286,-6.9164,-6.9512,-6.897,-6.8313,-6.8313,-6.8689,-6.9203,-6.9396,-6.9512,-6.9783,-7.0208,-7.0634,-7.1021,-7.1214,-7.1291,-7.2026,-7.2761,-7.3237,-7.3562,-7.4051,-7.4775,-7.5632,-7.6214,-7.6769,-7.7547,-7.8358,-7.8824,-7.9208,-7.9703,-8.0152,-8.0702,-8.1206,-8.136,-8.1597,-8.2104,-8.2296,-8.2293,-8.2293,-8.2218,-8.2302,-8.231,-8.2315,-8.2326,-8.229,-8.2295,-8.2265,-8.2226,-8.2265,-8.2304,-8.2304,-6.2808,-6.2396,-6.2396,-6.2396,-6.2396,-6.2396,-6.2396,-6.2396,-6.2428,-6.2302,-6.2161,-6.1894,-6.238,-6.3095,-6.3134,-6.3847,-6.614,-6.6943,-6.8049,-6.893,-6.9339,-6.9376,-6.9165,-6.8989,-6.8954,-6.9481,-6.927,-6.8673,-6.8884,-6.9446,-6.934,-6.8673,-6.8322,-6.8011,-6.753,-6.7302,-6.7685,-6.777,-6.7474,-6.7402,-6.7644,-6.7927,-6.7996,-6.7998,-6.8637,-6.849,-6.7851,-6.7438,-6.71,-6.6612,-6.6199,-6.6049,-6.65,-6.6124,-6.5486,-6.4943,-6.483,-6.4793,-6.4868,-6.5007,-6.5708,-6.6704,-6.7646,-6.8371,-6.9019,-6.9938,-7.0634,-7.0208,-6.9551,-6.9203,-6.9551,-6.9899,-7.0208,-7.044,-7.0982,-7.1601,-7.1756,-7.2181,-7.28,-7.2955,-7.3148,-7.3574,-7.4204,-7.4746,-7.5238,-7.5855,-7.6707,-7.7358,-7.7896,-7.8588,-7.9293,-7.98,-8.0252,-8.067,-8.1014,-8.1215,-8.1561,-8.1672,-8.187,-8.2224,-8.2299,-8.2293,-8.2293,-8.2293,-8.2296,-8.2305,-8.2308,-8.231,-8.232,-8.2289,-8.2296,-8.2301,-8.2303,-8.2304,-8.2304,-6.2464,-6.2396,-6.2396,-6.2396,-6.2396,-6.2396,-6.2396,-6.2396,-6.2396,-6.2067,-6.1719,-6.2003,-6.225,-6.2666,-6.3863,-6.4686,-6.5741,-6.6828,-6.7925,-6.8778,-6.919,-6.9376,-6.9376,-6.9377,-6.9305,-6.9797,-6.9972,-7.0218,-7.0007,-6.9762,-6.9516,-6.9095,-6.8604,-6.8399,-6.8629,-6.8195,-6.8339,-6.8765,-6.8307,-6.7655,-6.7259,-6.7734,-6.8004,-6.8049,-6.8194,-6.8281,-6.8055,-6.7701,-6.7196,-6.7025,-6.6783,-6.6708,-6.6783,-6.6746,-6.6633,-6.652,-6.652,-6.652,-6.6411,-6.6445,-6.6838,-6.7652,-6.8613,-6.9387,-6.9899,-7.0092,-7.0634,-7.1175,-7.0363,-7.017,-7.0556,-7.1021,-7.1137,-7.1407,-7.191,-7.2336,-7.2607,-7.3187,-7.3844,-7.4657,-7.485,-7.5005,-7.5392,-7.5933,-7.6459,-7.708,-7.77,-7.8365,-7.9049,-7.9717,-8.0229,-8.0737,-8.1029,-8.1443,-8.1558,-8.18,-8.1837,-8.1945,-8.2107,-8.2305,-8.2299,-8.2293,-8.2293,-8.2293,-8.2296,-8.2299,-8.2299,-8.2305,-8.2313,-8.232,-8.229,-8.2296,-8.2301,-8.2304,-8.2304,-6.2067,-6.2396,-6.2396,-6.2396,-6.2396,-6.2396,-6.2396,-6.2396,-6.2396,-6.2256,-6.1972,-6.1814,-6.2093,-6.2758,-6.4099,-6.5371,-6.6414,-6.7107,-6.797,-6.874,-6.919,-6.9376,-6.9376,-6.9448,-6.9553,-6.9867,-6.9937,-7.0043,-7.0183,-7.0148,-6.9867,-6.934,-6.9061,-6.8964,-6.9342,-6.8946,-6.9265,-6.957,-6.943,-6.8706,-6.7978,-6.7971,-6.8241,-6.8033,-6.8227,-6.8399,-6.8484,-6.8415,-6.8152,-6.8077,-6.7814,-6.7739,-6.7889,-6.7814,-6.7626,-6.8152,-6.8152,-6.7701,-6.6975,-6.7203,-6.7739,-6.8432,-6.9222,-6.9836,-7.0463,-7.0711,-7.0789,-7.1214,-7.0982,-7.0982,-7.1369,-7.1756,-7.1949,-7.2297,-7.2877,-7.3226,-7.3612,-7.4193,-7.485,-7.574,-7.6552,-7.6746,-7.6978,-7.7558,-7.7918,-7.8158,-7.8765,-7.9429,-8.0157,-8.0877,-8.1328,-8.1672,-8.1888,-8.2101,-8.2104,-8.2149,-8.2107,-8.2143,-8.2149,-8.2305,-8.2296,-8.2293,-8.2293,-8.2293,-8.2293,-8.2293,-8.2293,-8.2296,-8.2302,-8.231,-8.2318,-8.2289,-8.2296,-8.2304,-8.2304,-6.1782,-6.2396,-6.2396,-6.2396,-6.2396,-6.2396,-6.2396,-6.2396,-6.2396,-6.227,-6.2067,-6.1705,-6.2077,-6.3121,-6.4132,-6.5237,-6.6753,-6.7078,-6.7731,-6.8435,-6.8967,-6.908,-6.9153,-6.9262,-6.9656,-7.0218,-6.9691,-6.9727,-7.0007,-7.0078,-6.9797,-6.9411,-6.9305,-6.9459,-6.9596,-6.9656,-6.9884,-7.0201,-7.0263,-6.9539,-6.8578,-6.845,-6.8458,-6.8413,-6.8543,-6.8809,-6.9138,-6.9106,-6.9106,-6.8956,-6.8602,-6.8565,-6.8865,-6.8602,-6.8527,-6.8881,-6.8919,-6.8688,-6.8141,-6.8167,-6.8548,-6.9129,-6.9791,-7.0486,-7.1015,-7.1291,-7.1291,-7.1291,-7.1601,-7.1562,-7.1794,-7.2413,-7.28,-7.3303,-7.3922,-7.4231,-7.4695,-7.5585,-7.6397,-7.7171,-7.7983,-7.8525,-7.8873,-7.9337,-7.9543,-7.94,-7.9841,-8.0461,-8.1065,-8.1706,-8.1913,-8.2097,-8.2159,-8.2296,-8.2296,-8.2299,-8.2299,-8.2299,-8.2305,-8.2305,-8.2296,-8.2293,-8.2293,-8.2293,-8.2293,-8.2293,-8.2293,-8.2293,-8.2293,-8.2302,-8.231,-8.2318,-8.2326,-8.229,-8.2296,-6.1814,-6.2396,-6.2365,-6.2365,-6.2396,-6.2396,-6.2396,-6.2396,-6.2396,-6.213,-6.1814,-6.1546,-6.2396,-6.3544,-6.4017,-6.4636,-6.5658,-6.6192,-6.6711,-6.7243,-6.7771,-6.8474,-6.8778,-6.9115,-6.9446,-6.9551,-6.9411,-6.9446,-6.9481,-6.9656,-6.9516,-6.9376,-6.9376,-6.9849,-7.0164,-7.0329,-7.0411,-7.0604,-7.0553,-7.0149,-6.9298,-6.8939,-6.8816,-6.8941,-6.8816,-6.8786,-6.916,-6.9181,-6.9181,-6.9181,-6.9031,-6.8956,-6.9106,-6.8994,-6.9069,-6.9106,-6.9181,-6.9089,-6.9132,-6.9391,-6.9933,-7.0341,-7.0695,-7.1004,-7.1242,-7.1291,-7.1291,-7.1446,-7.1949,-7.2375,-7.2723,-7.3226,-7.3728,-7.4386,-7.5121,-7.5856,-7.6475,-7.7442,-7.8216,-7.8796,-7.926,-7.9608,-8.0072,-8.0382,-8.042,-8.0278,-8.0358,-8.094,-8.1426,-8.1976,-8.2109,-8.225,-8.2271,-8.2296,-8.2293,-8.2293,-8.2296,-8.2296,-8.2299,-8.2299,-8.2293,-8.2293,-8.2293,-8.2293,-8.2293,-8.2293,-8.2293,-8.2293,-8.2293,-8.2296,-8.2302,-8.231,-8.2322,-8.2292,-8.2296,-6.1403,-6.2333,-6.1972,-6.2035,-6.2396,-6.2396,-6.2396,-6.2396,-6.2396,-6.2604,-6.2604,-6.2337,-6.2971,-6.4077,-6.415,-6.4728,-6.5888,-6.6235,-6.6576,-6.7202,-6.7925,-6.8319,-6.8628,-6.8967,-6.9376,-6.9376,-6.9376,-6.9376,-6.9411,-6.9376,-6.9376,-6.9376,-6.9412,-6.9884,-7.0306,-7.085,-7.1027,-7.1042,-7.0987,-7.0661,-7.0107,-6.9794,-6.9543,-6.9163,-6.9107,-6.9046,-6.9184,-6.9181,-6.9181,-6.9219,-6.9219,-6.9219,-6.9181,-6.9181,-6.9181,-6.9181,-6.9181,-6.9419,-6.9778,-7.0154,-7.044,-7.0915,-7.1151,-7.1291,-7.1291,-7.133,-7.164,-7.1988,-7.2452,-7.2916,-7.3458,-7.4154,-7.485,-7.5508,-7.6359,-7.7287,-7.8022,-7.8873,-7.9415,-7.9724,-7.9995,-8.0266,-8.073,-8.1233,-8.1155,-8.1103,-8.1203,-8.1384,-8.1811,-8.2132,-8.2265,-8.2328,-8.231,-8.2296,-8.2293,-8.2293,-8.2293,-8.2293,-8.2293,-8.2293,-8.2293,-8.2293,-8.2293,-8.2293,-8.2293,-8.2293,-8.2293,-8.2293,-8.2293,-8.2296,-8.2296,-8.2299,-8.2315,-8.229,-8.2295,-6.0708,-6.1687,-6.1277,-6.1593,-6.2302,-6.2175,-6.2256,-6.2365,-6.2396,-6.2667,-6.3141,-6.2667,-6.3209,-6.4174,-6.4233,-6.4636,-6.5669,-6.6062,-6.6363,-6.687,-6.7488,-6.8004,-6.8397,-6.8854,-6.9376,-6.9376,-6.9376,-6.9376,-6.9376,-6.9376,-6.9376,-6.9412,-6.9559,-6.9956,-7.0478,-7.111,-7.1494,-7.1494,-7.1458,-7.1313,-7.0734,-7.0434,-7.0307,-6.977,-6.969,-6.9731,-6.9878,-7.0031,-6.9954,-6.9804,-6.9616,-6.9444,-6.9294,-6.9181,-6.9181,-6.9181,-6.9246,-6.9457,-6.989,-7.0288,-7.07,-7.1139,-7.1258,-7.1291,-7.133,-7.1523,-7.2065,-7.2452,-7.2955,-7.3612,-7.4347,-7.5237,-7.6011,-7.6746,-7.7906,-7.8796,-7.9183,-7.984,-8.0188,-8.0575,-8.0769,-8.0885,-8.1039,-8.1439,-8.1457,-8.1409,-8.1549,-8.1656,-8.191,-8.2178,-8.2262,-8.2326,-8.2313,-8.2302,-8.2293,-8.2293,-8.2293,-8.2293,-8.2293,-8.2293,-8.2293,-8.2293,-8.2293,-8.2293,-8.2293,-8.2293,-8.2293,-8.2293,-8.2293,-8.2293,-8.2293,-8.2296,-8.2302,-8.2318,-8.229,-5.976,-6.0297,-6.0329,-6.1119,-6.2161,-6.1687,-6.1814,-6.2333,-6.2396,-6.2459,-6.2635,-6.2477,-6.3066,-6.3947,-6.4071,-6.4636,-6.5348,-6.5526,-6.5614,-6.6009,-6.7037,-6.7407,-6.7965,-6.8625,-6.9376,-6.9376,-6.9376,-6.9376,-6.9376,-6.9376,-6.9376,-6.9522,-6.9741,-7.0132,-7.0513,-7.1179,-7.1463,-7.1494,-7.1494,-7.1422,-7.1241,-7.0869,-7.0791,-7.0677,-7.0612,-7.0647,-7.0741,-7.0983,-7.0871,-7.0555,-7.048,-7.0217,-6.9707,-6.9594,-6.9482,-6.9369,-6.9407,-6.9733,-7.0319,-7.0661,-7.1108,-7.1286,-7.1291,-7.1369,-7.1523,-7.1949,-7.2645,-7.3148,-7.396,-7.4773,-7.5624,-7.6436,-7.7132,-7.8099,-7.9221,-7.9879,-8.0227,-8.0498,-8.0885,-8.1039,-8.1271,-8.1465,-8.1465,-8.1502,-8.1575,-8.1679,-8.1812,-8.1961,-8.2104,-8.2182,-8.2296,-8.2326,-8.2313,-8.2302,-8.2293,-8.2293,-8.2293,-8.2293,-8.2293,-8.2293,-8.2293,-8.2293,-8.2293,-8.2293,-8.2293,-8.2293,-8.2293,-8.2293,-8.2293,-8.2293,-8.2293,-8.2293,-8.2299,-8.2308,-8.2324,-5.9696,-6.0265,-5.9823,-6.017,-6.0992,-6.1308,-6.1782,-6.2302,-6.2428,-6.2667,-6.3051,-6.3013,-6.3581,-6.4285,-6.4496,-6.4761,-6.5258,-6.5425,-6.5425,-6.557,-6.6787,-6.7243,-6.7811,-6.859,-6.9376,-6.9376,-6.9376,-6.9376,-6.9376,-6.9376,-6.9376,-6.9522,-7.0026,-7.0478,-7.0814,-7.1272,-7.1494,-7.1494,-7.1494,-7.1494,-7.149,-7.1514,-7.1472,-7.1453,-7.149,-7.1603,-7.157,-7.1816,-7.1659,-7.1381,-7.1306,-7.1081,-7.0721,-7.0683,-7.0495,-7.0367,-7.0427,-7.1186,-7.1897,-7.2381,-7.2271,-7.1811,-7.1485,-7.1717,-7.2104,-7.2375,-7.3109,-7.3999,-7.4773,-7.5701,-7.6784,-7.7171,-7.7906,-7.9144,-8.0111,-8.0498,-8.0846,-8.1117,-8.1375,-8.1387,-8.1491,-8.1491,-8.1504,-8.1569,-8.1669,-8.1856,-8.2007,-8.2101,-8.2212,-8.2265,-8.2331,-8.2326,-8.2315,-8.2302,-8.2332,-8.2723,-8.2645,-8.2528,-8.2411,-8.2293,-8.2293,-8.2293,-8.2293,-8.2293,-8.2293,-8.2293,-8.2293,-8.2293,-8.2293,-8.2293,-8.2293,-8.2293,-8.2296,-8.231,-8.2289,-5.9191,-5.9538,-5.9128,-5.9475,-6.0297,-6.0803,-6.1529,-6.227,-6.2446,-6.2748,-6.3267,-6.3259,-6.3821,-6.4536,-6.4793,-6.4976,-6.5381,-6.5425,-6.5425,-6.557,-6.6787,-6.7243,-6.7811,-6.8667,-6.9302,-6.9376,-6.9376,-6.9376,-6.9376,-6.9376,-6.9772,-7.0238,-7.0379,-7.0967,-7.133,-7.1689,-7.1494,-7.1494,-7.1494,-7.1494,-7.162,-7.1818,-7.2021,-7.2051,-7.2262,-7.2596,-7.244,-7.2416,-7.2432,-7.2245,-7.2094,-7.1982,-7.1869,-7.1644,-7.1456,-7.1268,-7.1639,-7.2262,-7.2745,-7.3341,-7.3052,-7.2529,-7.222,-7.2452,-7.3032,-7.3419,-7.4038,-7.4811,-7.5546,-7.6475,-7.7481,-7.7829,-7.895,-8.0188,-8.0614,-8.1001,-8.1194,-8.1452,-8.1491,-8.1491,-8.1491,-8.1491,-8.1606,-8.1628,-8.1687,-8.1951,-8.2223,-8.2339,-8.2498,-8.2615,-8.2761,-8.2795,-8.3018,-8.3276,-8.3386,-8.3465,-8.3269,-8.2801,-8.2684,-8.2567,-8.2293,-8.2293,-8.2293,-8.2293,-8.2293,-8.2293,-8.2293,-8.2293,-8.2293,-8.2293,-8.2293,-8.2293,-8.2293,-8.2308,-8.2326,-5.8321,-5.8321,-5.8321,-5.9033,-6.0076,-6.0297,-6.115,-6.2365,-6.2396,-6.271,-6.3196,-6.3276,-6.3835,-6.4597,-6.4748,-6.5021,-6.5336,-6.5425,-6.5425,-6.579,-6.6787,-6.7161,-6.7811,-6.8701,-6.9264,-6.9376,-6.9376,-6.9376,-6.9376,-6.9376,-7.0094,-7.0876,-7.0659,-7.1314,-7.1853,-7.1861,-7.1567,-7.1494,-7.1494,-7.1494,-7.1589,-7.2011,-7.2262,-7.2448,-7.2907,-7.3317,-7.3426,-7.3583,-7.3438,-7.3221,-7.2958,-7.2507,-7.2132,-7.1832,-7.1794,-7.2014,-7.2566,-7.2823,-7.3292,-7.3971,-7.4224,-7.3999,-7.396,-7.3999,-7.4038,-7.4386,-7.4966,-7.5701,-7.6514,-7.721,-7.7945,-7.895,-7.9956,-8.0614,-8.1039,-8.1271,-8.1426,-8.1491,-8.1491,-8.1491,-8.1491,-8.1593,-8.1824,-8.1889,-8.2295,-8.2754,-8.3055,-8.3177,-8.332,-8.3512,-8.362,-8.3734,-8.3997,-8.4486,-8.4519,-8.4284,-8.3777,-8.323,-8.3191,-8.3074,-8.2723,-8.2332,-8.2293,-8.2293,-8.2293,-8.2293,-8.2293,-8.2293,-8.2293,-8.2293,-8.2293,-8.2293,-8.2293,-8.2299,-8.2315,-5.8321,-5.8321,-5.8321,-5.8542,-5.9016,-5.9918,-6.1119,-6.227,-6.2396,-6.271,-6.3212,-6.3548,-6.4067,-6.4702,-6.5066,-6.5246,-6.5336,-6.5425,-6.5425,-6.5922,-6.6745,-6.7202,-6.7851,-6.8667,-6.9227,-6.9376,-6.9376,-6.9376,-6.9376,-6.9376,-6.9812,-7.0589,-7.0728,-7.1491,-7.203,-7.1929,-7.1712,-7.1567,-7.1567,-7.1494,-7.1744,-7.2219,-7.248,-7.2871,-7.349,-7.3875,-7.3995,-7.4104,-7.3934,-7.3859,-7.3784,-7.3596,-7.3559,-7.3484,-7.3484,-7.3485,-7.3761,-7.3951,-7.4549,-7.5243,-7.5546,-7.5469,-7.5508,-7.5237,-7.5082,-7.516,-7.574,-7.6552,-7.7326,-7.7945,-7.8834,-7.9801,-8.0575,-8.1039,-8.1349,-8.1426,-8.1491,-8.1491,-8.153,-8.1736,-8.1736,-8.2058,-8.2262,-8.2649,-8.3084,-8.3638,-8.399,-8.4131,-8.4218,-8.4369,-8.4477,-8.4552,-8.4893,-8.5342,-8.5065,-8.4792,-8.4206,-8.3738,-8.3777,-8.3543,-8.2801,-8.245,-8.2371,-8.2293,-8.2293,-8.2293,-8.2293,-8.2293,-8.2293,-8.2293,-8.2293,-8.2293,-8.2293,-8.2299,-8.2308,-5.8022,-5.8289,-5.8321,-5.8401,-5.8906,-6.017,-6.1277,-6.2003,-6.2319,-6.2808,-6.3452,-6.3753,-6.4268,-6.4943,-6.5291,-6.5381,-6.5425,-6.5425,-6.5425,-6.5746,-6.6787,-6.7202,-6.7851,-6.8628,-6.9264,-6.9376,-6.9376,-6.9376,-6.9412,-6.9484,-6.9847,-7.0979,-7.0907,-7.1814,-7.2568,-7.2545,-7.2074,-7.1893,-7.1748,-7.1567,-7.1866,-7.2365,-7.277,-7.3071,-7.3777,-7.4104,-7.4197,-7.4197,-7.4197,-7.4197,-7.4197,-7.4197,-7.416,-7.416,-7.416,-7.4132,-7.4465,-7.4705,-7.5162,-7.5873,-7.6248,-7.6397,-7.6436,-7.632,-7.6088,-7.6088,-7.663,-7.7287,-7.7945,-7.8641,-7.9647,-8.0524,-8.0988,-8.1452,-8.1452,-8.1491,-8.1491,-8.1491,-8.1736,-8.2006,-8.2277,-8.2587,-8.297,-8.3423,-8.3843,-8.4234,-8.4782,-8.5231,-8.5233,-8.5306,-8.5335,-8.5368,-8.5747,-8.6119,-8.5768,-8.553,-8.5221,-8.4948,-8.4909,-8.4441,-8.3269,-8.2684,-8.2684,-8.2528,-8.2293,-8.2293,-8.2293,-8.2293,-8.2293,-8.2293,-8.2293,-8.2293,-8.2293,-8.2296,-8.2308,-5.7642,-5.8321,-5.8321,-5.859,-5.938,-6.0613,-6.1245,-6.1403,-6.2147,-6.2971,-6.3753,-6.3894,-6.4407,-6.5168,-6.5381,-6.5425,-6.5425,-6.5425,-6.5425,-6.5481,-6.6787,-6.7366,-6.7771,-6.8701,-6.9302,-6.9376,-6.9376,-6.9376,-6.9412,-6.9594,-7.0167,-7.1513,-7.1617,-7.2386,-7.3642,-7.2911,-7.2581,-7.269,-7.2183,-7.178,-7.1811,-7.2277,-7.2936,-7.3071,-7.3616,-7.4197,-7.4197,-7.4197,-7.4197,-7.4197,-7.4197,-7.4197,-7.4197,-7.4197,-7.4197,-7.4416,-7.479,-7.5089,-7.542,-7.5975,-7.6287,-7.6397,-7.6475,-7.6862,-7.6862,-7.6746,-7.721,-7.8177,-7.8912,-7.9531,-8.0382,-8.0872,-8.1298,-8.1491,-8.1491,-8.1491,-8.1491,-8.1697,-8.2122,-8.2432,-8.2857,-8.327,-8.4001,-8.4474,-8.4875,-8.5063,-8.5504,-8.6172,-8.6246,-8.6201,-8.6194,-8.6184,-8.6405,-8.6744,-8.6819,-8.6623,-8.6471,-8.6314,-8.6002,-8.4987,-8.3543,-8.3152,-8.3035,-8.2684,-8.2293,-8.2293,-8.2293,-8.2293,-8.2293,-8.2293,-8.2293,-8.2293,-8.2293,-8.2293,-8.2305,-5.7642,-5.8321,-5.8321,-5.8369,-5.8685,-5.9981,-6.0581,-6.0724,-6.2347,-6.3309,-6.38,-6.3988,-6.4453,-6.5303,-6.5425,-6.5425,-6.5425,-6.5425,-6.5425,-6.5834,-6.6829,-6.7448,-6.769,-6.8778,-6.9302,-6.9376,-6.9376,-6.9448,-6.959,-6.9809,-7.0345,-7.1513,-7.2005,-7.3094,-7.4362,-7.345,-7.3016,-7.3378,-7.2726,-7.211,-7.191,-7.2387,-7.2936,-7.3178,-7.3678,-7.4188,-7.4235,-7.4197,-7.4197,-7.4197,-7.4197,-7.4197,-7.4197,-7.4197,-7.4197,-7.4342,-7.4922,-7.5221,-7.5545,-7.5999,-7.6389,-7.6707,-7.69,-7.7326,-7.7519,-7.7442,-7.7906,-7.9028,-7.984,-8.0382,-8.0885,-8.1271,-8.1491,-8.1491,-8.153,-8.153,-8.1568,-8.2084,-8.2548,-8.3051,-8.3476,-8.4142,-8.488,-8.543,-8.587,-8.63,-8.6711,-8.7106,-8.7061,-8.7053,-8.7008,-8.6999,-8.7027,-8.7251,-8.7407,-8.7326,-8.7017,-8.6666,-8.6275,-8.5104,-8.3855,-8.3347,-8.2996,-8.2606,-8.2293,-8.245,-8.2489,-8.2293,-8.2293,-8.2293,-8.2293,-8.2293,-8.2293,-8.2293,-8.2302,-5.6694,-5.7358,-5.7674,-5.799,-5.8496,-5.9728,-6.044,-6.0931,-6.246,-6.3595,-6.4207,-6.43,-6.4669,-6.5348,-6.5425,-6.5425,-6.5425,-6.5425,-6.5658,-6.6148,-6.6745,-6.7488,-6.8201,-6.8854,-6.9227,-6.9376,-6.9448,-6.9518,-6.9836,-7.0342,-7.102,-7.2084,-7.2787,-7.3627,-7.4543,-7.3704,-7.345,-7.3849,-7.3124,-7.2726,-7.2527,-7.3296,-7.3398,-7.3559,-7.3914,-7.4404,-7.4235,-7.4197,-7.4197,-7.4197,-7.4197,-7.4197,-7.4197,-7.4197,-7.4297,-7.453,-7.4942,-7.5379,-7.5679,-7.6143,-7.6656,-7.7094,-7.7326,-7.7713,-7.895,-7.895,-7.8989,-7.9918,-7.9956,-8.042,-8.1039,-8.1491,-8.1491,-8.1491,-8.1581,-8.1658,-8.22,-8.2896,-8.3554,-8.4211,-8.4637,-8.5033,-8.5716,-8.6194,-8.6551,-8.6737,-8.7262,-8.7768,-8.7761,-8.7867,-8.786,-8.7774,-8.7723,-8.7525,-8.7404,-8.7365,-8.7251,-8.69,-8.6588,-8.5924,-8.5026,-8.3738,-8.2879,-8.3035,-8.3074,-8.2918,-8.2879,-8.2606,-8.2371,-8.2293,-8.2293,-8.2293,-8.2293,-8.2293,-8.2299,-5.5651,-5.6378,-5.6979,-5.7642,-5.8401,-5.9602,-6.0487,-6.1276,-6.2523,-6.3768,-6.4577,-6.4715,-6.5066,-6.5291,-6.5425,-6.5425,-6.5425,-6.5425,-6.579,-6.6192,-6.6995,-6.7488,-6.8162,-6.8967,-6.9264,-6.9376,-6.9411,-6.9867,-7.0359,-7.0873,-7.1695,-7.294,-7.379,-7.449,-7.4185,-7.403,-7.4102,-7.3921,-7.3559,-7.3551,-7.4077,-7.4778,-7.4282,-7.4205,-7.4561,-7.5089,-7.4723,-7.4423,-7.4423,-7.431,-7.431,-7.4197,-7.4197,-7.4197,-7.4378,-7.4661,-7.5304,-7.5753,-7.6148,-7.6713,-7.7278,-7.7713,-7.7867,-7.8564,-7.984,-8.0266,-8.0304,-8.0382,-8.0382,-8.0614,-8.1233,-8.1542,-8.1542,-8.1658,-8.1774,-8.2084,-8.2896,-8.3708,-8.4482,-8.523,-8.5551,-8.5894,-8.635,-8.6841,-8.7047,-8.7219,-8.757,-8.8046,-8.8424,-8.8566,-8.8672,-8.8432,-8.827,-8.7993,-8.7521,-8.7365,-8.7329,-8.7251,-8.6978,-8.6705,-8.6119,-8.4675,-8.3933,-8.4206,-8.4167,-8.3738,-8.3269,-8.2957,-8.2723,-8.2411,-8.2293,-8.2293,-8.2293,-8.2293,-8.2293,-5.5873,-5.7042,-5.72,-5.7611,-5.8384,-5.9159,-6.0121,-6.1195,-6.2418,-6.3608,-6.4538,-6.5123,-6.5381,-6.5425,-6.5425,-6.5425,-6.5425,-6.5425,-6.5425,-6.5702,-6.6912,-6.7407,-6.797,-6.9005,-6.9302,-6.9376,-6.9446,-6.9867,-7.0717,-7.1338,-7.2299,-7.3762,-7.453,-7.498,-7.4905,-7.4754,-7.4537,-7.4283,-7.4421,-7.4522,-7.4586,-7.5007,-7.515,-7.5335,-7.5806,-7.6118,-7.6075,-7.5511,-7.5286,-7.4986,-7.4648,-7.4385,-7.4408,-7.4515,-7.4805,-7.5337,-7.5966,-7.652,-7.7035,-7.7705,-7.832,-7.868,-7.895,-7.9531,-8.0459,-8.0872,-8.0949,-8.1078,-8.1117,-8.1117,-8.153,-8.1658,-8.1697,-8.2045,-8.2238,-8.2973,-8.3786,-8.4495,-8.5191,-8.5706,-8.6045,-8.637,-8.6724,-8.7042,-8.7205,-8.7488,-8.8047,-8.8466,-8.8853,-8.9112,-8.9444,-8.9246,-8.8969,-8.8149,-8.756,-8.7443,-8.7365,-8.7404,-8.7287,-8.6861,-8.6236,-8.5338,-8.4948,-8.526,-8.4909,-8.4401,-8.3933,-8.3543,-8.2957,-8.2645,-8.2411,-8.2293,-8.2293,-8.2293,-8.2293]},{"header":{"parameterUnit":"m.s-1","parameterCategory":1,"la1":31.0,"la2":29.5877,"lo1":-88.7671,"lo2":-86.6584,"dy":0.0162,"dx":0.0185,"nx":115,"ny":88,"refTime":"2024-02-09T06:00:00:Z","depth":0,"parameterNumber":3,"parameterNumberName":"V-component_of_WINDS"},"data":[0.0,0.0,0.0,0.0,0.0,0.0,0.0,0.0,0.0,0.0,0.0,0.0,0.0,0.0,0.0,0.0,0.0,0.0,0.0,0.0,0.0,0.0,0.0,0.0,0.0,0.0,0.0,0.0,0.0,0.0,0.0,0.0,0.0,0.0,0.0,0.0,0.0,0.0,0.0,0.0,0.0,0.0,0.0,0.0,0.0,0.0,0.0,0.0,0.0,0.0,0.0,0.0,0.0,0.0,0.0,0.0,0.0,0.0,0.0,0.0,0.0,0.0,0.0,0.0,0.0,0.0,0.0,0.0,0.0,0.0,0.0,0.0,0.0,0.0,0.0,0.0,0.0,0.0,0.0,0.0,0.0,0.0,0.0,0.0,0.0,0.0,0.0,0.0,0.0,0.0,0.0,0.0,0.0,0.0,0.0,0.0,0.0,0.0,0.0,0.0,0.0,0.0,0.0,0.0,0.0,0.0,0.0,0.0,0.0,0.0,0.0,0.0,0.0,0.0,0.0,0.0,0.0,0.0,0.0,0.0,0.0,0.0,0.0,0.0,0.0,0.0,0.0,0.0,0.0,0.0,0.0,0.0,0.0,0.0,0.0,0.0,0.0,0.0,0.0,0.0,0.0,0.0,0.0,0.0,0.0,0.0,0.0,0.0,0.0,0.0,0.0,0.0,0.0,0.0,0.0,0.0,0.0,0.0,0.0,0.0,0.0,0.0,0.0,0.0,0.0,0.0,0.0,0.0,0.0,0.0,0.0,0.0,0.0,0.0,0.0,0.0,0.0,0.0,0.0,0.0,0.0,0.0,0.0,0.0,0.0,0.0,0.0,0.0,0.0,0.0,0.0,0.0,0.0,0.0,0.0,0.0,0.0,0.0,0.0,0.0,0.0,0.0,0.0,0.0,0.0,0.0,0.0,0.0,0.0,0.0,0.0,0.0,0.0,0.0,0.0,0.0,0.0,0.0,0.0,0.0,0.0,0.0,0.0,0.0,0.0,0.0,0.0,0.0,0.0,0.0,0.0,0.0,0.0,0.0,0.0,0.0,0.0,0.0,0.0,0.0,0.0,0.0,0.0,0.0,0.0,0.0,0.0,0.0,0.0,0.0,0.0,0.0,0.0,0.0,0.0,0.0,0.0,0.0,0.0,0.0,0.0,0.0,0.0,0.0,0.0,0.0,0.0,0.0,0.0,0.0,0.0,0.0,0.0,0.0,0.0,0.0,0.0,0.0,0.0,0.0,0.0,0.0,0.0,0.0,0.0,0.0,0.0,0.0,0.0,0.0,0.0,0.0,0.0,0.0,0.0,0.0,0.0,0.0,0.0,0.0,0.0,0.0,0.0,0.0,0.0,0.0,0.0,0.0,0.0,0.0,0.0,0.0,0.0,0.0,0.0,0.0,0.0,0.0,0.0,0.0,0.0,0.0,0.0,0.0,0.0,0.0,0.0,0.0,0.0,0.0,0.0,0.0,0.0,0.0,0.0,0.0,0.0,0.0,0.0,0.0,0.0,0.0,0.0,0.0,0.0,0.0,0.0,0.0,0.0,0.0,0.0,0.0,0.0,0.0,0.0,0.0,0.0,0.0,0.0,0.0,0.0,0.0,0.0,0.0,0.0,0.0,0.0,0.0,0.0,0.0,0.0,0.0,0.0,0.0,0.0,0.0,0.0,0.0,0.0,0.0,0.0,0.0,0.0,0.0,0.0,0.0,0.0,0.0,0.0,0.0,0.0,0.0,0.0,0.0,0.0,0.0,0.0,0.0,0.0,0.0,0.0,0.0,0.0,0.0,0.0,0.0,0.0,0.0,0.0,0.0,0.0,0.0,0.0,0.0,0.0,0.0,0.0,0.0,0.0,0.0,0.0,0.0,0.0,0.0,0.0,0.0,0.0,0.0,0.0,0.0,0.0,0.0,0.0,0.0,0.0,0.0,0.0,0.0,0.0,0.0,0.0,0.0,0.0,0.0,0.0,0.0,0.0,0.0,0.0,0.0,0.0,0.0,0.0,0.0,0.0,0.0,0.0,0.0,0.0,0.0,0.0,0.0,0.0,0.0,0.0,0.0,0.0,0.0,0.0,0.0,0.0,0.0,0.0,0.0,0.0,0.0,0.0,0.0,0.0,0.0,0.0,0.0,0.0,0.0,0.0,0.0,0.0,0.0,0.0,0.0,0.0,0.0,0.0,0.0,0.0,0.0,0.0,0.0,0.0,0.0,0.0,0.0,0.0,0.0,0.0,0.0,0.0,0.0,0.0,0.0,0.0,0.0,0.0,0.0,0.0,0.0,0.0,0.0,0.0,0.0,0.0,0.0,0.0,0.0,0.0,0.0,0.0,0.0,0.0,0.0,0.0,0.0,0.0,0.0,0.0,0.0,0.0,0.0,0.0,0.0,0.0,0.0,0.0,0.0,0.0,0.0,0.0,0.0,0.0,0.0,0.0,0.0,0.0,0.0,0.0,0.0,0.0,0.0,0.0,0.0,0.0,0.0,0.0,0.0,0.0,0.0,0.0,0.0,0.0,0.0,0.0,0.0,0.0,0.0,0.0,0.0,0.0,0.0,0.0,0.0,0.0,0.0,0.0,0.0,0.0,0.0,0.0,0.0,0.0,0.0,0.0,0.0,0.0,0.0,0.0,0.0,0.0,0.0,0.0,0.0,0.0,0.0,0.0,0.0,0.0,0.0,0.0,0.0,0.0,0.0,0.0,0.0,0.0,0.0,0.0,0.0,0.0,0.0,0.0,0.0,0.0,0.0,0.0,0.0,0.0,0.0,0.0,0.0,0.0,0.0,0.0,0.0,0.0,0.0,0.0,0.0,0.0,0.0,0.0,0.0,0.0,0.0,0.0,0.0,0.0,0.0,0.0,0.0,0.0,0.0,0.0,0.0,0.0,0.0,0.0,0.0,0.0,0.0,0.0,0.0,0.0,0.0,0.0,0.0,0.0,0.0,0.0,0.0,0.0,0.0,0.0,0.0,0.0,0.0,0.0,0.0,0.0,0.0,0.0,0.0,0.0,0.0,0.0,0.0,0.0,0.0,0.0,0.0,0.0,0.0,0.0,0.0,0.0,0.0,0.0,0.0,0.0,0.0,0.0,0.0,0.0,0.0,0.0,0.0,0.0,0.0,0.0,0.0,0.0,0.0,0.0,0.0,0.0,0.0,0.0,0.0,0.0,0.0,0.0,0.0,0.0,0.0,0.0,0.0,0.0,0.0,0.0,0.0,0.0,0.0,0.0,0.0,0.0,0.0,0.0,0.0,0.0,0.0,0.0,0.0,0.0,0.0,0.0,0.0,0.0,0.0,0.0,0.0,0.0,0.0,0.0,0.0,0.0,0.0,0.0,0.0,0.0,0.0,0.0,0.0,0.0,0.0,0.0,0.0,0.0,0.0,0.0,0.0,0.0,0.0,0.0,0.0,0.0,0.0,0.0,0.0,0.0,0.0,0.0,0.0,0.0,0.0,0.0,0.0,0.0,0.0,0.0,0.0,0.0,0.0,0.0,0.0,0.0,0.0,0.0,0.0,0.0,0.0,0.0,0.0,0.0,0.0,0.0,0.0,0.0,0.0,0.0,0.0,0.0,0.0,0.0,0.0,0.0,0.0,0.0,0.0,0.0,0.0,0.0,0.0,0.0,0.0,0.0,0.0,0.0,0.0,0.0,0.0,0.0,0.0,0.0,0.0,0.0,0.0,0.0,0.0,0.0,0.0,0.0,0.0,0.0,0.0,0.0,0.0,0.0,0.0,0.0,0.0,0.0,0.0,0.0,0.0,0.0,0.0,0.0,0.0,0.0,0.0,0.0,0.0,0.0,0.0,0.0,0.0,0.0,0.0,0.0,0.0,0.0,0.0,0.0,0.0,0.0,0.0,0.0,0.0,0.0,0.0,0.0,0.0,0.0,0.0,0.0,0.0,0.0,0.0,0.0,0.0,0.0,0.0,0.0,0.0,0.0,0.0,0.0,0.0,0.0,0.0,0.0,0.0,0.0,0.0,0.0,0.0,0.0,0.0,0.0,0.0,0.0,0.0,0.0,0.0,0.0,0.0,0.0,0.0,0.0,0.0,0.0,0.0,0.0,0.0,0.0,0.0,0.0,0.0,0.0,0.0,0.0,0.0,0.0,0.0,0.0,0.0,0.0,0.0,0.0,0.0,0.0,0.0,0.0,0.0,0.0,0.0,0.0,0.0,0.0,0.0,0.0,0.0,0.0,0.0,0.0,0.0,0.0,0.0,0.0,0.0,0.0,0.0,0.0,0.0,-0.9017,0.0,0.0,0.0,-0.8675,0.0,0.0,0.0,0.0,0.0,0.0,0.0,0.0,0.0,0.0,0.0,0.0,0.0,0.0,0.0,0.0,0.0,0.0,0.0,0.0,0.0,0.0,0.0,0.0,0.0,0.0,0.0,0.0,0.0,0.0,0.0,0.0,0.0,0.0,0.0,0.0,0.0,0.0,0.0,0.0,0.0,0.0,0.0,0.0,0.0,0.0,0.0,0.0,0.0,0.0,0.0,0.0,0.0,0.0,0.0,0.0,0.0,0.0,0.0,0.0,0.0,0.0,0.0,0.0,0.0,0.0,0.0,0.0,0.0,0.0,0.0,0.0,0.0,0.0,0.0,0.0,0.0,0.0,0.0,0.0,0.0,0.0,0.0,0.0,0.0,0.0,0.0,0.0,0.0,0.0,0.0,0.0,0.0,0.0,0.0,0.0,0.0,0.0,0.0,0.0,0.0,0.0,0.0,0.0,0.0,0.0,0.0,0.0,0.0,0.0,-0.9628,-0.9192,-0.8886,-0.8844,-0.9078,0.0,0.0,0.0,0.0,0.0,0.0,0.0,0.0,0.0,0.0,0.0,0.0,0.0,0.0,0.0,0.0,0.0,0.0,0.0,0.0,0.0,0.0,0.0,0.0,0.0,0.0,0.0,0.0,0.0,0.0,0.0,0.0,0.0,0.0,0.0,0.0,0.0,0.0,0.0,0.0,0.0,0.0,0.0,0.0,0.0,0.0,0.0,0.0,0.0,0.0,0.0,0.0,0.0,0.0,0.0,0.0,0.0,0.0,0.0,0.0,0.0,0.0,0.0,0.0,0.0,0.0,0.0,0.0,0.0,0.0,0.0,0.0,0.0,0.0,0.0,0.0,0.0,0.0,0.0,0.0,0.0,0.0,0.0,0.0,0.0,0.0,0.0,0.0,0.0,0.0,0.0,0.0,0.0,0.0,0.0,0.0,0.0,0.0,0.0,0.0,0.0,0.0,0.0,0.0,0.0,0.0,0.0,0.0,0.0,0.0,0.0,0.0,-0.9631,-0.9516,-0.9525,0.0,0.0,0.0,0.0,0.0,0.0,0.0,0.0,0.0,0.0,0.0,0.0,0.0,0.0,0.0,0.0,0.0,0.0,0.0,0.0,0.0,0.0,0.0,0.0,0.0,0.0,0.0,0.0,0.0,0.0,0.0,0.0,0.0,0.0,0.0,0.0,0.0,0.0,0.0,0.0,0.0,0.0,0.0,0.0,0.0,0.0,0.0,0.0,0.0,0.0,0.0,0.0,0.0,0.0,0.0,0.0,0.0,0.0,0.0,0.0,0.0,0.0,0.0,0.0,0.0,0.0,0.0,0.0,0.0,0.0,0.0,0.0,0.0,0.0,0.0,0.0,0.0,0.0,0.0,0.0,0.0,0.0,0.0,0.0,0.0,0.0,0.0,0.0,0.0,0.0,0.0,0.0,0.0,0.0,0.0,0.0,0.0,0.0,0.0,0.0,0.0,0.0,0.0,0.0,0.0,0.0,0.0,0.0,0.0,0.0,-1.1421,-1.1826,-1.094,0.0,-1.0493,0.0,0.0,0.0,0.0,0.0,0.0,0.0,0.0,0.0,0.0,0.0,0.0,0.0,0.0,0.0,0.0,0.0,0.0,0.0,0.0,0.0,0.0,0.0,0.0,0.0,0.0,0.0,0.0,0.0,0.0,0.0,0.0,0.0,0.0,0.0,0.0,0.0,0.0,0.0,0.0,0.0,0.0,0.0,0.0,0.0,0.0,0.0,0.0,0.0,0.0,0.0,0.0,0.0,0.0,0.0,0.0,0.0,0.0,0.0,0.0,0.0,0.0,0.0,0.0,0.0,0.0,0.0,0.0,0.0,0.0,0.0,0.0,0.0,0.0,0.0,0.0,0.0,0.0,0.0,0.0,0.0,0.0,0.0,0.0,0.0,0.0,0.0,0.0,0.0,0.0,0.0,0.0,0.0,0.0,0.0,0.0,0.0,0.0,0.0,0.0,0.0,0.0,0.0,0.0,0.0,0.0,0.0,0.0,0.0,0.0,-1.165,-1.1878,-1.1297,-1.1103,0.0,0.0,0.0,0.0,0.0,0.0,0.0,0.0,0.0,0.0,0.0,0.0,0.0,0.0,0.0,0.0,0.0,0.0,0.0,0.0,0.0,0.0,0.0,0.0,0.0,0.0,0.0,0.0,0.0,0.0,0.0,0.0,0.0,0.0,0.0,0.0,0.0,0.0,0.0,0.0,0.0,0.0,0.0,0.0,0.0,0.0,0.0,0.0,0.0,0.0,0.0,0.0,0.0,0.0,0.0,0.0,0.0,0.0,0.0,0.0,0.0,0.0,0.0,0.0,0.0,0.0,0.0,0.0,0.0,0.0,0.0,0.0,0.0,0.0,0.0,0.0,0.0,0.0,0.0,0.0,0.0,0.0,0.0,0.0,0.0,0.0,0.0,0.0,0.0,0.0,0.0,0.0,0.0,0.0,0.0,0.0,0.0,0.0,0.0,0.0,0.0,0.0,0.0,0.0,0.0,0.0,0.0,0.0,0.0,0.0,-1.1673,-1.1725,-1.1779,-1.1451,-1.1356,-1.1499,0.0,0.0,0.0,0.0,0.0,0.0,0.0,0.0,0.0,0.0,0.0,0.0,0.0,0.0,0.0,0.0,0.0,0.0,0.0,0.0,0.0,0.0,0.0,0.0,0.0,0.0,0.0,0.0,0.0,0.0,0.0,0.0,0.0,0.0,0.0,0.0,0.0,0.0,0.0,0.0,0.0,0.0,0.0,0.0,0.0,0.0,0.0,0.0,0.0,0.0,0.0,0.0,0.0,0.0,0.0,0.0,0.0,0.0,0.0,0.0,0.0,0.0,0.0,0.0,0.0,0.0,0.0,0.0,0.0,0.0,0.0,0.0,0.0,0.0,0.0,0.0,0.0,0.0,0.0,0.0,0.0,0.0,0.0,0.0,0.0,0.0,0.0,0.0,0.0,0.0,0.0,0.0,0.0,0.0,0.0,0.0,0.0,0.0,0.0,0.0,0.0,0.0,0.0,0.0,0.0,0.0,0.0,0.0,-1.2253,-1.1898,-1.1811,-1.2027,-1.1456,-1.1069,0.0,0.0,0.0,0.0,0.0,0.0,0.0,0.0,0.0,0.0,0.0,0.0,0.0,0.0,0.0,0.0,0.0,0.0,0.0,0.0,0.0,0.0,0.0,0.0,0.0,0.0,0.0,0.0,0.0,0.0,0.0,0.0,0.0,0.0,0.0,0.0,0.0,0.0,0.0,0.0,0.0,0.0,0.0,0.0,0.0,0.0,0.0,0.0,0.0,0.0,0.0,0.0,0.0,0.0,0.0,0.0,0.0,0.0,0.0,0.0,0.0,0.0,0.0,0.0,0.0,0.0,0.0,0.0,0.0,0.0,0.0,0.0,0.0,0.0,0.0,0.0,0.0,0.0,0.0,0.0,0.0,0.0,0.0,0.0,0.0,0.0,0.0,0.0,0.0,0.0,0.0,0.0,0.0,0.0,0.0,0.0,0.0,0.0,0.0,0.0,0.0,0.0,0.0,0.0,0.0,0.0,0.0,0.0,0.0,-1.1193,-1.1261,-1.1428,-1.1762,-1.1131,-1.0759,0.0,0.0,0.0,0.0,0.0,0.0,0.0,0.0,0.0,0.0,0.0,0.0,0.0,0.0,0.0,0.0,0.0,0.0,0.0,0.0,0.0,0.0,0.0,0.0,0.0,0.0,0.0,0.0,0.0,0.0,0.0,0.0,0.0,0.0,0.0,0.0,0.0,0.0,0.0,0.0,0.0,0.0,0.0,0.0,0.0,0.0,0.0,0.0,0.0,0.0,0.0,0.0,0.0,0.0,0.0,0.0,0.0,0.0,0.0,0.0,0.0,0.0,0.0,0.0,0.0,0.0,0.0,0.0,0.0,0.0,0.0,0.0,0.0,0.0,0.0,0.0,0.0,0.0,0.0,0.0,0.0,0.0,0.0,0.0,0.0,0.0,0.0,0.0,0.0,0.0,0.0,0.0,0.0,0.0,0.0,0.0,0.0,0.0,0.0,0.0,0.0,0.0,0.0,0.0,0.0,0.0,0.0,0.0,0.0,-1.0939,0.0,-1.131,-1.1586,-1.0924,-1.0449,0.0,0.0,0.0,0.0,0.0,0.0,0.0,0.0,0.0,0.0,0.0,0.0,0.0,0.0,0.0,0.0,0.0,0.0,0.0,0.0,0.0,0.0,0.0,0.0,0.0,0.0,0.0,0.0,0.0,0.0,0.0,0.0,0.0,0.0,0.0,0.0,0.0,0.0,0.0,0.0,0.0,0.0,0.0,0.0,0.0,0.0,0.0,0.0,0.0,0.0,0.0,0.0,0.0,0.0,0.0,0.0,0.0,0.0,0.0,0.0,0.0,0.0,0.0,0.0,0.0,0.0,0.0,0.0,0.0,0.0,0.0,0.0,0.0,0.0,0.0,0.0,0.0,0.0,0.0,0.0,0.0,0.0,0.0,0.0,0.0,0.0,0.0,0.0,0.0,0.0,0.0,0.0,0.0,0.0,0.0,0.0,0.0,0.0,0.0,0.0,0.0,0.0,0.0,0.0,0.0,0.0,0.0,0.0,-1.0897,-1.1618,-1.1549,-1.1533,-1.1691,-1.0835,-1.0263,0.0,0.0,0.0,0.0,0.0,0.0,0.0,0.0,0.0,0.0,0.0,0.0,0.0,0.0,0.0,0.0,0.0,0.0,0.0,0.0,0.0,0.0,0.0,0.0,0.0,0.0,0.0,0.0,0.0,0.0,0.0,0.0,0.0,0.0,0.0,0.0,0.0,0.0,0.0,0.0,0.0,0.0,0.0,0.0,0.0,0.0,0.0,0.0,0.0,0.0,0.0,0.0,0.0,0.0,0.0,0.0,0.0,0.0,0.0,0.0,0.0,0.0,0.0,0.0,0.0,0.0,0.0,0.0,0.0,0.0,0.0,0.0,0.0,0.0,0.0,0.0,0.0,0.0,0.0,0.0,0.0,0.0,0.0,0.0,0.0,0.0,0.0,0.0,0.0,0.0,0.0,0.0,0.0,0.0,0.0,0.0,0.0,0.0,0.0,0.0,0.0,0.0,0.0,0.0,0.0,0.0,0.0,0.0,0.0,-1.1138,-1.1453,-1.1538,-1.1348,-1.0842,-1.0481,0.0,0.0,0.0,0.0,0.0,0.0,0.0,0.0,0.0,0.0,0.0,0.0,0.0,0.0,0.0,0.0,0.0,0.0,0.0,0.0,0.0,0.0,0.0,0.0,0.0,0.0,0.0,0.0,0.0,0.0,0.0,0.0,0.0,0.0,0.0,0.0,0.0,0.0,0.0,0.0,0.0,0.0,0.0,0.0,0.0,0.0,0.0,0.0,0.0,0.0,0.0,0.0,0.0,0.0,0.0,0.0,0.0,0.0,0.0,0.0,0.0,0.0,0.0,0.0,0.0,0.0,0.0,0.0,0.0,0.0,0.0,0.0,0.0,0.0,0.0,0.0,0.0,0.0,0.0,0.0,0.0,0.0,0.0,0.0,0.0,0.0,0.0,0.0,0.0,0.0,0.0,0.0,0.0,0.0,0.0,0.0,0.0,0.0,0.0,0.0,0.0,0.0,0.0,0.0,0.0,0.0,0.0,0.0,0.0,-1.2004,-1.1874,-1.1608,-1.1152,-1.0804,-1.0643,-1.0552,0.0,0.0,0.0,0.0,0.0,0.0,0.0,0.0,0.0,0.0,0.0,0.0,0.0,0.0,0.0,0.0,0.0,0.0,0.0,0.0,0.0,0.0,0.0,0.0,0.0,0.0,0.0,0.0,0.0,0.0,0.0,0.0,0.0,0.0,0.0,0.0,0.0,0.0,0.0,0.0,0.0,0.0,0.0,0.0,0.0,0.0,0.0,0.0,0.0,0.0,0.0,0.0,0.0,0.0,0.0,0.0,0.0,0.0,0.0,0.0,0.0,0.0,0.0,0.0,0.0,0.0,0.0,0.0,0.0,0.0,0.0,0.0,0.0,0.0,0.0,0.0,0.0,0.0,0.0,0.0,0.0,0.0,0.0,0.0,0.0,0.0,0.0,0.0,0.0,0.0,0.0,0.0,0.0,0.0,0.0,0.0,0.0,0.0,0.0,0.0,0.0,0.0,0.0,0.0,0.0,0.0,0.0,0.0,-1.3773,-1.2773,-1.2007,-1.1337,-1.1042,-1.079,0.0,0.0,0.0,0.0,0.0,0.0,0.0,0.0,0.0,0.0,0.0,0.0,0.0,0.0,0.0,0.0,0.0,0.0,0.0,0.0,0.0,0.0,0.0,0.0,0.0,0.0,0.0,0.0,0.0,0.0,0.0,0.0,0.0,0.0,0.0,0.0,0.0,0.0,0.0,0.0,0.0,0.0,0.0,0.0,0.0,0.0,0.0,0.0,0.0,0.0,0.0,0.0,0.0,0.0,0.0,0.0,0.0,0.0,0.0,0.0,0.0,0.0,0.0,0.0,0.0,0.0,0.0,0.0,0.0,0.0,0.0,0.0,0.0,0.0,0.0,0.0,0.0,0.0,0.0,0.0,0.0,0.0,0.0,0.0,0.0,0.0,0.0,0.0,0.0,0.0,0.0,0.0,0.0,0.0,0.0,0.0,0.0,0.0,0.0,0.0,0.0,0.0,0.0,0.0,0.0,0.0,0.0,0.0,0.0,-1.3625,-1.4131,-1.4411,-1.4386,-1.3164,-1.2443,0.0,0.0,0.0,0.0,0.0,0.0,0.0,0.0,0.0,0.0,0.0,0.0,0.0,0.0,0.0,0.0,0.0,0.0,0.0,0.0,0.0,0.0,0.0,0.0,0.0,0.0,0.0,0.0,0.0,0.0,0.0,0.0,0.0,0.0,0.0,0.0,0.0,0.0,0.0,0.0,0.0,0.0,0.0,0.0,0.0,0.0,0.0,0.0,0.0,0.0,0.0,0.0,0.0,0.0,0.0,0.0,0.0,0.0,0.0,0.0,0.0,0.0,0.0,0.0,0.0,0.0,0.0,0.0,0.0,0.0,0.0,0.0,0.0,0.0,0.0,0.0,0.0,0.0,0.0,0.0,0.0,0.0,0.0,0.0,0.0,0.0,0.0,0.0,0.0,0.0,0.0,0.0,0.0,0.0,0.0,0.0,0.0,0.0,0.0,0.0,0.0,0.0,0.0,0.0,0.0,0.0,0.0,0.0,-1.4658,-1.4855,-1.5974,-1.6717,-1.6947,-1.4727,-1.338,0.0,0.0,0.0,0.0,0.0,0.0,0.0,0.0,0.0,0.0,0.0,0.0,0.0,0.0,0.0,0.0,0.0,0.0,0.0,0.0,0.0,0.0,0.0,0.0,0.0,0.0,0.0,0.0,0.0,0.0,0.0,0.0,0.0,0.0,0.0,0.0,0.0,0.0,0.0,0.0,0.0,0.0,0.0,0.0,0.0,0.0,0.0,0.0,0.0,0.0,0.0,0.0,0.0,0.0,0.0,0.0,0.0,0.0,0.0,0.0,0.0,0.0,0.0,0.0,0.0,0.0,0.0,0.0,0.0,0.0,0.0,0.0,0.0,0.0,0.0,0.0,0.0,0.0,0.0,0.0,0.0,0.0,0.0,0.0,0.0,0.0,0.0,0.0,0.0,0.0,0.0,0.0,0.0,0.0,0.0,0.0,0.0,0.0,0.0,0.0,0.0,0.0,0.0,0.0,0.0,0.0,0.0,0.0,-1.5863,-1.6819,-1.797,-1.8627,-1.8724,-1.5934,-1.3926,0.0,0.0,0.0,0.0,0.0,0.0,0.0,0.0,0.0,0.0,0.0,0.0,0.0,0.0,0.0,0.0,0.0,0.0,0.0,0.0,0.0,0.0,0.0,0.0,0.0,0.0,0.0,0.0,0.0,0.0,0.0,0.0,0.0,0.0,0.0,0.0,0.0,0.0,0.0,0.0,0.0,0.0,0.0,0.0,0.0,0.0,0.0,0.0,0.0,0.0,0.0,0.0,0.0,0.0,0.0,0.0,0.0,0.0,0.0,0.0,0.0,0.0,0.0,0.0,0.0,0.0,0.0,0.0,0.0,0.0,0.0,0.0,0.0,0.0,0.0,0.0,0.0,0.0,0.0,0.0,0.0,0.0,0.0,0.0,0.0,0.0,0.0,0.0,0.0,0.0,0.0,0.0,0.0,0.0,0.0,0.0,0.0,0.0,0.0,0.0,0.0,0.0,0.0,0.0,0.0,0.0,0.0,0.0,-1.6759,-1.7585,-1.8649,-1.9112,-1.8789,-1.6551,-1.5125,0.0,0.0,0.0,0.0,0.0,0.0,0.0,0.0,0.0,0.0,0.0,0.0,0.0,0.0,0.0,0.0,0.0,0.0,0.0,0.0,0.0,0.0,0.0,0.0,0.0,0.0,0.0,0.0,0.0,0.0,0.0,0.0,0.0,0.0,0.0,0.0,0.0,0.0,0.0,0.0,0.0,0.0,0.0,0.0,0.0,0.0,0.0,0.0,-0.3099,0.0,0.0,0.0,0.0,0.0,0.0,0.0,0.0,0.0,0.0,0.0,0.0,0.0,0.0,0.0,0.0,0.0,0.0,0.0,0.0,0.0,0.0,0.0,0.0,0.0,0.0,0.0,0.0,0.0,0.0,0.0,0.0,0.0,0.0,0.0,0.0,0.0,0.0,0.0,0.0,0.0,0.0,0.0,0.0,0.0,0.0,0.0,0.0,0.0,0.0,0.0,0.0,0.0,0.0,0.0,0.0,0.0,0.0,0.0,-1.7143,-1.795,-1.8981,-1.9381,-1.9068,-1.7378,-1.5957,0.0,0.0,0.0,0.0,0.0,0.0,0.0,0.0,0.0,0.0,0.0,0.0,0.0,0.0,0.0,0.0,0.0,0.0,0.0,0.0,0.0,0.0,0.0,0.0,0.0,0.0,0.0,0.0,0.0,0.0,0.0,0.0,0.0,0.0,0.0,0.0,0.0,0.0,0.0,0.0,0.0,0.0,0.0,0.0,0.0,0.0,0.0,0.0,0.0,0.0,0.0,0.0,0.0,0.0,0.0,0.0,0.0,0.0,0.0,0.0,0.0,0.0,0.0,0.0,0.0,0.0,0.0,0.0,0.0,0.0,0.0,0.0,0.0,0.0,0.0,0.0,0.0,0.0,0.0,0.0,0.0,0.0,0.0,0.0,0.0,0.0,0.0,0.0,0.0,0.0,0.0,0.0,0.0,0.0,0.0,0.0,0.0,0.0,0.0,0.0,0.0,0.0,0.0,0.0,0.0,0.0,0.0,-1.5829,-1.7222,-1.8217,-1.909,-1.9531,-1.9478,-1.8157,-1.661,-1.4719,0.0,0.0,0.0,0.0,0.0,0.0,0.0,0.0,0.0,0.0,0.0,0.0,0.0,0.0,0.0,0.0,0.0,0.0,0.0,0.0,0.0,0.0,0.0,0.0,0.0,0.0,0.0,0.0,0.0,0.0,0.0,0.0,0.0,0.0,0.0,0.0,0.0,0.0,-0.6705,-0.6385,0.0,0.0,0.0,0.0,0.0,0.0,0.0,0.0,-0.3592,0.0,0.0,0.0,0.0,0.0,0.0,0.0,0.0,0.0,0.0,0.0,0.0,0.0,0.0,0.0,0.0,0.0,0.0,0.0,0.0,0.0,0.0,0.0,0.0,0.0,0.0,0.0,0.0,0.0,0.0,0.0,0.0,0.0,0.0,0.0,0.0,0.0,0.0,0.0,0.0,0.0,0.0,0.0,0.0,0.0,0.0,0.0,0.0,0.0,0.0,0.0,0.0,0.0,0.0,0.0,0.0,-1.5316,-1.6206,-1.7377,-1.8639,-1.9433,-1.9768,-1.9467,-1.8336,-1.7026,-1.5448,0.0,0.0,0.0,0.0,0.0,0.0,0.0,0.0,0.0,0.0,0.0,0.0,0.0,0.0,0.0,0.0,0.0,0.0,0.0,0.0,0.0,0.0,0.0,0.0,0.0,0.0,0.0,0.0,0.0,0.0,0.0,0.0,0.0,0.0,0.0,0.0,0.0,0.0,0.0,-0.6873,-0.6637,0.0,0.0,0.0,0.0,0.0,0.0,0.0,0.0,-0.313,0.0,0.0,0.0,0.0,0.0,0.0,0.0,0.0,0.0,0.0,0.0,0.0,0.0,0.0,0.0,0.0,0.0,0.0,0.0,0.0,0.0,0.0,0.0,0.0,0.0,0.0,0.0,0.0,0.0,0.0,0.0,0.0,0.0,0.0,0.0,0.0,0.0,0.0,0.0,0.0,0.0,0.0,0.0,0.0,0.0,0.0,0.0,0.0,0.0,0.0,0.0,0.0,0.0,0.0,0.0,-1.4831,-1.6285,-1.7591,-1.8552,-1.9176,-1.9435,-1.9295,-1.797,-1.6702,0.0,0.0,0.0,0.0,0.0,0.0,0.0,0.0,0.0,0.0,0.0,0.0,0.0,0.0,0.0,0.0,0.0,0.0,0.0,0.0,0.0,0.0,0.0,0.0,0.0,0.0,0.0,0.0,0.0,0.0,0.0,0.0,0.0,0.0,0.0,0.0,0.0,0.0,0.0,0.0,-0.6754,-0.6014,-0.5943,0.0,0.0,0.0,0.0,0.0,0.0,-0.3148,-0.3242,0.0,0.0,0.0,0.0,0.0,0.0,0.0,0.0,0.0,0.0,0.0,0.0,0.0,0.0,0.0,0.0,0.0,0.0,0.0,0.0,0.0,0.0,0.0,0.0,0.0,0.0,0.0,0.0,0.0,0.0,0.0,0.0,0.0,0.0,0.0,0.0,0.0,0.0,0.0,0.0,0.0,0.0,0.0,0.0,0.0,0.0,0.0,0.0,0.0,0.0,0.0,0.0,0.0,0.0,0.0,-1.4327,-1.6211,-1.7597,-1.8379,-1.8835,-1.905,-1.8974,-1.7609,-1.6486,0.0,0.0,0.0,0.0,0.0,0.0,0.0,0.0,0.0,0.0,0.0,0.0,0.0,0.0,0.0,0.0,0.0,0.0,0.0,0.0,0.0,0.0,0.0,0.0,0.0,0.0,0.0,0.0,0.0,0.0,0.0,0.0,0.0,0.0,0.0,0.0,0.0,0.0,0.0,0.0,0.0,-0.5533,-0.5827,-0.4589,0.0,0.0,0.0,0.0,-0.3364,-0.3136,0.0,0.0,0.0,0.0,0.0,0.0,0.0,0.0,0.0,0.0,0.0,0.0,0.0,0.0,0.0,0.0,0.0,0.0,0.0,0.0,0.0,0.0,0.0,0.0,0.0,0.0,0.0,0.0,0.0,0.0,0.0,0.0,0.0,0.0,0.0,0.0,0.0,0.0,0.0,0.0,0.0,0.0,0.0,0.0,0.0,0.0,0.0,0.0,0.0,0.0,0.0,0.0,0.0,0.0,0.0,0.0,-1.4833,-1.5894,-1.7063,-1.8358,-1.8824,-1.8974,-1.881,-1.7905,-1.6854,0.0,0.0,0.0,0.0,0.0,0.0,0.0,0.0,0.0,0.0,0.0,0.0,0.0,0.0,0.0,0.0,0.0,0.0,0.0,0.0,0.0,0.0,0.0,0.0,0.0,0.0,0.0,0.0,0.0,0.0,0.0,0.0,0.0,0.0,0.0,0.0,0.0,0.0,0.0,0.0,0.0,-0.6206,-0.5546,-0.4568,-0.3838,0.0,0.0,-0.256,-0.2777,-0.2026,0.0,0.0,0.0,0.0,0.0,0.0,0.0,0.0,0.0,0.0,0.0,0.0,0.0,0.0,0.0,0.0,0.0,0.0,0.0,0.0,0.0,0.0,0.0,0.0,0.0,0.0,0.0,0.0,0.0,0.0,0.0,0.0,0.0,0.0,0.0,0.0,0.0,0.0,0.0,0.0,0.0,0.0,0.0,0.0,0.0,0.0,0.0,0.0,0.0,0.0,0.0,0.0,0.0,0.0,0.0,-1.3582,-1.4808,-1.5946,-1.7022,-1.7981,-1.8159,-1.8358,-1.839,-1.7157,-1.6046,0.0,0.0,0.0,0.0,0.0,0.0,0.0,0.0,0.0,0.0,0.0,0.0,0.0,0.0,0.0,0.0,0.0,0.0,0.0,0.0,0.0,0.0,0.0,0.0,0.0,0.0,0.0,0.0,0.0,0.0,0.0,0.0,0.0,0.0,0.0,0.0,0.0,0.0,0.0,0.0,0.0,0.0,-0.4644,-0.3788,0.0,0.0,0.0,-0.2637,-0.3018,0.0,0.0,0.0,0.0,0.0,0.0,0.0,0.0,0.0,0.0,0.0,0.0,0.0,0.0,0.0,0.0,0.0,0.0,0.0,0.0,0.0,0.0,0.0,0.0,0.0,0.0,0.0,0.0,0.0,0.0,0.0,0.0,0.0,0.0,0.0,0.0,0.0,0.0,0.0,0.0,0.0,0.0,0.0,0.0,0.0,0.0,0.0,0.0,0.0,0.0,0.0,0.0,0.0,0.0,0.0,0.0,0.0,-1.4954,-1.6076,-1.698,-1.7615,-1.769,-1.7787,-1.7873,-1.6669,0.0,0.0,0.0,0.0,0.0,0.0,0.0,0.0,0.0,0.0,0.0,0.0,0.0,0.0,0.0,0.0,0.0,0.0,0.0,0.0,0.0,0.0,0.0,0.0,0.0,0.0,0.0,-0.5758,0.0,0.0,0.0,0.0,0.0,0.0,0.0,0.0,0.0,0.0,0.0,0.0,0.0,0.0,-0.4221,-0.4224,-0.3234,-0.2444,0.0,0.0,-0.2595,-0.291,-0.1762,-0.1303,0.0,0.0,0.0,0.0,0.0,0.0,0.0,0.0,0.0,0.0,0.0,0.0,0.0,0.0,0.0,0.0,0.0,0.0,0.0,0.0,0.0,0.0,0.0,0.0,0.0,0.0,0.0,0.0,0.0,0.0,0.0,0.0,0.0,0.0,0.0,0.0,0.0,0.0,0.0,0.0,0.0,0.0,0.0,0.0,0.0,0.0,0.0,0.0,0.0,0.0,0.0,0.0,0.0,0.0,-1.4372,-1.5579,-1.6332,-1.6969,-1.7389,-1.7604,-1.7626,-1.7487,-1.6919,-1.5987,0.0,0.0,0.0,0.0,0.0,0.0,0.0,0.0,0.0,0.0,0.0,0.0,0.0,0.0,0.0,0.0,0.0,0.0,0.0,0.0,0.0,0.0,0.0,0.0,0.0,0.0,0.0,0.0,0.0,0.0,0.0,0.0,0.0,0.0,0.0,0.0,0.0,0.0,0.0,0.0,0.0,-0.4798,-0.4929,-0.3455,-0.2134,0.0,-0.2013,-0.2136,-0.169,-0.0754,-0.0526,-0.1835,0.0,0.0,0.0,0.0,0.0,0.0,0.0,0.0,0.0,0.0,0.0,0.0,0.0,0.0,0.0,0.0,0.0,0.0,0.0,0.0,0.0,0.0,0.0,0.0,0.0,0.0,0.0,0.0,0.0,0.0,0.0,0.0,0.0,0.0,0.0,0.0,0.0,0.0,0.0,0.0,0.0,0.0,0.0,0.0,0.0,0.0,0.0,0.0,0.0,0.0,0.0,0.0,0.0,-1.4621,-1.589,-1.6315,-1.6678,-1.713,-1.7238,-1.7173,-1.7012,-1.6797,-1.5907,0.0,0.0,0.0,0.0,0.0,0.0,0.0,0.0,0.0,0.0,0.0,0.0,0.0,0.0,0.0,0.0,0.0,0.0,0.0,0.0,0.0,0.0,0.0,0.0,0.0,0.0,0.0,0.0,-0.6867,-0.7002,-0.6894,0.0,0.0,0.0,0.0,0.0,0.0,0.0,0.0,0.0,0.0,-0.3819,-0.2835,-0.2109,0.0,0.0,-0.1481,-0.1685,-0.1814,-0.1088,-0.0933,-0.1955,-0.2205,0.0,0.0,0.0,0.0,0.0,0.0,0.0,0.0,0.0,0.0,0.0,0.0,0.0,0.0,0.0,0.0,0.0,0.0,0.0,0.0,0.0,0.0,0.0,0.0,0.0,0.0,0.0,0.0,0.0,0.0,0.0,0.0,0.0,0.0,0.0,0.0,0.0,0.0,0.0,0.0,0.0,0.0,0.0,0.0,0.0,0.0,0.0,0.0,0.0,0.0,0.0,0.0,-1.4889,-1.6106,-1.6258,-1.6538,-1.699,-1.7001,-1.6926,-1.6828,-1.675,-1.5979,0.0,0.0,0.0,0.0,0.0,0.0,0.0,0.0,0.0,0.0,0.0,0.0,0.0,0.0,0.0,0.0,0.0,0.0,0.0,0.0,0.0,0.0,0.0,0.0,0.0,0.0,0.0,0.0,-0.7156,-0.718,-0.7042,0.0,0.0,0.0,0.0,0.0,0.0,0.0,0.0,0.0,0.0,-0.3085,-0.2345,-0.1921,-0.1674,-0.1612,-0.1818,-0.2013,-0.212,-0.1601,-0.1443,-0.1953,0.0,0.0,0.0,0.0,0.0,0.0,0.0,0.0,0.0,0.0,0.0,0.0,0.0,0.0,0.0,0.0,0.0,0.0,0.0,0.0,0.0,0.0,0.0,0.0,0.0,0.0,0.0,-1.8285,0.0,0.0,-1.8251,0.0,0.0,0.0,0.0,0.0,0.0,0.0,0.0,0.0,0.0,0.0,0.0,0.0,0.0,0.0,0.0,0.0,0.0,0.0,0.0,0.0,0.0,-1.5118,-1.6193,-1.629,-1.6549,-1.699,-1.7001,-1.7001,-1.698,-1.6828,-1.6197,-1.5186,0.0,0.0,0.0,0.0,0.0,0.0,0.0,0.0,0.0,0.0,0.0,0.0,0.0,0.0,0.0,0.0,0.0,0.0,0.0,0.0,0.0,0.0,0.0,0.0,0.0,0.0,-0.6733,-0.6943,-0.7029,0.0,0.0,0.0,0.0,0.0,0.0,0.0,0.0,0.0,-0.7207,-0.4521,-0.2881,-0.4086,-0.3263,-0.2555,-0.2869,-0.3187,-0.3183,-0.2486,-0.2178,-0.189,0.0,0.0,0.0,0.0,0.0,0.0,0.0,0.0,0.0,0.0,0.0,0.0,0.0,0.0,0.0,0.0,0.0,0.0,0.0,0.0,0.0,0.0,0.0,0.0,0.0,0.0,0.0,-2.0894,-2.0372,0.0,0.0,0.0,0.0,0.0,0.0,0.0,0.0,0.0,0.0,0.0,-2.2552,-2.2963,0.0,0.0,0.0,0.0,0.0,0.0,0.0,0.0,0.0,0.0,0.0,0.0,-1.5355,-1.6365,-1.6507,-1.67,-1.699,-1.7001,-1.6937,-1.6839,-1.67,-1.6154,-1.4965,0.0,0.0,0.0,0.0,0.0,0.0,0.0,0.0,0.0,0.0,0.0,0.0,0.0,0.0,0.0,0.0,0.0,0.0,0.0,0.0,0.0,0.0,0.0,0.0,0.0,-0.6789,0.0,0.0,0.0,0.0,0.0,0.0,0.0,0.0,0.0,0.0,-0.7411,-0.694,-0.6263,-0.5042,-0.4139,-0.3813,-0.2991,-0.2421,0.0,0.0,0.0,0.0,0.0,0.0,0.0,0.0,0.0,0.0,0.0,0.0,0.0,-0.2258,-0.2362,-0.3369,-0.3063,-0.257,-0.2508,0.0,0.0,0.0,0.0,0.0,0.0,0.0,0.0,0.0,0.0,0.0,0.0,0.0,0.0,-2.2744,-2.2107,-2.2315,0.0,0.0,0.0,0.0,0.0,0.0,0.0,0.0,-2.3669,-2.4453,-2.4675,-2.5042,-2.4957,-2.4326,-2.3216,-2.1156,0.0,0.0,0.0,0.0,0.0,0.0,0.0,0.0,-1.5595,-1.6675,-1.6691,-1.6775,-1.699,-1.7001,-1.6937,-1.6786,-1.671,-1.6288,-1.5475,-1.3767,-1.3058,0.0,0.0,0.0,0.0,0.0,0.0,0.0,0.0,0.0,0.0,0.0,0.0,0.0,0.0,0.0,0.0,0.0,0.0,0.0,0.0,0.0,0.0,0.0,-0.7004,0.0,0.0,0.0,0.0,0.0,0.0,0.0,0.0,0.0,-0.8151,-0.7583,-0.6788,-0.5921,-0.4792,-0.4055,-0.394,0.0,0.0,0.0,0.0,0.0,0.0,0.0,-0.3021,-0.3232,-0.2892,-0.2482,-0.2108,-0.1857,-0.1629,-0.1333,0.0,0.0,-0.2209,-0.1875,-0.144,-0.1373,-0.1528,-0.1542,-0.113,-0.0811,-0.062,0.0,0.0,0.0,0.0,-2.1967,0.0,0.0,0.0,-2.3935,-2.3851,0.0,-2.3846,0.0,0.0,0.0,0.0,-2.1496,-2.362,0.0,0.0,-2.7116,-2.7929,-2.6593,-2.6304,-2.5999,-2.5577,-2.3916,-2.2759,-2.2011,-2.0203,0.0,0.0,0.0,0.0,0.0,0.0,-1.5846,-1.7043,-1.6865,-1.6786,-1.699,-1.7001,-1.699,-1.6969,-1.6754,-1.6614,-1.6634,-1.5601,-1.5106,-1.5164,-1.325,0.0,0.0,0.0,0.0,0.0,0.0,0.0,0.0,0.0,0.0,0.0,0.0,0.0,0.0,0.0,0.0,0.0,0.0,0.0,0.0,-0.7212,0.0,0.0,0.0,0.0,0.0,0.0,0.0,0.0,0.0,-0.9328,-0.9063,-0.7439,-0.6245,-0.6339,0.0,0.0,0.0,0.0,-0.3388,-0.553,-0.512,-0.4441,-0.4322,-0.3607,-0.2839,-0.2122,0.0,0.0,0.0,-0.0724,-0.1088,-0.0354,0.0073,0.0,-0.0659,-0.0928,-0.0915,-0.0633,-0.0775,-0.0985,-0.0705,-0.0507,-0.0594,-2.6722,0.0,0.0,0.0,0.0,-2.4746,-2.5665,-2.6383,-2.6608,-2.6343,-2.5847,-2.5898,0.0,0.0,0.0,0.0,0.0,0.0,-2.5522,-2.6316,-2.6935,-2.7484,-2.8117,-2.7781,-2.7531,-2.7378,-2.6636,-2.6194,-2.5897,-2.4208,-2.1486,-1.7826,0.0,0.0,0.0,0.0,-1.6539,-1.6714,-1.6841,-1.6937,-1.7001,-1.7001,-1.684,-1.6527,-1.628,-1.6136,-1.5914,-1.4821,-1.4435,-1.4932,-1.3225,0.0,0.0,0.0,0.0,0.0,0.0,0.0,0.0,0.0,0.0,0.0,0.0,0.0,0.0,0.0,0.0,0.0,0.0,0.0,-0.7101,-0.7359,-0.754,0.0,0.0,0.0,0.0,0.0,0.0,0.0,0.0,0.0,-0.9379,-0.9102,-0.8596,0.0,0.0,-0.6428,-0.611,-0.4801,-0.3982,-0.4273,-0.3427,0.0,-0.2041,-0.2183,-0.2256,-0.2128,-0.1213,-0.0516,-0.0372,0.0379,0.0998,0.1218,0.1386,0.1318,0.1156,0.0842,0.0685,0.0989,0.0837,0.0837,0.1371,0.1306,0.1165,-3.0567,-2.7257,-2.6872,-2.6426,-2.6106,-2.7058,-2.7826,-2.8281,-2.834,-2.8193,-2.7849,-2.7789,-2.6875,-2.5274,-2.5057,0.0,0.0,0.0,-2.6893,-2.7948,-2.772,-2.786,-2.8289,-2.8237,-2.8032,-2.7741,-2.7501,-2.7398,-2.7398,-2.5797,-2.3458,-2.0284,0.0,-1.7392,-1.645,-1.665,-1.6923,-1.7138,-1.7063,-1.7001,-1.7001,-1.6915,-1.6732,-1.6463,-1.6215,-1.6021,-1.5892,-1.5289,-1.5125,-1.5442,-1.4158,-1.3236,0.0,0.0,0.0,0.0,0.0,0.0,0.0,0.0,0.0,0.0,0.0,-0.8343,-0.7778,0.0,0.0,0.0,-0.7594,-0.7822,-0.7763,-0.7973,0.0,0.0,0.0,0.0,0.0,0.0,0.0,-0.941,-0.9446,-0.9464,-0.9786,-0.9443,-0.8724,-0.7503,-0.6447,-0.5701,-0.5312,0.0,-0.3113,-0.3345,-0.2619,-0.1943,-0.154,-0.1616,-0.1621,-0.1275,-0.0731,-0.0225,-0.0076,0.0767,0.1396,0.1636,0.1638,0.1718,0.1884,0.157,0.1335,0.157,0.1492,0.157,0.2121,0.2058,0.208,-3.4241,-3.2821,-3.1252,-2.9844,-2.8708,-2.9554,-2.9774,-2.9464,-2.9516,-2.9573,-2.9592,-2.9513,-2.858,-2.7087,-2.6626,0.0,-2.7546,-2.802,-2.8394,-2.8837,-2.9128,-2.8717,-2.7741,-2.8032,-2.7809,-2.7124,-2.7124,-2.7107,-2.7039,-2.5795,-2.4783,-2.3892,-2.1298,-1.9361,-1.8073,-1.7229,-1.7171,-1.7937,-1.7422,-1.7023,-1.7001,-1.6775,-1.672,-1.6698,-1.6409,-1.6269,-1.6258,-1.6463,-1.6474,-1.6247,-1.5594,-1.4976,-1.4341,0.0,0.0,0.0,0.0,0.0,0.0,0.0,0.0,0.0,0.0,0.0,0.0,0.0,0.0,-0.7556,-0.804,0.0,-0.8696,-0.8754,0.0,0.0,0.0,-0.7994,-0.8094,-0.837,-0.8698,-0.9124,0.0,0.0,-1.0136,-0.8863,-0.7365,-0.585,-0.368,-0.2496,-0.3288,-0.2197,-0.1488,-0.2738,-0.2365,-0.1967,-0.1759,-0.1432,-0.0874,-0.0221,0.0,0.0151,0.0529,0.0683,0.0915,0.1387,0.139,0.1473,0.1803,0.157,0.1335,0.1335,0.1335,0.1413,0.1887,0.1994,0.2102,-3.7253,-3.6261,-3.587,-3.3661,-3.049,-3.1664,-3.1727,-3.1002,-3.1287,-3.1438,-3.1475,-3.1103,-3.0136,-2.8724,-2.8637,-2.8668,-2.8823,-2.8991,-2.9116,-2.9162,-2.8991,-2.8768,-2.8494,-2.8289,-2.7946,-2.7501,-2.7467,-2.7347,-2.7073,-2.6739,-2.5561,-2.3689,-2.2902,-2.1568,-1.9469,-1.8766,-1.8293,-1.7984,-1.7866,-1.7519,-1.7044,-1.6775,-1.6581,-1.6398,-1.6161,-1.5946,-1.5785,-1.5828,-1.5828,-1.5763,-1.5607,-1.5023,-1.3996,-1.2654,0.0,0.0,0.0,0.0,0.0,0.0,0.0,0.0,0.0,-0.9054,-0.8061,0.0,-0.8156,0.0,-0.8469,-0.8678,-0.84,-0.8343,0.0,0.0,-0.8501,-0.8557,-0.915,-0.8998,-0.9056,-0.9638,-0.9614,-0.9567,-0.9599,-0.8286,-0.6688,-0.4926,-0.4387,-0.3956,-0.3284,-0.2399,-0.1757,-0.1853,-0.1131,-0.0504,0.0,-0.0433,0.0,0.0,0.0222,0.0598,0.097,0.1366,0.1769,0.2083,0.1944,0.18,0.1885,0.157,0.1335,0.1335,0.1335,0.1492,0.22,0.2133,0.2066,-3.8869,-3.8109,-3.8088,-3.6256,-3.3482,-3.3789,-3.3256,-3.2114,-3.2618,-3.2661,-3.2354,-3.1956,-3.0963,-2.9573,-2.9573,-2.947,-2.9316,-2.9299,-2.923,-2.9076,-2.9042,-2.8837,-2.8528,-2.8477,-2.8152,-2.7621,-2.7775,-2.7586,-2.7107,-2.7227,-2.6581,-2.5115,-2.4499,-2.3321,-2.1511,-2.0005,-1.8971,-1.8501,-1.8143,-1.7707,-1.7033,-1.6678,-1.6469,-1.6354,-1.5902,-1.561,-1.5491,-1.5322,-1.521,-1.5098,-1.4933,-1.4633,-1.4088,-1.3,-1.2225,0.0,0.0,0.0,0.0,0.0,0.0,0.0,0.0,0.0,0.0,0.0,-0.8251,-0.8245,-0.8634,-0.8767,-0.8456,-0.8666,-0.8775,-0.8921,-0.8859,-0.8885,-0.9103,-0.8887,-0.8934,-0.9255,-0.9187,-0.9084,-0.9013,-0.7751,-0.6245,-0.4557,-0.3904,-0.3163,-0.2007,-0.1351,-0.1093,-0.0837,-0.0356,0.0,0.0,0.0,0.0,0.0,0.0294,0.0664,0.0885,0.1273,0.1672,0.1835,0.1778,0.1718,0.1804,0.157,0.1413,0.1728,0.1728,0.1728,0.2121,0.2052,0.2064,-3.9654,-3.8869,-3.8807,-3.8024,-3.6662,-3.597,-3.4727,-3.3248,-3.3688,-3.342,-3.2629,-3.2201,-3.1237,-2.9967,-2.9967,-2.9761,-2.9384,-2.9384,-2.9196,-2.8888,-2.9162,-2.8956,-2.8357,-2.8682,-2.846,-2.7792,-2.8117,-2.7878,-2.7158,-2.745,-2.7381,-2.6876,-2.5753,-2.4535,-2.3132,-2.0915,-1.955,-1.91,-1.83,-1.7621,-1.7022,-1.6618,-1.6359,-1.633,-1.567,-1.5217,-1.5196,-1.4954,-1.4678,-1.4418,-1.4231,-1.4251,-1.446,-1.3333,-1.2882,0.0,-1.2333,0.0,0.0,0.0,0.0,0.0,0.0,0.0,0.0,-0.8434,-0.8167,-0.8278,-0.8688,-0.8872,-0.8807,-0.9067,-0.9222,-0.906,-0.9038,-0.8939,-0.8623,-0.859,-0.859,-0.859,-0.859,-0.8584,-0.8246,-0.7178,-0.5904,-0.4171,-0.2956,-0.1752,0.0,0.0,0.0,0.0,0.0,0.0,0.0,0.0,0.0,0.0,0.0293,0.0585,0.0732,0.1038,0.1351,0.1441,0.1536,0.163,0.1882,0.1728,0.1728,0.2278,0.22,0.2043,0.2044,0.2057,0.2074,-3.9909,-3.9371,-3.8931,-3.845,-3.7883,-3.7719,-3.6944,-3.5704,-3.5016,-3.396,-3.2647,-3.1615,-3.0892,-3.0343,-3.0326,-3.0121,-2.9795,-2.9795,-2.9573,-2.9213,-2.9282,-2.9248,-2.9111,-2.9179,-2.8991,-2.858,-2.8631,-2.8271,-2.7518,-2.7569,-2.6986,-2.583,-2.5562,-2.4114,-2.1652,0.0,0.0,0.0,-1.7937,-1.7275,-1.7157,-1.6922,-1.6586,-1.6136,-1.5728,0.0,-1.4595,-1.474,-1.4666,-1.4418,-1.4545,0.0,0.0,0.0,0.0,0.0,0.0,0.0,0.0,0.0,0.0,0.0,-0.8892,-0.8531,-0.8428,-0.8439,-0.8331,-0.8272,-0.8658,-0.8844,-0.8626,-0.8731,-0.8705,-0.8706,-0.8717,-0.8673,-0.8584,-0.859,-0.859,-0.859,-0.859,-0.8117,-0.7045,-0.651,-0.5393,-0.3063,-0.2302,-0.1556,-0.0206,0.0,0.0,0.0,0.0,0.0,0.0,0.0,0.0,0.0,0.0368,0.0741,0.1039,0.1434,0.1913,0.2152,0.2252,0.2271,0.2357,0.2278,0.2278,0.2435,0.2435,0.2357,0.2357,0.2362,0.2445,-3.9881,-3.9495,-3.8972,-3.8585,0.0,-3.8191,-3.7904,-3.728,-3.6742,-3.5792,-3.4494,-3.3399,-3.2445,-3.1524,-3.0926,-3.0412,-2.9898,-2.9898,-2.9676,-2.9316,-2.9299,-2.9299,-2.9299,-2.9299,-2.9128,-2.8802,-2.8956,-2.8648,-2.7929,-2.7895,-2.7439,-2.6525,-2.6355,-2.4865,-2.2111,-2.0536,-1.9378,-1.8523,-1.7887,-1.7467,-1.713,-1.692,-1.6606,-1.6274,-1.5823,0.0,0.0,0.0,0.0,0.0,0.0,0.0,0.0,-1.3912,0.0,-1.2959,-1.1988,-1.0858,-0.9756,-0.9624,-0.9486,-0.9102,-0.8775,-0.8503,-0.8302,-0.8468,-0.8528,-0.84,-0.8607,-0.8714,-0.8629,-0.859,-0.859,-0.859,-0.859,-0.859,-0.859,-0.859,-0.859,-0.859,-0.859,-0.8051,-0.6577,-0.6376,-0.5181,-0.2645,-0.2093,-0.1555,0.0,0.0,0.0,0.0,0.0,0.0,0.0,0.0,0.0,0.0,0.0518,0.0968,0.1124,0.1752,0.2237,0.2472,0.2493,0.2514,0.2514,0.2514,0.2514,0.2514,0.2514,0.2514,0.2514,0.2514,0.2514,-3.9695,-3.9302,-3.8869,-3.8523,-3.8191,-3.8191,-3.8191,-3.8171,-3.7991,0.0,0.0,-3.5275,-3.4078,-3.2737,-3.172,-3.0874,-3.0104,-2.995,-2.9727,-2.9419,-2.935,-2.9299,-2.9299,-2.9299,-2.9162,-2.8905,-2.9162,-2.8956,-2.8323,-2.8289,-2.8066,-2.7621,-2.7313,-2.5749,-2.2875,-1.961,-1.7891,-1.7801,-1.7819,-1.7598,-1.7054,-1.6822,-1.6658,-1.6412,-1.5898,-1.5548,-1.5251,-1.4859,-1.4583,-1.4524,-1.4173,-1.4298,-1.4948,-1.4858,-1.4462,-1.3695,-1.3645,-1.261,-1.0294,-1.0071,-0.9659,-0.8634,-0.859,-0.8486,-0.8279,-0.8491,-0.859,-0.859,-0.859,-0.8584,-0.859,-0.859,-0.859,-0.859,-0.859,-0.859,-0.859,-0.859,-0.859,-0.859,-0.859,-0.7917,-0.6239,-0.5971,-0.4973,-0.2428,-0.1622,-0.1358,0.0,0.0,0.0,0.0,0.0,0.0,0.0,0.0,0.0,0.0,0.0744,0.1198,0.144,0.1996,0.2474,0.248,0.2499,0.2511,0.2514,0.2514,0.2514,0.2514,0.2514,0.2514,0.2514,0.2514,0.2514,-3.8951,-3.8827,-3.846,-3.8233,-3.8191,-3.8191,-3.8191,-3.8104,-3.7146,-3.6112,-3.507,-3.4933,-3.4208,-3.3116,-3.2654,-3.1908,-3.0806,-3.0189,-2.9864,-2.9795,-2.947,-2.9299,-2.9299,-2.9299,-2.9282,-2.9248,-2.9282,-2.9093,-2.8734,-2.87,-2.834,-2.7672,-2.7552,-2.5714,-2.2187,-1.91,-1.7431,-1.715,-1.7258,-1.7263,-1.7145,-1.6958,-1.6737,-1.6407,-1.6081,-1.5688,-1.5158,-1.5276,-1.524,-1.504,-1.5141,-1.5414,-1.5671,-1.4835,-1.3813,-1.2641,-1.1705,-1.0476,-0.9024,-0.8838,-0.8795,-0.8645,-0.859,-0.8557,-0.8563,-0.8546,-0.859,-0.859,-0.859,-0.859,-0.859,-0.859,-0.859,-0.859,-0.859,-0.859,-0.859,-0.859,-0.859,-0.859,-0.859,-0.7579,-0.5366,-0.4763,-0.3708,-0.116,-0.0616,0.0,0.0,0.0,0.0,0.0,0.0,0.0,0.0,0.0,0.0147,0.0445,0.09,0.1439,0.1689,0.2175,0.2503,0.2507,0.2511,0.2514,0.2514,0.2514,0.2514,0.2514,0.2514,0.2514,0.2514,0.2514,0.2514,-3.9013,-3.8745,-3.8378,-3.8191,-3.8191,-3.8191,-3.8191,-3.8191,-3.7636,-3.6789,-3.5753,-3.5139,-3.4245,-3.317,-3.2207,-3.1374,-3.0669,-3.0138,-2.9778,-2.9573,-2.9384,-2.9299,-2.9299,-2.9299,-2.9299,-2.9299,-2.9299,-2.9128,-2.8802,-2.858,-2.8169,-2.7497,-2.6026,-2.4067,-2.1985,-1.9164,-1.7518,-1.7001,-1.7052,-1.707,-1.7058,-1.6976,-1.6819,-1.6571,-1.6447,-1.6175,-1.5758,-1.5848,-1.5859,-1.5758,-1.5848,-1.6068,-1.6282,-1.5852,-1.5044,-1.3829,-1.3441,-1.2176,-0.9848,-0.905,-0.859,-0.859,-0.859,-0.859,-0.859,-0.859,-0.859,-0.859,-0.859,-0.859,-0.859,-0.859,-0.859,-0.859,-0.859,-0.859,-0.859,-0.859,-0.859,-0.859,-0.859,-0.7779,-0.5704,-0.4763,-0.3575,-0.1506,-0.0553,0.0,0.0,0.0,0.0,0.0,0.0,0.0,0.0,0.0219,0.0368,0.0599,0.1131,0.1602,0.1861,0.2272,0.2434,0.2514,0.2514,0.2514,0.2514,0.2514,0.2514,0.2514,0.2514,0.2514,0.2514,0.2357,0.2278,-3.904,-3.8667,-3.8336,-3.8191,-3.8191,-3.8191,-3.8191,-3.8191,-3.8191,-3.7549,-3.6431,-3.5539,-3.4527,-3.3302,-3.1839,-3.0892,-3.0498,-3.0001,-2.9658,-2.9453,-2.935,-2.9299,-2.9299,-2.9299,-2.9299,-2.9299,-2.9299,-2.9162,-2.8888,-2.8597,-2.8203,-2.7492,-2.4968,-2.3135,-2.1957,-1.9661,-1.7969,-1.7066,-1.7001,-1.7001,-1.7001,-1.7001,-1.6915,-1.6754,-1.6732,-1.6657,-1.6484,-1.6474,-1.6474,-1.6474,-1.6474,-1.6549,-1.6785,-1.6806,-1.6252,-1.5156,-1.5196,-1.3961,-1.1147,-0.9771,-0.9029,-0.8628,-0.86,-0.859,-0.859,-0.859,-0.859,-0.859,-0.859,-0.859,-0.859,-0.859,-0.859,-0.859,-0.859,-0.859,-0.859,-0.859,-0.859,-0.859,-0.859,-0.8051,-0.6577,-0.5165,-0.3584,-0.179,-0.0697,0.0,0.0,0.0,0.0,0.0,0.0,0.0,0.0146,0.0367,0.0667,0.0833,0.1369,0.1844,0.2028,0.2356,0.2435,0.2514,0.2514,0.2514,0.2514,0.2514,0.2514,0.2514,0.2435,0.2281,0.213,0.1967,0.1807,-3.8295,-3.8253,-3.8191,-3.8191,-3.8191,-3.8191,-3.8191,-3.8191,-3.8191,-3.7549,-3.6507,-3.6036,-3.519,-3.4,-3.226,-3.1223,-3.0806,-2.9847,-2.9521,-2.9761,-2.947,-2.9299,-2.9299,-2.9299,-2.9299,-2.9299,-2.9299,-2.9282,-2.9196,-2.9162,-2.8819,-2.8043,-2.6273,-2.4219,-2.2076,-2.0537,-1.8908,-1.7066,-1.7001,-1.7001,-1.7001,-1.7001,-1.699,-1.698,-1.6969,-1.6969,-1.6915,-1.6937,-1.6937,-1.6947,-1.6926,-1.6947,-1.6969,-1.6969,-1.6481,-1.5433,-1.5338,-1.4066,-1.1488,-1.0982,-1.0225,-0.8951,-0.8649,-0.859,-0.859,-0.859,-0.859,-0.859,-0.859,-0.859,-0.859,-0.859,-0.859,-0.859,-0.859,-0.859,-0.859,-0.859,-0.859,-0.859,-0.859,-0.8051,-0.6719,-0.5386,-0.3401,-0.0977,-0.0492,0.0,0.0,0.0,0.0,0.0,0.0,0.0,0.0444,0.0594,0.09,0.153,0.1848,0.2014,0.2267,0.2435,0.2514,0.2514,0.2514,0.2514,0.2514,0.2514,0.2514,0.2358,0.2123,0.1814,0.151,0.1426,0.126,-3.8419,-3.8191,-3.8191,-3.8191,-3.8191,-3.8191,-3.8191,-3.8191,-3.8191,-3.7616,-3.6623,-3.5942,-3.4746,-3.3274,-3.2253,-3.1336,-3.0292,-2.9624,-2.9384,-2.9539,-2.9384,-2.9299,-2.9299,-2.9299,-2.9299,-2.9299,-2.9299,-2.9196,-2.8991,-2.8768,-2.8477,-2.8077,-2.6659,-2.4744,-2.2469,-2.1054,-1.9257,-1.7066,-1.7001,-1.7001,-1.7001,-1.7001,-1.7001,-1.7001,-1.7001,-1.7001,-1.7001,-1.7001,-1.7001,-1.7001,-1.7001,-1.7001,-1.7001,-1.7141,-1.7073,-1.6563,-1.5883,-1.4674,-1.2789,-1.1757,-1.047,-0.8911,-0.8725,-0.8671,-0.8595,-0.859,-0.859,-0.859,-0.859,-0.859,-0.859,-0.859,-0.859,-0.859,-0.859,-0.859,-0.859,-0.859,-0.859,-0.859,-0.859,-0.8416,-0.7747,-0.6615,-0.4608,-0.2124,-0.1354,-0.1008,0.0,0.0,0.0,0.0,0.0,0.0,0.0521,0.0824,0.1211,0.1765,0.2083,0.2325,0.2427,0.2514,0.2514,0.2514,0.2435,0.2435,0.2514,0.2278,0.2121,0.2046,0.1821,0.1432,0.0959,0.0876,0.0715,-3.8481,-3.8212,-3.8191,-3.8253,-3.8357,-3.8233,-3.8191,-3.8191,-3.8191,-3.7798,-3.7153,-3.644,-3.5004,-3.32,-3.2199,-3.1021,-2.9914,-2.9487,-2.9299,-2.9299,-2.9299,-2.9299,-2.9299,-2.9299,-2.9299,-2.9299,-2.9299,-2.9179,-2.8922,-2.8648,-2.8443,-2.823,-2.7369,-2.5673,-2.3228,-2.1795,-1.9973,-1.7759,-1.7239,-1.7001,-1.7001,-1.7001,-1.7001,-1.7001,-1.7001,-1.7001,-1.7001,-1.7001,-1.7001,-1.7001,-1.7001,-1.7033,-1.7109,-1.7281,-1.7432,-1.7516,-1.6828,-1.5565,-1.3879,-1.2611,-1.1027,-0.9148,-0.8818,-0.8736,-0.8655,-0.8606,-0.859,-0.859,-0.859,-0.859,-0.859,-0.859,-0.859,-0.859,-0.859,-0.859,-0.859,-0.859,-0.859,-0.859,-0.859,-0.8432,-0.8151,-0.7183,-0.5591,-0.2851,-0.2229,-0.1742,0.0,0.0,0.0,0.0,0.0,0.0,0.0677,0.0984,0.1454,0.1929,0.2329,0.2491,0.251,0.2512,0.2514,0.2514,0.2435,0.2279,0.2202,0.1966,0.1662,0.1509,0.1278,0.0965,0.0567,0.0,0.0,-3.8191,-3.8191,-3.8191,-3.8398,-3.8703,-3.8357,-3.8191,-3.8191,-3.8191,-3.8129,-3.8026,-3.798,-3.6623,-3.4078,-3.2038,-3.0543,-2.9879,-2.9521,-2.935,-2.935,-2.935,-2.9316,-2.9299,-2.9299,-2.9333,-2.9402,-2.9367,-2.9316,-2.9265,-2.9248,-2.9093,-2.8768,-2.8622,-2.7229,-2.4645,-2.3128,-2.129,-1.893,-1.7705,-1.7012,-1.7012,-1.7012,-1.7023,-1.7012,-1.7001,-1.7001,-1.7001,-1.7001,-1.7001,-1.7001,-1.7001,-1.7109,-1.7324,-1.7389,-1.7604,-1.8003,-1.8122,-1.6967,-1.4398,-1.3623,-1.2252,-0.9707,-0.8969,-0.8769,-0.881,-0.8649,-0.859,-0.859,-0.859,-0.859,-0.859,-0.859,-0.859,-0.859,-0.859,-0.859,-0.859,-0.859,-0.859,-0.859,-0.8611,-0.8272,-0.7064,-0.6794,-0.5641,-0.356,-0.2502,-0.1869,0.0,0.0,0.0,0.0,0.0303,0.077,0.1155,0.1309,0.1704,0.2105,0.2425,0.251,0.2512,0.2514,0.2514,0.2438,0.2204,0.2049,0.1891,0.1585,0.1202,0.0967,0.081,0.0489,0.0246,0.0,0.0,-3.844,-3.8191,-3.8191,-3.8274,-3.8398,-3.8253,-3.8191,-3.8191,-3.8191,-3.8005,-3.7777,-3.7757,-3.6745,-3.4863,-3.3322,-3.1613,-2.9965,-2.9744,-2.9693,-2.971,-2.9915,-3.0018,-3.0018,-3.0018,-3.0018,-3.0001,-2.9795,-2.9556,-2.9316,-2.9299,-2.9248,-2.9145,-2.9111,-2.7719,-2.5317,-2.4337,-2.2332,-1.9316,-1.8438,-1.7815,-1.7098,-1.7163,-1.7173,-1.7012,-1.7001,-1.7001,-1.7001,-1.7001,-1.7001,-1.7001,-1.7001,-1.712,-1.7367,-1.768,-1.797,-1.8272,-1.839,-1.751,-1.5575,-1.439,-1.2957,-1.0812,-0.9463,-0.8851,-0.8769,-0.866,-0.859,-0.859,-0.859,-0.859,-0.859,-0.859,-0.859,-0.859,-0.859,-0.8595,-0.859,-0.859,-0.859,-0.8611,-0.8715,-0.8591,-0.8273,-0.8318,-0.7536,-0.5695,-0.4477,-0.3188,-0.1749,-0.0663,0.0,0.0,0.0305,0.0773,0.1248,0.156,0.1876,0.2272,0.2512,0.2512,0.2514,0.2514,0.2514,0.2219,0.1983,0.1673,0.1518,0.1126,0.0,0.0,0.0,0.0,0.0,0.0,0.0,-3.8786,-3.8833,-3.8688,-3.8709,-3.8792,-3.8523,-3.8398,-3.8378,-3.8253,-3.8005,-3.7757,-3.7715,-3.6983,-3.5693,-3.4763,-3.3092,-3.0915,-3.034,-3.0138,-3.0258,-3.0378,-3.0361,-3.0361,-3.0361,-3.0361,-3.0361,-3.0069,-2.9744,-2.9504,-2.9367,-2.9316,-2.9299,-2.9299,-2.818,-2.6129,-2.5217,-2.3247,-2.0588,-1.9364,-1.8415,-1.7573,-1.7358,-1.7173,-1.7033,-1.7001,-1.7001,-1.7001,-1.7001,-1.7044,-1.7109,-1.713,-1.727,-1.7604,-1.7992,-1.8272,-1.8412,-1.8433,-1.7791,-1.6372,-1.523,-1.3752,-1.1662,-1.0403,-0.9509,-0.8971,-0.8715,-0.8638,-0.8606,-0.8633,-0.8649,-0.8655,-0.8682,-0.8687,-0.8666,-0.8682,-0.8704,-0.8704,-0.8709,-0.8709,-0.8742,-0.8883,-0.896,-0.9057,-0.9159,-0.8194,-0.6616,-0.5673,-0.4587,-0.2053,-0.126,-0.0451,-0.0076,0.0539,0.0934,0.1331,0.1724,0.2039,0.2358,0.2514,0.2514,0.2518,0.2517,0.237,0.1993,0.1686,0.1373,0.0,0.0,0.0,0.0,0.0,0.0,0.0,0.0,0.0,-3.9302,-3.9972,-3.9633,-3.962,-3.9785,-3.8993,-3.8724,-3.86,-3.8357,-3.815,-3.8088,-3.815,-3.7534,-3.6582,-3.587,-3.4643,-3.2729,-3.1199,-3.0635,-3.0874,-3.0652,-3.0532,-3.0532,-3.0566,-3.0532,-3.048,-3.0121,-2.9932,-2.9881,-2.9556,-2.9367,-2.9333,-2.9333,-2.8493,-2.7118,-2.5835,-2.4349,-2.2306,-2.0298,-1.8918,-1.8454,-1.7607,-1.712,-1.7044,-1.7044,-1.7066,-1.7044,-1.7033,-1.7141,-1.7346,-1.7378,-1.7604,-1.7992,-1.8272,-1.8422,-1.8363,-1.8433,-1.7721,-1.6513,-1.6018,-1.4441,-1.2322,-1.1366,-1.0302,-0.9162,-0.8829,-0.8715,-0.8666,-0.8709,-0.8837,-0.8785,-0.8867,-0.8889,-0.8802,-0.8851,-0.8836,-0.8852,-0.8868,-0.8879,-0.8884,-0.8976,-0.9052,-0.916,-0.9237,-0.828,-0.6543,-0.6119,-0.5411,-0.1998,-0.1649,-0.1444,-0.0307,0.0621,0.1175,0.157,0.1887,0.2202,0.2519,0.2517,0.2515,0.2525,0.2527,0.2231,0.1849,0.1218,0.0,0.0,0.0,0.0,0.0,0.0,0.0,0.0,0.0,0.0,-3.9426,-3.9682,-3.9179,-3.9075,-3.9137,-3.8647,-3.8378,-3.8378,-3.8233,-3.8191,-3.8191,-3.8191,-3.7971,-3.7327,-3.6023,-3.4964,-3.4381,-3.2349,-3.1148,-3.1063,-3.1131,-3.1183,-3.12,-3.12,-3.108,-3.0857,-3.072,-3.0515,-3.0241,-2.9898,-2.971,-2.9676,-2.9436,-2.8593,-2.7267,-2.6522,-2.5191,-2.2924,-2.1378,-2.005,-1.8888,-1.8106,-1.7593,-1.7313,-1.741,-1.7496,-1.7486,-1.7346,-1.7378,-1.7604,-1.7615,-1.7766,-1.8067,-1.8315,-1.8433,-1.8433,-1.8433,-1.8293,-1.758,-1.5806,-1.4378,-1.2899,-1.1087,-0.9678,-0.9116,-0.8894,-0.8802,-0.8818,-0.8878,-0.8894,-0.8916,-0.8933,-0.9019,-0.891,-0.8932,-0.8895,-0.89,-0.8895,-0.8922,-0.8992,-0.9041,-0.9166,-0.9231,-0.9296,-0.8796,-0.7792,-0.7323,-0.5833,-0.3864,-0.242,-0.1762,-0.0309,0.0546,0.1342,0.1507,0.191,0.239,0.2547,0.254,0.2458,0.2463,0.2468,0.2168,0.1623,0.0984,0.0,0.0,0.0,0.0,0.0,0.0,0.0,0.0,0.0,0.0,-3.9571,-3.9654,-3.922,-3.9034,-3.8993,-3.8626,-3.844,-3.8398,-3.8253,-3.8191,-3.8191,-3.8191,-3.8191,-3.7904,-3.6742,-3.5772,-3.5086,-3.3454,-3.2263,-3.1408,-3.1439,-3.1559,-3.1559,-3.1559,-3.1456,-3.1234,-3.108,-3.0891,-3.0635,-3.0292,-3.0087,-3.0035,-2.9727,-2.8793,-2.7493,-2.6975,-2.5749,-2.3771,-2.2526,-2.1245,-1.9881,-1.899,-1.8215,-1.7639,-1.7647,-1.7766,-1.783,-1.7712,-1.7712,-1.7852,-1.7938,-1.8067,-1.8218,-1.8358,-1.8433,-1.8433,-1.8433,-1.8363,-1.8153,-1.623,-1.4449,-1.3626,-1.1423,-0.9648,-0.9247,-0.897,-0.8943,-0.8874,-0.8922,-0.8949,-0.8965,-0.9057,-0.9155,-0.9095,-0.909,-0.9084,-0.9008,-0.9079,-0.9111,-0.9182,-0.9204,-0.9237,-0.928,-0.9302,-0.9034,-0.8562,-0.7741,-0.6195,-0.4504,-0.2974,-0.1695,-0.0389,0.063,0.1195,0.1365,0.1853,0.2501,0.2578,0.2571,0.241,0.2252,0.2495,0.2346,0.1476,0.0746,0.0,0.0,0.0,0.0,0.0,0.0,0.0,0.0,0.0,0.0,-3.9778,-4.0137,-3.9702,-3.9364,-3.9302,-3.8869,-3.8709,-3.8688,-3.8424,-3.8325,-3.8325,-3.8503,-3.8479,-3.8433,-3.8145,-3.6917,-3.5264,-3.4771,-3.3436,-3.2017,-3.1645,-3.1628,-3.1576,-3.1559,-3.1542,-3.1474,-3.1217,-3.108,-3.1011,-3.0652,-3.0463,-3.0429,-3.0053,-2.9127,-2.7884,-2.7375,-2.6326,-2.4605,-2.3465,-2.2285,-2.1012,-1.9917,-1.8979,-1.7947,-1.7855,-1.7906,-1.8067,-1.8089,-1.8089,-1.8142,-1.8282,-1.8299,-1.8422,-1.8433,-1.8433,-1.8433,-1.8433,-1.8433,-1.8082,-1.6583,-1.5159,-1.3872,-1.2116,-1.0824,-0.9374,-0.9117,-0.8998,-0.8954,-0.9003,-0.9128,-0.9155,-0.9209,-0.9264,-0.9296,-0.9264,-0.9264,-0.9296,-0.9285,-0.9275,-0.9285,-0.9302,-0.9318,-0.9334,-0.934,-0.8743,-0.7768,-0.7141,-0.5797,-0.3585,-0.2394,-0.1563,-0.0473,0.0717,0.1127,0.1381,0.1954,0.253,0.2624,0.2534,0.2367,0.2203,0.2366,0.229,0.1409,0.0,0.0,0.0,0.0,0.0,0.0,0.0,0.0,0.0,0.0,0.0,-4.0116,-4.0067,-3.9302,-3.8972,-3.8889,-3.8543,-3.8378,-3.8424,-3.8786,-3.903,-3.9033,-3.9473,-3.9819,-4.0122,-3.9006,-3.7651,-3.6377,-3.5262,-3.385,-3.2185,-3.1987,-3.1816,-3.1611,-3.1559,-3.1559,-3.1542,-3.1456,-3.1422,-3.1388,-3.1028,-3.0857,-3.0857,-3.0412,-2.9394,-2.7912,-2.7614,-2.6651,-2.5046,-2.3894,-2.3052,-2.2284,-2.0792,-1.9712,-1.9232,-1.8545,-1.832,-1.8336,-1.8347,-1.8347,-1.8347,-1.8401,-1.8433,-1.8433,-1.8433,-1.8433,-1.8433,-1.8433,-1.8433,-1.7931,-1.6018,-1.4449,-1.3729,-1.1446,-0.9627,-0.933,-0.9182,-0.9166,-0.9171,-0.9182,-0.9171,-0.9226,-0.9215,-0.9226,-0.9285,-0.9302,-0.9302,-0.9302,-0.9302,-0.9302,-0.9313,-0.9378,-0.9421,-0.9443,-0.9429,-0.8969,-0.766,-0.6879,-0.6025,-0.3398,-0.2113,-0.1426,-0.0399,0.0644,0.1058,0.1477,0.2139,0.2562,0.2583,0.2499,0.2325,0.2241,0.224,0.1915,0.1342,0.0847,0.0,0.0,0.0,0.0,0.0,0.0,0.0,0.0,0.0,0.0,-4.0344,-4.0406,-3.9447,-3.9179,-3.9392,-3.9464,-3.9255,-3.9041,-3.9894,-4.0072,-3.9963,-4.03,-4.0825,-4.113,-4.0143,-3.8971,-3.7738,-3.6004,-3.4492,-3.3109,-3.2277,-3.1819,-3.1593,-3.1559,-3.1559,-3.1559,-3.1559,-3.1559,-3.1525,-3.1337,-3.1251,-3.1183,-3.0857,-2.9795,-2.8308,-2.7804,-2.6935,-2.5461,-2.4445,-2.3854,-2.3093,-2.2138,-2.0902,-2.0117,-1.9333,-1.8982,-1.8503,-1.8433,-1.8433,-1.8433,-1.8433,-1.8433,-1.8433,-1.8433,-1.8433,-1.8433,-1.8433,-1.8433,-1.7861,-1.5584,-1.4022,-1.3373,-1.1012,-0.9529,-0.9275,-0.9237,-0.9247,-0.9275,-0.9237,-0.9247,-0.9275,-0.9242,-0.9242,-0.9291,-0.9302,-0.9302,-0.9302,-0.9302,-0.9302,-0.9329,-0.9405,-0.9487,-0.9492,-0.9601,-0.8845,-0.7599,-0.6492,-0.4943,-0.297,-0.214,0.0,0.0,0.0,0.1151,0.1575,0.2161,0.2497,0.2603,0.2623,0.2362,0.2189,0.2104,0.1773,0.1358,0.0942,0.0,0.0,0.0,0.0,0.0,0.0,0.0,0.0,0.0,0.0,-4.0468,-4.0737,-3.9958,-3.9875,-4.0417,-4.1135,-4.0817,-4.024,-4.1337,-4.1542,-4.1053,-4.1197,-4.1728,-4.1946,-4.1396,-4.0535,-3.9239,-3.7103,-3.5413,-3.3936,-3.2684,-3.1867,-3.1696,-3.1593,-3.1559,-3.1559,-3.1559,-3.1559,-3.1559,-3.1542,-3.1542,-3.1439,-3.12,-3.0193,-2.8932,-2.8138,-2.7,-2.5751,-2.5276,-2.4667,-2.3899,-2.3406,-2.2315,-2.069,-1.9727,-1.9192,-1.8643,-1.8433,-1.8433,-1.8433,-1.8433,-1.8433,-1.8433,-1.8433,-1.8433,-1.8433,-1.8433,-1.8433,-1.8012,-1.5877,-1.4093,-1.3515,-1.1234,-0.9446,-0.9368,-0.9291,-0.9291,-0.9302,-0.9296,-0.9264,-0.9269,-0.928,-0.9296,-0.9302,-0.9302,-0.9307,-0.9318,-0.9323,-0.9323,-0.9334,-0.9443,-0.9514,-0.9552,-0.9324,-0.8829,-0.6619,-0.5498,-0.3675,-0.2138,-0.1203,0.0,0.0,0.0,0.1247,0.1672,0.2099,0.2355,0.2534,0.2645,0.2565,0.213,0.196,0.171,0.1461,0.1212,0.0783,0.0,0.0,0.0,0.0,0.0,0.0,0.0,0.0,0.0,-4.0282,-4.0323,-4.0366,-4.0663,-4.1183,-4.1917,-4.2149,-4.1925,-4.2812,-4.2838,-4.2572,-4.2903,-4.319,-4.3326,-4.2527,-4.1503,-3.9857,-3.7958,-3.6018,-3.3611,-3.3262,-3.2518,-3.2073,-3.1748,-3.1576,-3.1576,-3.1559,-3.1576,-3.1576,-3.1628,-3.1576,-3.1559,-3.1437,-3.0584,-2.9055,-2.8583,-2.754,-2.5943,-2.5696,-2.5499,-2.4954,-2.4442,-2.3394,-2.1657,-1.9877,-1.8795,-1.8503,-1.8433,-1.8433,-1.8433,-1.8433,-1.8433,-1.8433,-1.8433,-1.8433,-1.8433,-1.8433,-1.8433,-1.8082,-1.6654,-1.5088,-1.3808,-1.2101,-1.0587,-0.9374,-0.9318,-0.9313,-0.9285,-0.9226,-0.9209,-0.9204,-0.9264,-0.9307,-0.9318,-0.9329,-0.9356,-0.9421,-0.9443,-0.9432,-0.9487,-0.9617,-0.9758,-0.9683,-0.8693,-0.7602,-0.5773,-0.4243,-0.2456,-0.1444,-0.0488,0.0,0.0,0.0,0.1344,0.1678,0.2024,0.2286,0.2469,0.2579,0.2686,0.2332,0.2248,0.2083,0.183,0.1575,0.1053,0.0616,0.0,0.0,0.0,0.0,0.0,0.0,0.0,0.0,-4.1362,-4.1841,-4.1791,-4.2064,-4.2613,-4.3353,-4.336,-4.3115,-4.3984,-4.4075,-4.3669,-4.398,-4.4114,-4.3916,-4.3152,-4.2102,-4.0737,-3.8467,-3.5805,-3.359,-3.2946,-3.2758,-3.2433,-3.2004,-3.1765,-3.1645,-3.1765,-3.1816,-3.1867,-3.197,-3.2039,-3.185,-3.1833,-3.0847,-2.9225,-2.8853,-2.7795,-2.6343,-2.5988,-2.5915,-2.5688,-2.534,-2.4184,-2.2312,-2.0094,-1.8724,-1.8616,-1.8595,-1.8541,-1.8466,-1.8433,-1.8433,-1.8433,-1.8433,-1.8433,-1.8433,-1.8433,-1.8433,-1.8082,-1.7007,-1.5513,-1.403,-1.251,-1.0998,-0.9797,-0.94,-0.9405,-0.934,-0.9302,-0.9285,-0.9231,-0.9323,-0.9378,-0.9405,-0.9443,-0.9503,-0.9546,-0.9525,-0.9514,-0.9579,-0.972,-0.9796,-0.9407,-0.8658,-0.8015,-0.6859,-0.5066,-0.3434,-0.195,-0.1069,-0.0083,0.0,0.0,0.1439,0.1686,0.2029,0.2297,0.2401,0.2428,0.262,0.2538,0.2546,0.2646,0.2207,0.1766,0.1421,0.0981,0.0448,0.0179,0.0,0.0,0.0,0.0,0.0,0.0,-4.2797,-4.3687,-4.3412,-4.3521,-4.4079,-4.4805,-4.4559,-4.3877,-4.4914,-4.5028,-4.4504,-4.4617,-4.4437,-4.3915,-4.313,-4.2432,-4.0736,-3.8789,-3.5701,-3.3344,-3.3066,-3.2946,-3.2741,-3.2484,-3.2176,-3.1816,-3.197,-3.2107,-3.2278,-3.2484,-3.2415,-3.2244,-3.2124,-3.1059,-2.9704,-2.8956,-2.8082,-2.6612,-2.631,-2.6193,-2.6135,-2.6037,-2.4986,-2.2722,-2.0313,-1.899,-1.8767,-1.8692,-1.8616,-1.8455,-1.8433,-1.8433,-1.8433,-1.8433,-1.8433,-1.8433,-1.8433,-1.8433,-1.8223,-1.7298,-1.5947,-1.4102,-1.2952,-1.1239,-0.9989,-0.9497,-0.9508,-0.9449,-0.9394,-0.9432,-0.9378,-0.9449,-0.9503,-0.953,-0.9612,-0.9666,-0.9671,-0.9601,-0.9622,-0.9688,-0.9845,-0.9954,-0.9754,-0.9271,-0.8628,-0.7811,-0.5998,-0.4351,-0.2869,-0.1412,-0.0251,0.0505,0.0934,0.1711,0.2048,0.2145,0.2414,0.2425,0.2451,0.2554,0.2657,0.2752,0.267,0.2402,0.196,0.17,0.1255,0.0808,0.0538,0.0627,0.0,0.0,0.0,0.0,0.0,-4.3001,-4.3276,-4.3767,-4.4311,-4.4853,-4.5618,-4.5759,-4.5644,-4.5783,-4.5668,-4.521,-4.5187,-4.455,-4.3668,-4.2809,-4.0842,-3.8584,-3.7287,-3.5944,-3.3845,-3.3546,-3.3426,-3.3169,-3.2998,-3.2826,-3.2518,-3.2364,-3.2364,-3.2552,-3.2655,-3.2775,-3.257,-3.233,-3.1332,-3.0066,-2.9305,-2.8361,-2.6892,-2.6676,-2.6632,-2.6559,-2.6243,-2.5377,-2.293,-2.039,-1.9094,-1.881,-1.8627,-1.8476,-1.8433,-1.8433,-1.8444,-1.8476,-1.8476,-1.8455,-1.8433,-1.8433,-1.8433,-1.8293,-1.8153,-1.6513,-1.4697,-1.3617,-1.2108,-1.0375,-0.9584,-0.9617,-0.9536,-0.9492,-0.9519,-0.9601,-0.9617,-0.9633,-0.965,-0.9677,-0.9726,-0.978,-0.9796,-0.9786,-0.9845,-0.9998,-1.0128,-0.9908,-0.9624,-0.9053,-0.7838,-0.586,-0.4583,-0.3478,-0.1759,-0.0084,0.0425,0.0854,0.172,0.2508,0.2529,0.2633,0.2634,0.2565,0.2581,0.2771,0.2867,0.278,0.2505,0.2326,0.2062,0.1616,0.1167,0.0988,0.0987,0.0,0.0,0.0,0.0,0.0,-4.3952,-4.4297,-4.4663,-4.5005,-4.5256,-4.5577,-4.5737,-4.5714,-4.5714,-4.5599,-4.5324,-4.5094,-4.4369,-4.3303,-4.2384,-4.0049,-3.7662,-3.7175,-3.6034,-3.429,-3.382,-3.3768,-3.3511,-3.3374,-3.346,-3.334,-3.3049,-3.2792,-3.3032,-3.3426,-3.3289,-3.2998,-3.2792,-3.1733,-3.0203,-2.9631,-2.8603,-2.7406,-2.6998,-2.7013,-2.6736,-2.6062,-2.4356,-2.3024,-2.0847,-1.943,-1.9144,-1.9068,-1.8928,-1.8821,-1.8692,-1.8702,-1.8724,-1.867,-1.8562,-1.8476,-1.8455,-1.8444,-1.8444,-1.8304,-1.6986,-1.4457,-1.4027,-1.2655,-1.0586,-0.972,-0.9769,-0.9693,-0.9601,-0.9601,-0.973,-0.9726,-0.9753,-0.9769,-0.9807,-0.9867,-0.9927,-0.9981,-1.0008,-1.0019,-1.0123,-1.0226,-1.0211,-0.9848,-0.9421,-0.7942,-0.5869,-0.4828,-0.4023,-0.22,-0.0342,0.0774,0.1296,0.1913,0.2624,0.2554,0.2658,0.2752,0.2671,0.2688,0.2784,0.2874,0.2874,0.2781,0.2604,0.2335,0.2156,0.1707,0.1526,0.1257,0.0,0.0,0.0,0.0,0.0,-4.48,-4.5438,-4.5438,-4.5438,-4.5438,-4.5438,-4.5438,-4.5438,-4.5461,-4.5369,-4.5163,-4.4866,-4.4188,-4.3161,-4.1986,-4.009,-3.723,-3.7394,-3.6182,-3.4649,-3.3912,-3.3837,-3.3734,-3.3648,-3.3631,-3.3888,-3.3785,-3.3494,-3.3597,-3.3871,-3.382,-3.3494,-3.3323,-3.2258,-3.0509,-2.9965,-2.8992,-2.7984,-2.7261,-2.7232,-2.6731,-2.4891,-2.3413,-2.3165,-2.1066,-1.9639,-1.9456,-1.9338,-1.9241,-1.9101,-1.8982,-1.8939,-1.9068,-1.8961,-1.8778,-1.8545,-1.8513,-1.8503,-1.8524,-1.8028,-1.6764,-1.4407,-1.3916,-1.221,-1.07,-0.9829,-0.9927,-0.9867,-0.9775,-0.9726,-0.9775,-0.9824,-0.9867,-0.99,-0.9976,-1.0063,-1.0085,-1.0144,-1.0231,-1.0253,-1.028,-1.034,-1.0346,-1.0422,-0.9989,-0.9482,-0.7471,-0.5834,-0.485,-0.2659,-0.0778,0.0871,0.1839,0.2289,0.2564,0.2393,0.2581,0.2763,0.268,0.2602,0.2694,0.2874,0.2874,0.2874,0.2784,0.2515,0.2425,0.2335,0.1976,0.1616,0.1167,0.0808,0.0539,0.0,0.0,-4.5278,-4.5438,-4.5438,-4.5438,-4.5438,-4.5438,-4.5438,-4.5438,-4.5438,-4.5094,-4.4841,-4.5048,-4.4505,-4.3372,-4.237,-4.0518,-3.8628,-3.7521,-3.6497,-3.495,-3.4215,-3.3837,-3.3837,-3.3744,-3.3802,-3.4042,-3.4128,-3.4248,-3.4145,-3.4025,-3.3905,-3.37,-3.3368,-3.2442,-3.0825,-3.0362,-2.9449,-2.8132,-2.7598,-2.7335,-2.6749,-2.4737,-2.3748,-2.2769,-2.1175,-1.966,-1.9595,-1.9413,-1.9189,-1.9219,-1.9071,-1.905,-1.9071,-1.906,-1.9028,-1.8996,-1.8996,-1.8996,-1.8808,-1.7804,-1.6432,-1.4457,-1.3259,-1.1611,-1.0369,-0.9851,-0.9927,-1.0003,-0.9889,-0.9862,-0.9916,-0.9981,-0.9998,-1.0036,-1.0106,-1.0166,-1.0204,-1.0286,-1.0378,-1.0492,-1.052,-1.0541,-1.0596,-1.0672,-1.0576,-1.0062,-0.9196,-0.7373,-0.5181,-0.2784,-0.0875,0.0881,0.2033,0.2577,0.267,0.241,0.25,0.2772,0.2598,0.2515,0.2694,0.2874,0.2874,0.2874,0.2784,0.2694,0.2694,0.2515,0.2245,0.1976,0.1526,0.1167,0.0718,0.0,0.0,-4.5094,-4.5438,-4.5438,-4.5438,-4.5438,-4.5438,-4.5438,-4.5438,-4.5438,-4.5232,-4.5025,-4.491,-4.4188,-4.3031,-4.2226,-4.0453,-3.8248,-3.7582,-3.6331,-3.5025,-3.4215,-3.3837,-3.3837,-3.3778,-3.3829,-3.4076,-3.4111,-3.4162,-3.4231,-3.4213,-3.4076,-3.382,-3.359,-3.271,-3.1145,-3.0787,-2.9669,-2.8639,-2.8052,-2.7759,-2.6949,-2.5667,-2.4249,-2.3426,-2.1594,-2.0504,-1.9799,-1.9618,-1.9542,-1.9521,-1.9445,-1.9424,-1.9467,-1.9445,-1.9391,-1.9542,-1.9542,-1.9413,-1.8968,-1.7536,-1.6028,-1.4546,-1.2986,-1.153,-1.0295,-0.9938,-0.9949,-1.0008,-0.9976,-0.9976,-1.003,-1.0085,-1.0112,-1.0161,-1.0242,-1.0291,-1.0346,-1.0427,-1.052,-1.0645,-1.0759,-1.0786,-1.0819,-1.09,-1.0864,-1.055,-0.9497,-0.7736,-0.499,-0.1853,-0.0177,0.1069,0.2055,0.2777,0.2688,0.251,0.2598,0.2689,0.251,0.2515,0.2784,0.2874,0.2874,0.2874,0.2874,0.2874,0.2874,0.2784,0.2604,0.2335,0.2066,0.1616,0.1167,0.0,0.0,-4.4887,-4.5438,-4.5438,-4.5438,-4.5438,-4.5438,-4.5438,-4.5438,-4.5438,-4.5346,-4.5094,-4.4728,-4.3872,-4.2776,-4.2247,-4.0963,-3.8443,-3.7951,-3.6775,-3.553,-3.4574,-3.4348,-3.429,-3.4156,-3.3974,-3.4248,-3.3991,-3.4008,-3.4145,-3.4179,-3.4042,-3.3854,-3.3802,-3.2759,-3.1533,-3.0922,-3.0205,-2.8541,-2.8388,-2.8095,-2.7447,-2.6276,-2.4917,-2.364,-2.2271,-2.1037,-2.007,-1.9898,-1.9898,-1.9854,-1.9671,-1.9661,-1.9747,-1.9671,-1.965,-1.9833,-1.9844,-1.9372,-1.8418,-1.7075,-1.5826,-1.4458,-1.2699,-1.0928,-1.0297,-1.0019,-1.0019,-1.0019,-1.0063,-1.0057,-1.009,-1.0177,-1.0231,-1.0302,-1.0389,-1.0433,-1.0498,-1.0623,-1.0737,-1.0846,-1.096,-1.1036,-1.1085,-1.115,-1.1091,-1.0982,-0.9715,-0.8013,-0.4869,-0.1426,0.0268,0.1433,0.2151,0.2784,0.2784,0.2694,0.2694,0.2694,0.2515,0.2515,0.2784,0.2874,0.2874,0.2874,0.2874,0.2874,0.2874,0.2874,0.2874,0.2604,0.2335,0.2066,0.1707,0.1526,0.1167,-4.491,-4.5438,-4.5415,-4.5415,-4.5438,-4.5438,-4.5438,-4.5438,-4.5438,-4.514,-4.491,-4.4614,-4.4097,-4.3266,-4.2774,-4.1975,-4.0433,-3.9478,-3.8516,-3.7658,-3.6701,-3.5456,-3.495,-3.4365,-3.3871,-3.3922,-3.3854,-3.3871,-3.3888,-3.3974,-3.3905,-3.3837,-3.3837,-3.2757,-3.1699,-3.0945,-3.0069,-2.8795,-2.8505,-2.8253,-2.7647,-2.6636,-2.5302,-2.3907,-2.2443,-2.1112,-1.9995,-1.9919,-1.9919,-1.9919,-1.9876,-1.9854,-1.9898,-1.9865,-1.9887,-1.9898,-1.9919,-1.9241,-1.7879,-1.6339,-1.5184,-1.3992,-1.2306,-1.0374,-1.0092,-1.0019,-1.0019,-1.0041,-1.0112,-1.0172,-1.0221,-1.0291,-1.0362,-1.0454,-1.0558,-1.0661,-1.0748,-1.0884,-1.0992,-1.1074,-1.1139,-1.1188,-1.1253,-1.1297,-1.1302,-1.1193,-0.9333,-0.7526,-0.4713,-0.161,0.0269,0.1615,0.2334,0.2784,0.2874,0.2874,0.2784,0.2784,0.2694,0.2694,0.2874,0.2874,0.2874,0.2874,0.2874,0.2874,0.2874,0.2874,0.2874,0.2784,0.2604,0.2335,0.1886,0.1436,0.1167,-4.4612,-4.5392,-4.5025,-4.5071,-4.5438,-4.5438,-4.5438,-4.5438,-4.5438,-4.5484,-4.5484,-4.5187,-4.4503,-4.3731,-4.3066,-4.1834,-3.9982,-3.9405,-3.8826,-3.7731,-3.6497,-3.5754,-3.5157,-3.4574,-3.3837,-3.3837,-3.3837,-3.3837,-3.3854,-3.3837,-3.3837,-3.3837,-3.3761,-3.2773,-3.1763,-3.0531,-2.9511,-2.9064,-2.8681,-2.8549,-2.8147,-2.7668,-2.6261,-2.3983,-2.3543,-2.1853,-2.0329,-1.9919,-1.9919,-1.993,-1.993,-1.993,-1.9919,-1.9919,-1.9919,-1.9919,-1.9919,-1.8926,-1.7398,-1.5633,-1.4091,-1.1947,-1.0713,-1.0019,-1.0019,-1.0025,-1.0068,-1.0117,-1.0182,-1.0248,-1.0324,-1.0422,-1.052,-1.0612,-1.0732,-1.0862,-1.0965,-1.1085,-1.1161,-1.1204,-1.1243,-1.1281,-1.1346,-1.1417,-1.1406,-1.1218,-0.9162,-0.6941,-0.4109,-0.1613,0.0359,0.1617,0.2335,0.2784,0.2874,0.2874,0.2874,0.2874,0.2874,0.2874,0.2874,0.2874,0.2874,0.2874,0.2874,0.2874,0.2874,0.2874,0.2874,0.2784,0.2784,0.2694,0.2156,0.1526,0.1257,-4.4107,-4.4819,-4.452,-4.475,-4.5369,-4.5277,-4.5232,-4.5415,-4.5438,-4.553,-4.5875,-4.553,-4.4775,-4.3797,-4.3224,-4.1975,-4.0341,-3.9694,-3.9188,-3.8316,-3.7217,-3.6349,-3.5605,-3.4799,-3.3837,-3.3837,-3.3837,-3.3837,-3.3837,-3.3837,-3.3837,-3.3761,-3.3458,-3.2528,-3.1379,-2.9819,-2.8886,-2.8886,-2.8871,-2.8812,-2.8578,-2.8278,-2.7429,-2.4964,-2.4252,-2.291,-2.1281,-2.0495,-2.0059,-2.0016,-1.9962,-1.9995,-1.9952,-1.9919,-1.9919,-1.9919,-1.9693,-1.8936,-1.694,-1.502,-1.2944,-1.0791,-1.0253,-1.0019,-1.0025,-1.0052,-1.0128,-1.0182,-1.0253,-1.0346,-1.0449,-1.0574,-1.0683,-1.0786,-1.0949,-1.1074,-1.1128,-1.1221,-1.127,-1.1324,-1.1351,-1.1368,-1.1389,-1.1355,-1.0634,-1.0086,-0.8122,-0.5979,-0.3666,-0.1255,0.0718,0.1707,0.2245,0.2604,0.2874,0.2874,0.2874,0.2874,0.2874,0.2874,0.2874,0.2874,0.2874,0.2874,0.2874,0.2874,0.2874,0.2874,0.2874,0.2874,0.2874,0.2784,0.2604,0.2066,0.1526,-4.3418,-4.3808,-4.3831,-4.4405,-4.5163,-4.4819,-4.491,-4.5392,-4.5438,-4.5484,-4.5507,-4.5393,-4.4571,-4.3438,-4.3115,-4.1975,-4.0933,-4.0647,-4.0504,-3.9858,-3.8024,-3.7364,-3.6423,-3.5249,-3.3837,-3.3837,-3.3837,-3.3837,-3.3837,-3.3837,-3.3837,-3.3534,-3.2985,-3.2146,-3.1302,-2.9756,-2.8964,-2.8886,-2.8886,-2.8856,-2.8783,-2.8453,-2.7263,-2.5899,-2.4572,-2.3125,-2.1797,-2.0858,-2.0406,-2.0231,-2.021,-2.0134,-2.007,-2.0038,-2.0006,-1.9973,-1.9984,-1.8359,-1.5429,-1.3575,-1.174,-1.0336,-1.0019,-1.003,-1.0052,-1.0112,-1.021,-1.028,-1.0394,-1.0509,-1.0628,-1.0742,-1.084,-1.0976,-1.1134,-1.1226,-1.1275,-1.1313,-1.1368,-1.1389,-1.1422,-1.1449,-1.1449,-1.1182,-1.0016,-0.8765,-0.6978,-0.4923,-0.2688,-0.0897,0.1167,0.1707,0.2245,0.2604,0.2874,0.2874,0.2874,0.2874,0.2874,0.2874,0.2874,0.2874,0.2874,0.2874,0.2874,0.2874,0.2874,0.2874,0.2874,0.2874,0.2874,0.2874,0.2694,0.2425,0.1796,-4.3372,-4.3785,-4.3464,-4.3716,-4.4313,-4.4543,-4.4887,-4.5369,-4.5461,-4.553,-4.5599,-4.505,-4.4313,-4.3565,-4.2689,-4.1855,-4.1075,-4.0882,-4.0882,-4.0576,-3.8462,-3.7658,-3.6627,-3.5231,-3.3837,-3.3837,-3.3837,-3.3837,-3.3837,-3.3837,-3.3837,-3.3534,-3.2468,-3.1379,-3.0516,-2.9431,-2.8886,-2.8886,-2.8886,-2.8886,-2.8793,-2.799,-2.69,-2.5478,-2.4181,-2.2834,-2.1625,-2.0932,-2.0632,-2.0468,-2.0447,-2.0382,-2.0362,-2.0351,-2.0297,-2.0177,-2.0111,-1.8825,-1.5528,-1.3089,-1.0882,-1.0252,-1.0047,-1.0079,-1.0134,-1.0172,-1.0275,-1.04,-1.0509,-1.0639,-1.0791,-1.0846,-1.0949,-1.1123,-1.1259,-1.1313,-1.1362,-1.14,-1.1527,-1.1438,-1.1543,-1.1543,-1.1455,-1.0377,-0.9215,-0.7792,-0.6004,-0.3764,-0.1525,-0.0179,0.1437,0.1707,0.2156,0.2604,0.2875,0.2889,0.2886,0.2882,0.2878,0.2874,0.2874,0.2874,0.2874,0.2874,0.2874,0.2874,0.2874,0.2874,0.2874,0.2874,0.2874,0.2874,0.2784,0.2335,0.1616,-4.3005,-4.3257,-4.2959,-4.3211,-4.3808,-4.4176,-4.4704,-4.5346,-4.537,-4.5485,-4.5232,-4.4501,-4.376,-4.3122,-4.2379,-4.1594,-4.0954,-4.0882,-4.0882,-4.0576,-3.8462,-3.7658,-3.6627,-3.5082,-3.3988,-3.3837,-3.3837,-3.3837,-3.3837,-3.3837,-3.3466,-3.2846,-3.1981,-3.0949,-3.0003,-2.9237,-2.8886,-2.8886,-2.8886,-2.8886,-2.8573,-2.7748,-2.6659,-2.5426,-2.4091,-2.2542,-2.1716,-2.1107,-2.077,-2.0716,-2.0673,-2.064,-2.0608,-2.0544,-2.049,-2.0436,-1.8945,-1.7766,-1.5297,-1.2355,-1.0673,-1.0193,-1.015,-1.0182,-1.0264,-1.0318,-1.0405,-1.0514,-1.0617,-1.0748,-1.0889,-1.0938,-1.1096,-1.127,-1.133,-1.1384,-1.1411,-1.1538,-1.1543,-1.1543,-1.1543,-1.1543,-1.1287,-0.9571,-0.8315,-0.672,-0.5119,-0.2695,-0.054,0.0541,0.1445,0.1716,0.2174,0.2726,0.2912,0.2915,0.2908,0.2891,0.2887,0.2883,0.2874,0.2874,0.2874,0.2874,0.2874,0.2874,0.2874,0.2874,0.2874,0.2874,0.2874,0.2874,0.2874,0.2425,0.1707,-4.2275,-4.2275,-4.2275,-4.289,-4.3648,-4.3808,-4.4428,-4.5415,-4.5438,-4.4937,-4.425,-4.4204,-4.3463,-4.2251,-4.1947,-4.1523,-4.1025,-4.0882,-4.0882,-4.0218,-3.8462,-3.7805,-3.6627,-3.51,-3.4064,-3.3837,-3.3837,-3.3837,-3.3837,-3.3837,-3.3152,-3.2114,-3.1644,-3.0639,-2.9763,-2.9125,-2.8915,-2.8886,-2.8886,-2.8886,-2.8651,-2.7462,-2.6569,-2.5477,-2.4129,-2.2853,-2.2099,-2.1709,-2.1231,-2.0996,-2.092,-2.0791,-2.0684,-2.0597,-2.0587,-1.9802,-1.7673,-1.6228,-1.5161,-1.2379,-1.0762,-1.04,-1.0394,-1.04,-1.0405,-1.0454,-1.0536,-1.0639,-1.0753,-1.0851,-1.0954,-1.1096,-1.1237,-1.133,-1.1389,-1.1422,-1.1444,-1.1543,-1.1543,-1.1543,-1.1543,-1.1376,-1.1136,-0.9692,-0.729,-0.5968,-0.4262,-0.2087,-0.0182,0.0729,0.146,0.1644,0.2108,0.2766,0.2951,0.2943,0.2926,0.2906,0.2905,0.2901,0.2889,0.2875,0.2874,0.2874,0.2874,0.2874,0.2874,0.2874,0.2874,0.2874,0.2874,0.2874,0.2874,0.2694,0.2156,-4.2275,-4.2275,-4.2275,-4.2436,-4.278,-4.3533,-4.4405,-4.5346,-4.5438,-4.4937,-4.4159,-4.3675,-4.2909,-4.2018,-4.1452,-4.1167,-4.1025,-4.0882,-4.0882,-4.0002,-3.8535,-3.7731,-3.6553,-3.5082,-3.4139,-3.3837,-3.3837,-3.3837,-3.3837,-3.3837,-3.3019,-3.1706,-3.149,-3.0623,-2.9744,-2.9061,-2.8973,-2.8915,-2.8915,-2.8886,-2.8261,-2.6912,-2.6201,-2.5092,-2.3348,-2.2234,-2.1831,-2.1599,-2.12,-2.1179,-2.1157,-2.1103,-2.1093,-2.1071,-2.1071,-2.0638,-1.8049,-1.5635,-1.5252,-1.2591,-1.0617,-1.0606,-1.0612,-1.0574,-1.0552,-1.0563,-1.0645,-1.0759,-1.0867,-1.0954,-1.1079,-1.1215,-1.1324,-1.1389,-1.1433,-1.1444,-1.1543,-1.1543,-1.1549,-1.1487,-1.1487,-1.1441,-1.1104,-0.8505,-0.6265,-0.5024,-0.3484,-0.1285,0.0184,0.1012,0.1567,0.1753,0.2223,0.2887,0.2971,0.2961,0.2941,0.2924,0.2926,0.2917,0.2891,0.2879,0.2876,0.2874,0.2874,0.2874,0.2874,0.2874,0.2874,0.2874,0.2874,0.2874,0.2874,0.2694,0.2425,-4.2155,-4.2252,-4.2275,-4.2431,-4.2798,-4.3716,-4.452,-4.5048,-4.5278,-4.48,-4.3814,-4.3306,-4.2538,-4.1573,-4.1096,-4.0954,-4.0882,-4.0882,-4.0882,-4.0289,-3.8462,-3.7731,-3.6553,-3.5157,-3.4064,-3.3837,-3.3837,-3.3837,-3.3761,-3.3702,-3.3035,-3.1695,-3.157,-3.0761,-2.9873,-2.931,-2.912,-2.9047,-2.8988,-2.8915,-2.7947,-2.6517,-2.5502,-2.4627,-2.2556,-2.1599,-2.1276,-2.1276,-2.1276,-2.1276,-2.1276,-2.1276,-2.1265,-2.1265,-2.1265,-2.0646,-1.7963,-1.622,-1.5377,-1.2612,-1.1225,-1.0737,-1.0742,-1.0726,-1.0693,-1.0693,-1.077,-1.0862,-1.0954,-1.1052,-1.1194,-1.1407,-1.1472,-1.1538,-1.1538,-1.1543,-1.1543,-1.1543,-1.1487,-1.1525,-1.1563,-1.1607,-1.0187,-0.739,-0.5495,-0.4875,-0.3238,-0.0744,0.0465,0.1024,0.1676,0.1956,0.2433,0.3007,0.2995,0.308,0.2976,0.2966,0.2965,0.2949,0.2908,0.2887,0.2887,0.2882,0.2874,0.2874,0.2874,0.2874,0.2874,0.2874,0.2874,0.2874,0.2874,0.2784,0.2425,-4.188,-4.2275,-4.2275,-4.2568,-4.3142,-4.4038,-4.4497,-4.4612,-4.5049,-4.4503,-4.3306,-4.3097,-4.2327,-4.1218,-4.0954,-4.0882,-4.0882,-4.0882,-4.0882,-4.0719,-3.8462,-3.7438,-3.6701,-3.51,-3.3988,-3.3837,-3.3837,-3.3837,-3.3761,-3.3475,-3.2906,-3.184,-3.1606,-3.0913,-3.0034,-2.955,-2.9325,-2.9369,-2.9164,-2.891,-2.8197,-2.6754,-2.5025,-2.4627,-2.2946,-2.1276,-2.1276,-2.1276,-2.1276,-2.1276,-2.1276,-2.1276,-2.1276,-2.1276,-2.1276,-2.0201,-1.7783,-1.6475,-1.5087,-1.2714,-1.1231,-1.0737,-1.0748,-1.0802,-1.0802,-1.0786,-1.0851,-1.0987,-1.109,-1.1177,-1.1297,-1.1456,-1.1516,-1.1543,-1.1543,-1.1543,-1.1543,-1.1482,-1.1542,-1.1585,-1.1645,-1.1518,-1.0128,-0.7483,-0.5284,-0.4737,-0.2706,0.0,0.0847,0.1317,0.1693,0.2163,0.264,0.3029,0.3127,0.312,0.302,0.3014,0.3003,0.2968,0.2917,0.2904,0.29,0.2887,0.2874,0.2874,0.2874,0.2874,0.2874,0.2874,0.2874,0.2874,0.2874,0.2874,0.2515,-4.188,-4.2275,-4.2275,-4.2408,-4.2637,-4.3579,-4.4015,-4.4018,-4.4369,-4.4021,-4.3236,-4.2958,-4.2257,-4.1004,-4.0882,-4.0882,-4.0882,-4.0882,-4.0882,-4.0146,-3.8389,-3.7291,-3.6849,-3.495,-3.3988,-3.3837,-3.3837,-3.3778,-3.3753,-3.3297,-3.2616,-3.184,-3.1402,-3.0745,-3.0233,-2.9676,-2.95,-2.9647,-2.9383,-2.9134,-2.8689,-2.6795,-2.5025,-2.4308,-2.2878,-2.1448,-2.1286,-2.1276,-2.1276,-2.1276,-2.1276,-2.1276,-2.1276,-2.1276,-2.1276,-2.0617,-1.7901,-1.6418,-1.4856,-1.2803,-1.1076,-1.078,-1.0808,-1.0867,-1.0895,-1.0884,-1.0949,-1.1107,-1.1221,-1.1297,-1.1368,-1.1422,-1.1543,-1.1543,-1.1549,-1.1549,-1.1554,-1.1536,-1.1601,-1.1672,-1.1732,-1.0891,-0.9671,-0.7756,-0.5628,-0.3391,-0.1135,0.076,0.1235,0.171,0.1993,0.2373,0.2754,0.3047,0.3052,0.3145,0.3039,0.3026,0.3013,0.2972,0.2928,0.2911,0.2898,0.2885,0.2874,0.2879,0.2881,0.2874,0.2874,0.2874,0.2874,0.2874,0.2874,0.2874,0.2604,-4.1191,-4.1673,-4.1903,-4.2132,-4.25,-4.3395,-4.3611,-4.3462,-4.3939,-4.3606,-4.27,-4.2559,-4.1997,-4.0933,-4.0882,-4.0882,-4.0882,-4.0882,-4.0433,-3.955,-3.8535,-3.7217,-3.5978,-3.4799,-3.4139,-3.3837,-3.3778,-3.3812,-3.3873,-3.3269,-3.2553,-3.1999,-3.1366,-3.0686,-3.0307,-2.9778,-2.9676,-2.9837,-2.9544,-2.9383,-2.8935,-2.704,-2.5362,-2.4523,-2.3039,-2.1687,-2.1286,-2.1276,-2.1276,-2.1276,-2.1276,-2.1276,-2.1276,-2.1276,-2.0779,-1.9622,-1.7647,-1.5679,-1.4368,-1.2657,-1.0859,-1.0835,-1.0867,-1.0922,-1.1096,-1.1096,-1.1101,-1.1232,-1.1237,-1.1302,-1.1389,-1.1543,-1.1543,-1.1543,-1.1465,-1.1476,-1.1552,-1.165,-1.1743,-1.1835,-1.1613,-1.1006,-0.9577,-0.7541,-0.5388,-0.3218,-0.0762,0.0957,0.1436,0.2013,0.2301,0.2586,0.2968,0.3056,0.3148,0.3146,0.3047,0.3035,0.3024,0.3001,0.2969,0.2924,0.2894,0.29,0.2901,0.2896,0.2894,0.2885,0.2876,0.2874,0.2874,0.2874,0.2874,0.2874,0.2694,-4.0433,-4.0961,-4.1397,-4.188,-4.2431,-4.3303,-4.3344,-4.2906,-4.3576,-4.3214,-4.2138,-4.1926,-4.1452,-4.1096,-4.0882,-4.0882,-4.0882,-4.0882,-4.0218,-3.9478,-3.8097,-3.7217,-3.6052,-3.4574,-3.4064,-3.3837,-3.3854,-3.4076,-3.4316,-3.3332,-3.2484,-3.2284,-3.1703,-3.095,-3.0255,-2.991,-2.9939,-2.9866,-2.972,-2.953,-2.8621,-2.731,-2.6031,-2.4559,-2.3063,-2.1709,-2.1426,-2.134,-2.134,-2.1308,-2.1308,-2.1276,-2.1276,-2.1276,-2.0191,-1.8961,-1.7299,-1.5412,-1.377,-1.2064,-1.1205,-1.0922,-1.0944,-1.1041,-1.1221,-1.1281,-1.1286,-1.1297,-1.1297,-1.133,-1.1417,-1.146,-1.146,-1.1476,-1.1493,-1.1536,-1.165,-1.1764,-1.1873,-1.1884,-1.1263,-1.0737,-0.879,-0.6835,-0.4943,-0.2855,-0.1146,0.0288,0.1543,0.2222,0.2612,0.2798,0.2986,0.3073,0.3152,0.3146,0.305,0.3047,0.3037,0.3028,0.3007,0.2957,0.2931,0.2941,0.2939,0.2924,0.2908,0.2897,0.2889,0.2878,0.2874,0.2874,0.2874,0.2874,0.2874,-4.0594,-4.1443,-4.1558,-4.1857,-4.2321,-4.2982,-4.2983,-4.275,-4.2698,-4.2401,-4.1912,-4.1289,-4.0954,-4.0882,-4.0882,-4.0882,-4.0882,-4.0882,-4.0882,-4.0361,-3.8243,-3.7364,-3.6331,-3.4499,-3.3988,-3.3837,-3.3871,-3.4076,-3.4205,-3.2982,-3.2379,-3.2744,-3.1158,-3.058,-3.0454,-3.0203,-3.0115,-3.0012,-2.9879,-2.9731,-2.8165,-2.7023,-2.6152,-2.4751,-2.3267,-2.2367,-2.1814,-2.1653,-2.1588,-2.1502,-2.1405,-2.133,-2.1248,-2.1015,-1.9957,-1.8348,-1.6668,-1.4961,-1.3237,-1.1786,-1.1094,-1.1058,-1.1096,-1.1177,-1.1308,-1.1456,-1.1467,-1.1395,-1.14,-1.14,-1.1549,-1.1476,-1.1482,-1.1531,-1.1558,-1.1661,-1.1775,-1.1781,-1.1878,-1.1283,-1.047,-0.8983,-0.6825,-0.5038,-0.3236,-0.1432,0.0096,0.1351,0.1551,0.2236,0.2928,0.3019,0.3107,0.3078,0.3153,0.3149,0.3146,0.3148,0.3143,0.3033,0.3011,0.298,0.2966,0.2977,0.2965,0.2947,0.2931,0.2917,0.2897,0.2886,0.2878,0.2874,0.2874,0.2874,0.2874]}]]